[[{"header":{"parameterUnit":"m.s-1","parameterCategory":1,"la1":30.6,"la2":28.766,"lo1":-90.7593,"lo2":-88.6598,"dy":0.0162,"dx":0.0183,"nx":116,"ny":114,"refTime":"2024-03-29T18:00:00:Z","depth":0,"parameterNumber":2,"parameterNumberName":"U-component_of_WINDS"},"data":[0.0,0.0,0.0,0.0,0.0,0.0,0.0,0.0,0.0,0.0,0.0,0.0,0.0,0.0,0.0,0.0,0.0,0.0,0.0,0.0,0.0,0.0,0.0,0.0,0.0,0.0,0.0,0.0,0.0,0.0,0.0,0.0,0.0,0.0,0.0,0.0,0.0,0.0,0.0,0.0,0.0,0.0,0.0,0.0,0.0,0.0,0.0,0.0,0.0,0.0,0.0,0.0,0.0,0.0,0.0,0.0,0.0,0.0,0.0,0.0,0.0,0.0,0.0,0.0,0.0,0.0,0.0,0.0,0.0,0.0,0.0,0.0,0.0,0.0,0.0,0.0,0.0,0.0,0.0,0.0,0.0,0.0,0.0,0.0,0.0,0.0,0.0,0.0,0.0,0.0,0.0,0.0,0.0,0.0,0.0,0.0,0.0,0.0,0.0,0.0,0.0,0.0,0.0,0.0,0.0,0.0,0.0,0.0,0.0,0.0,0.0,0.0,0.0,0.0,0.0,0.0,0.0,0.0,0.0,0.0,0.0,0.0,0.0,0.0,0.0,0.0,0.0,0.0,0.0,0.0,0.0,0.0,0.0,0.0,0.0,0.0,0.0,0.0,0.0,0.0,0.0,0.0,0.0,0.0,0.0,0.0,0.0,0.0,0.0,0.0,0.0,0.0,0.0,0.0,0.0,0.0,0.0,0.0,0.0,0.0,0.0,0.0,0.0,0.0,0.0,0.0,0.0,0.0,0.0,0.0,0.0,0.0,0.0,0.0,0.0,0.0,0.0,0.0,0.0,0.0,0.0,0.0,0.0,0.0,0.0,0.0,0.0,0.0,0.0,0.0,0.0,0.0,0.0,0.0,0.0,0.0,0.0,0.0,0.0,0.0,0.0,0.0,0.0,0.0,0.0,0.0,0.0,0.0,0.0,0.0,0.0,0.0,0.0,0.0,0.0,0.0,0.0,0.0,0.0,0.0,0.0,0.0,0.0,0.0,0.0,0.0,0.0,0.0,0.0,0.0,0.0,0.0,0.0,0.0,0.0,0.0,0.0,0.0,0.0,0.0,0.0,0.0,0.0,0.0,0.0,0.0,0.0,0.0,0.0,0.0,0.0,0.0,0.0,0.0,0.0,0.0,0.0,0.0,0.0,0.0,0.0,0.0,0.0,0.0,0.0,0.0,0.0,0.0,0.0,0.0,0.0,0.0,0.0,0.0,0.0,0.0,0.0,0.0,0.0,0.0,0.0,0.0,0.0,0.0,0.0,0.0,0.0,0.0,0.0,0.0,0.0,0.0,0.0,0.0,0.0,0.0,0.0,0.0,0.0,0.0,0.0,0.0,0.0,0.0,0.0,0.0,0.0,0.0,0.0,0.0,0.0,0.0,0.0,0.0,0.0,0.0,0.0,0.0,0.0,0.0,0.0,0.0,0.0,0.0,0.0,0.0,0.0,0.0,0.0,0.0,0.0,0.0,0.0,0.0,0.0,0.0,0.0,0.0,0.0,0.0,0.0,0.0,0.0,0.0,0.0,0.0,0.0,0.0,0.0,0.0,0.0,0.0,0.0,0.0,0.0,0.0,0.0,0.0,0.0,0.0,0.0,0.0,0.0,0.0,0.0,0.0,0.0,0.0,0.0,0.0,0.0,0.0,0.0,0.0,0.0,0.0,0.0,0.0,0.0,0.0,0.0,0.0,0.0,0.0,0.0,0.0,0.0,0.0,0.0,0.0,0.0,0.0,0.0,0.0,0.0,0.0,0.0,0.0,0.0,0.0,0.0,0.0,0.0,0.0,0.0,0.0,0.0,0.0,0.0,0.0,0.0,0.0,0.0,0.0,0.0,0.0,0.0,0.0,0.0,0.0,0.0,0.0,0.0,0.0,0.0,0.0,0.0,0.0,0.0,0.0,0.0,0.0,0.0,0.0,0.0,0.0,0.0,0.0,0.0,0.0,0.0,0.0,0.0,0.0,0.0,0.0,0.0,0.0,0.0,0.0,0.0,0.0,0.0,0.0,0.0,0.0,0.0,0.0,0.0,0.0,0.0,0.0,0.0,0.0,0.0,0.0,0.0,0.0,0.0,0.0,0.0,0.0,0.0,0.0,0.0,0.0,0.0,0.0,0.0,0.0,0.0,0.0,0.0,0.0,0.0,0.0,0.0,0.0,0.0,0.0,0.0,0.0,0.0,0.0,0.0,0.0,0.0,0.0,0.0,0.0,0.0,0.0,0.0,0.0,0.0,0.0,0.0,0.0,0.0,0.0,0.0,0.0,0.0,0.0,0.0,0.0,0.0,0.0,0.0,0.0,0.0,0.0,0.0,0.0,0.0,0.0,0.0,0.0,0.0,0.0,0.0,0.0,0.0,0.0,0.0,0.0,0.0,0.0,0.0,0.0,0.0,0.0,0.0,0.0,0.0,0.0,0.0,0.0,0.0,0.0,0.0,0.0,0.0,0.0,0.0,0.0,0.0,0.0,0.0,0.0,0.0,0.0,0.0,0.0,0.0,0.0,0.0,0.0,0.0,0.0,0.0,0.0,0.0,0.0,0.0,0.0,0.0,0.0,0.0,0.0,0.0,0.0,0.0,0.0,0.0,0.0,0.0,0.0,0.0,0.0,0.0,0.0,0.0,0.0,0.0,0.0,0.0,0.0,0.0,0.0,0.0,0.0,0.0,0.0,0.0,0.0,0.0,0.0,0.0,0.0,0.0,0.0,0.0,0.0,0.0,0.0,0.0,0.0,0.0,0.0,0.0,0.0,0.0,0.0,0.0,0.0,0.0,0.0,0.0,0.0,0.0,0.0,0.0,0.0,0.0,0.0,0.0,0.0,0.0,0.0,0.0,0.0,0.0,0.0,0.0,0.0,0.0,0.0,0.0,0.0,0.0,0.0,0.0,0.0,0.0,0.0,0.0,0.0,0.0,0.0,0.0,0.0,0.0,0.0,0.0,0.0,0.0,0.0,0.0,0.0,0.0,0.0,0.0,0.0,0.0,0.0,0.0,0.0,0.0,0.0,0.0,0.0,0.0,0.0,0.0,0.0,0.0,0.0,0.0,0.0,0.0,0.0,0.0,0.0,0.0,0.0,0.0,0.0,0.0,0.0,0.0,0.0,0.0,0.0,0.0,0.0,0.0,0.0,0.0,0.0,0.0,0.0,0.0,0.0,0.0,0.0,0.0,0.0,0.0,0.0,0.0,0.0,0.0,0.0,0.0,0.0,0.0,0.0,0.0,0.0,0.0,0.0,0.0,0.0,0.0,0.0,0.0,0.0,0.0,0.0,0.0,0.0,0.0,0.0,0.0,0.0,0.0,0.0,0.0,0.0,0.0,0.0,0.0,0.0,0.0,0.0,0.0,0.0,0.0,0.0,0.0,0.0,0.0,0.0,0.0,0.0,0.0,0.0,0.0,0.0,0.0,0.0,0.0,0.0,0.0,0.0,0.0,0.0,0.0,0.0,0.0,0.0,0.0,0.0,0.0,0.0,0.0,0.0,0.0,0.0,0.0,0.0,0.0,0.0,0.0,0.0,0.0,0.0,0.0,0.0,0.0,0.0,0.0,0.0,0.0,0.0,0.0,0.0,0.0,0.0,0.0,0.0,0.0,0.0,0.0,0.0,0.0,0.0,0.0,0.0,0.0,0.0,0.0,0.0,0.0,0.0,0.0,0.0,0.0,0.0,0.0,0.0,0.0,0.0,0.0,0.0,0.0,0.0,0.0,0.0,0.0,0.0,0.0,0.0,0.0,0.0,0.0,0.0,0.0,0.0,0.0,0.0,0.0,0.0,0.0,0.0,0.0,0.0,0.0,0.0,0.0,0.0,0.0,0.0,0.0,0.0,0.0,0.0,0.0,0.0,0.0,0.0,0.0,0.0,0.0,0.0,0.0,0.0,0.0,0.0,0.0,0.0,0.0,0.0,0.0,0.0,0.0,0.0,0.0,0.0,0.0,0.0,0.0,0.0,0.0,0.0,0.0,0.0,0.0,0.0,0.0,0.0,0.0,0.0,0.0,0.0,0.0,0.0,0.0,0.0,0.0,0.0,0.0,0.0,0.0,0.0,0.0,0.0,0.0,0.0,0.0,0.0,0.0,0.0,0.0,0.0,0.0,0.0,0.0,0.0,0.0,0.0,0.0,0.0,0.0,0.0,0.0,0.0,0.0,0.0,0.0,0.0,0.0,0.0,0.0,0.0,0.0,0.0,0.0,0.0,0.0,0.0,0.0,0.0,0.0,0.0,0.0,0.0,0.0,0.0,0.0,0.0,0.0,0.0,0.0,0.0,0.0,0.0,0.0,0.0,0.0,0.0,0.0,0.0,0.0,0.0,0.0,0.0,0.0,0.0,0.0,0.0,0.0,0.0,0.0,0.0,0.0,0.0,0.0,0.0,0.0,0.0,0.0,0.0,0.0,0.0,0.0,0.0,0.0,0.0,0.0,0.0,0.0,0.0,0.0,0.0,0.0,0.0,0.0,0.0,0.0,0.0,0.0,0.0,0.0,0.0,0.0,0.0,0.0,0.0,0.0,0.0,0.0,0.0,0.0,0.0,0.0,0.0,0.0,0.0,0.0,0.0,0.0,0.0,0.0,0.0,0.0,0.0,0.0,0.0,0.0,0.0,0.0,0.0,0.0,0.0,0.0,0.0,0.0,0.0,0.0,0.0,0.0,0.0,0.0,0.0,0.0,0.0,0.0,0.0,0.0,0.0,0.0,0.0,0.0,0.0,0.0,0.0,0.0,0.0,0.0,0.0,0.0,0.0,0.0,0.0,0.0,0.0,0.0,0.0,0.0,0.0,0.0,0.0,0.0,0.0,0.0,0.0,0.0,0.0,0.0,0.0,0.0,0.0,0.0,0.0,0.0,0.0,0.0,0.0,0.0,0.0,0.0,0.0,0.0,0.0,0.0,0.0,0.0,0.0,0.0,0.0,0.0,0.0,0.0,0.0,0.0,0.0,0.0,0.0,0.0,0.0,0.0,0.0,0.0,0.0,0.0,0.0,0.0,0.0,0.0,0.0,0.0,0.0,0.0,0.0,0.0,0.0,0.0,0.0,0.0,0.0,0.0,0.0,0.0,0.0,0.0,0.0,0.0,0.0,0.0,0.0,0.0,0.0,0.0,0.0,0.0,0.0,0.0,0.0,0.0,0.0,0.0,0.0,0.0,0.0,0.0,0.0,0.0,0.0,0.0,0.0,0.0,0.0,0.0,0.0,0.0,0.0,0.0,0.0,0.0,0.0,0.0,0.0,0.0,0.0,0.0,0.0,0.0,0.0,0.0,0.0,0.0,0.0,0.0,0.0,0.0,0.0,0.0,0.0,0.0,0.0,0.0,0.0,0.0,0.0,0.0,0.0,0.0,0.0,0.0,0.0,0.0,0.0,0.0,0.0,0.0,0.0,0.0,0.0,0.0,0.0,0.0,0.0,0.0,0.0,0.0,0.0,0.0,0.0,0.0,0.0,0.0,0.0,0.0,0.0,0.0,0.0,0.0,0.0,0.0,0.0,0.0,0.0,0.0,0.0,0.0,0.0,0.0,0.0,0.0,0.0,0.0,0.0,0.0,0.0,0.0,0.0,0.0,0.0,0.0,0.0,0.0,0.0,0.0,0.0,0.0,0.0,0.0,0.0,0.0,0.0,0.0,0.0,0.0,0.0,0.0,0.0,0.0,0.0,0.0,0.0,0.0,0.0,0.0,0.0,0.0,0.0,0.0,0.0,0.0,0.0,0.0,0.0,0.0,0.0,0.0,0.0,0.0,0.0,0.0,0.0,0.0,0.0,0.0,0.0,0.0,0.0,0.0,0.0,0.0,0.0,0.0,0.0,0.0,0.0,0.0,0.0,0.0,0.0,0.0,0.0,0.0,0.0,0.0,0.0,0.0,0.0,0.0,0.0,0.0,0.0,0.0,0.0,0.0,0.0,0.0,0.0,0.0,0.0,0.0,0.0,0.0,0.0,0.0,0.0,0.0,0.0,0.0,0.0,0.0,0.0,0.0,0.0,0.0,0.0,0.0,0.0,0.0,0.0,0.0,0.0,0.0,0.0,0.0,0.0,0.0,0.0,0.0,0.0,0.0,0.0,0.0,0.0,0.0,0.0,0.0,0.0,0.0,0.0,-6.6185,0.0,0.0,0.0,0.0,0.0,0.0,0.0,0.0,0.0,0.0,0.0,0.0,0.0,0.0,0.0,0.0,0.0,0.0,0.0,0.0,0.0,0.0,0.0,0.0,-5.6012,-5.6012,-5.6012,-5.6012,-5.6012,-5.6012,0.0,0.0,0.0,0.0,0.0,-5.6012,-5.6012,-5.602,-5.6037,-5.602,-5.6012,-5.6012,-5.6012,-5.6012,-5.6012,0.0,0.0,0.0,0.0,0.0,0.0,0.0,0.0,0.0,0.0,0.0,0.0,0.0,0.0,0.0,0.0,0.0,0.0,0.0,0.0,0.0,0.0,0.0,0.0,0.0,0.0,0.0,0.0,0.0,0.0,0.0,0.0,0.0,0.0,0.0,0.0,0.0,0.0,0.0,0.0,0.0,0.0,0.0,0.0,0.0,0.0,0.0,0.0,0.0,0.0,0.0,0.0,0.0,0.0,0.0,0.0,0.0,0.0,0.0,0.0,0.0,0.0,0.0,0.0,0.0,0.0,0.0,0.0,0.0,0.0,0.0,-6.6185,0.0,0.0,0.0,0.0,0.0,0.0,0.0,0.0,0.0,0.0,0.0,0.0,0.0,0.0,0.0,0.0,0.0,0.0,0.0,0.0,0.0,-5.6012,-5.6012,-5.6012,-5.6012,-5.6012,-5.6012,-5.6012,-5.6012,-5.6012,0.0,0.0,-5.6012,-5.6012,-5.6012,-5.6012,-5.6029,-5.6062,-5.6029,-5.6012,-5.6012,-5.6012,-5.6012,-5.6012,-5.6012,0.0,0.0,0.0,0.0,0.0,0.0,0.0,0.0,0.0,0.0,0.0,0.0,0.0,0.0,0.0,0.0,0.0,0.0,0.0,0.0,0.0,0.0,0.0,0.0,0.0,0.0,0.0,0.0,0.0,0.0,0.0,0.0,0.0,0.0,0.0,0.0,0.0,0.0,0.0,0.0,0.0,0.0,0.0,0.0,0.0,0.0,0.0,0.0,0.0,0.0,0.0,0.0,0.0,0.0,0.0,0.0,0.0,0.0,0.0,0.0,0.0,0.0,0.0,-6.3207,-6.4145,-6.5025,-6.5992,-6.6417,-6.6417,-6.6417,-6.634,-6.6185,0.0,0.0,0.0,0.0,0.0,0.0,0.0,0.0,0.0,0.0,0.0,0.0,0.0,0.0,0.0,0.0,0.0,0.0,0.0,0.0,-5.6012,-5.6012,-5.6012,-5.6012,-5.6012,-5.6012,-5.6012,-5.6012,-5.6012,-5.6012,-5.6012,-5.6012,-5.6012,-5.6012,-5.6012,-5.6012,-5.602,-5.6012,-5.6012,-5.6012,-5.6012,-5.6012,-5.6012,-5.6012,-5.6012,-5.602,0.0,0.0,0.0,0.0,0.0,0.0,0.0,0.0,0.0,0.0,0.0,0.0,0.0,0.0,0.0,0.0,0.0,0.0,0.0,0.0,0.0,0.0,0.0,0.0,0.0,0.0,0.0,0.0,0.0,0.0,0.0,0.0,0.0,0.0,0.0,0.0,0.0,0.0,0.0,0.0,0.0,-6.1118,-6.1118,0.0,0.0,0.0,0.0,0.0,0.0,0.0,0.0,0.0,0.0,0.0,0.0,0.0,0.0,-6.1118,-6.1118,-6.1157,-6.1273,-6.2897,-6.4145,-6.5064,-6.6611,-6.7346,-6.7346,-6.7346,0.0,-6.6185,-6.6185,0.0,0.0,0.0,0.0,0.0,0.0,0.0,0.0,0.0,0.0,0.0,0.0,0.0,0.0,0.0,0.0,0.0,0.0,0.0,0.0,0.0,-5.6012,-5.6012,-5.6012,-5.6012,-5.6012,-5.6012,-5.6012,-5.6012,-5.6012,-5.6012,-5.6012,-5.6012,-5.6012,-5.6012,-5.6012,-5.6037,-5.6037,-5.6012,-5.6012,-5.6012,-5.6012,-5.6012,-5.602,-5.6046,-5.6046,0.0,0.0,0.0,0.0,0.0,0.0,0.0,0.0,0.0,0.0,0.0,0.0,0.0,0.0,0.0,0.0,0.0,0.0,0.0,0.0,0.0,0.0,0.0,0.0,0.0,0.0,0.0,0.0,0.0,0.0,0.0,0.0,0.0,0.0,0.0,0.0,0.0,0.0,0.0,-6.1118,-6.1118,-6.1118,-6.1118,-6.1118,0.0,0.0,0.0,0.0,0.0,0.0,0.0,0.0,0.0,-6.1118,-6.1118,-6.1118,-6.1118,-6.1582,-6.1814,-6.1853,-6.3594,-6.487,-6.5721,-6.6959,-6.7501,-6.7501,-6.7501,-6.6998,-6.6185,-6.6185,-6.6185,-6.6185,0.0,0.0,0.0,0.0,0.0,-6.6185,0.0,0.0,0.0,0.0,0.0,0.0,0.0,0.0,0.0,0.0,0.0,0.0,-5.6012,-5.6012,-5.6012,-5.6012,-5.6012,-5.6012,-5.6012,-5.6012,-5.6012,-5.6012,-5.6012,-5.6012,-5.6012,-5.6012,-5.6012,-5.6012,-5.6046,-5.6046,-5.6012,-5.6012,-5.6012,-5.6012,-5.6012,-5.6029,-5.6062,-5.6062,-5.6117,-5.6149,0.0,0.0,0.0,0.0,0.0,0.0,0.0,0.0,0.0,0.0,0.0,0.0,0.0,0.0,0.0,0.0,0.0,0.0,0.0,0.0,0.0,0.0,0.0,0.0,0.0,0.0,0.0,0.0,0.0,0.0,0.0,0.0,0.0,0.0,0.0,0.0,0.0,-6.1118,-6.1118,-6.1118,-6.1118,-6.1118,0.0,0.0,0.0,0.0,0.0,0.0,-6.1118,-6.1118,-6.1118,-6.1118,-6.1118,-6.1311,-6.1776,-6.2201,-6.2627,-6.3091,-6.4367,-6.5412,-6.6224,-6.7114,-6.7501,-6.7501,-6.7501,-6.6998,-6.6185,-6.6185,-6.6185,-6.6185,-6.6185,-6.6185,-6.6185,-6.6185,-6.6185,-6.6185,0.0,0.0,0.0,0.0,0.0,0.0,0.0,0.0,0.0,0.0,0.0,-5.6012,-5.6012,-5.6012,-5.6012,-5.6012,-5.6012,-5.6012,-5.6012,-5.6012,-5.6012,-5.6012,-5.6012,-5.6012,-5.6012,-5.6012,-5.6012,-5.6012,-5.6012,-5.6012,-5.6012,-5.6012,-5.6012,-5.6012,-5.6012,-5.6012,-5.6012,-5.6012,-5.6012,-5.602,-5.6149,0.0,0.0,0.0,0.0,0.0,0.0,0.0,0.0,0.0,0.0,0.0,0.0,0.0,0.0,0.0,0.0,0.0,0.0,0.0,0.0,0.0,0.0,0.0,0.0,0.0,0.0,0.0,0.0,0.0,0.0,0.0,0.0,0.0,0.0,0.0,0.0,0.0,0.0,-6.1118,-6.1118,0.0,0.0,0.0,0.0,-6.1118,-6.1118,-6.1118,-6.1118,-6.1118,-6.1118,-6.1118,-6.1118,-6.1892,-6.3565,-6.2781,-6.3245,-6.487,-6.4948,-6.5412,-6.6224,-6.7114,-6.7501,-6.7501,-6.7501,-6.6998,-6.6185,-6.6185,-6.6185,-6.6185,-6.6185,-6.6185,-6.6185,-6.6185,-6.6185,-6.6185,0.0,0.0,0.0,0.0,0.0,-5.6012,-5.6012,-5.6012,-5.6012,-5.6012,-5.6012,-5.6012,-5.6012,-5.6012,-5.6012,-5.6012,-5.6012,-5.6012,-5.6012,-5.6012,-5.6012,-5.6012,-5.6012,-5.6012,-5.6012,-5.6012,-5.6012,-5.6012,-5.6012,-5.6012,-5.6012,-5.6012,-5.6012,-5.6012,-5.6012,-5.6012,-5.6012,-5.6012,-5.6029,-5.6054,-5.6125,-5.6157,0.0,0.0,0.0,0.0,0.0,0.0,0.0,0.0,0.0,0.0,0.0,0.0,0.0,0.0,0.0,0.0,0.0,0.0,0.0,0.0,0.0,0.0,0.0,0.0,0.0,0.0,0.0,0.0,0.0,0.0,0.0,0.0,0.0,0.0,0.0,0.0,0.0,-6.1118,-6.1118,0.0,-6.1118,-6.1118,-6.1118,-6.1118,-6.1118,-6.1118,-6.1118,-6.1118,-6.135,-6.193,-6.193,-6.2511,-6.3681,-6.3942,-6.4406,-6.4986,-6.5528,-6.6224,-6.7036,-6.7346,-6.7501,-6.7501,-6.7501,-6.6998,-6.6185,-6.6185,-6.6185,-6.6185,-6.6185,-6.6185,-6.6185,-6.6185,-6.6185,-6.6185,0.0,0.0,0.0,0.0,-5.6012,-5.6012,-5.6012,-5.6012,-5.6012,-5.6012,-5.6012,-5.6012,-5.6012,-5.6012,-5.6012,-5.6012,-5.6012,-5.6012,-5.6012,-5.6012,-5.6012,-5.6012,-5.6012,-5.6012,-5.6012,-5.6012,-5.6012,-5.6012,-5.6012,-5.6012,-5.6012,-5.6012,-5.6012,-5.6012,-5.6012,-5.602,-5.6029,-5.6029,-5.6046,-5.6117,-5.611,-5.6172,-5.6279,0.0,0.0,0.0,0.0,0.0,0.0,0.0,0.0,0.0,0.0,0.0,0.0,0.0,0.0,0.0,0.0,0.0,0.0,0.0,0.0,0.0,0.0,0.0,0.0,0.0,0.0,0.0,0.0,0.0,0.0,0.0,0.0,0.0,0.0,0.0,-6.1118,-6.1118,-6.1118,-6.1118,-6.1118,-6.1118,-6.1118,-6.1118,-6.1389,-6.1543,-6.1543,-6.1814,-6.224,-6.282,-6.2859,-6.34,-6.4522,-6.4831,-6.5257,-6.5837,-6.6069,-6.6495,-6.7075,-6.7075,-6.7075,-6.7075,-6.7075,-6.6727,-6.6185,-6.6185,-6.6195,-6.6215,-6.6195,-6.6185,-6.6185,-6.6185,-6.6185,-6.6185,0.0,0.0,0.0,-5.6012,-5.6012,-5.6012,-5.6012,-5.6012,-5.6012,-5.6012,-5.6012,-5.6012,-5.6012,-5.6012,-5.6012,-5.6012,-5.6012,-5.6012,-5.6012,-5.6012,-5.6012,-5.6012,-5.6012,-5.6012,-5.6012,-5.6012,-5.6012,-5.6012,-5.6012,-5.6012,-5.6012,-5.6012,-5.6012,-5.6012,-5.6012,-5.6037,-5.6117,-5.6117,-5.6078,-5.6125,-5.617,-5.6199,-5.6206,0.0,0.0,0.0,0.0,0.0,0.0,0.0,0.0,0.0,0.0,0.0,0.0,0.0,0.0,0.0,0.0,0.0,0.0,0.0,0.0,0.0,0.0,0.0,0.0,0.0,0.0,0.0,0.0,0.0,0.0,0.0,0.0,0.0,-6.1118,-6.1118,-6.1118,-6.1118,-6.1118,-6.1118,-6.1118,-6.1118,-6.1157,-6.1157,-6.1969,-6.2433,-6.2433,-6.3245,-6.3719,-6.3758,-6.3758,-6.4532,-6.6185,-6.5412,-6.5837,-6.7462,-6.6611,-6.6185,-6.6185,-6.6185,-6.6185,-6.6185,-6.6185,-6.6185,-6.6185,-6.6185,-6.6254,-6.6303,-6.6244,-6.6185,-6.6195,-6.6195,-6.6195,-6.6234,0.0,0.0,-5.6012,-5.6012,-5.6012,-5.6012,-5.6012,-5.6012,-5.6012,-5.6012,-5.6012,-5.6012,-5.6012,-5.6012,-5.6012,-5.6012,-5.6012,-5.6012,-5.6012,-5.6012,-5.6012,-5.6012,-5.6012,-5.6012,-5.6012,-5.6012,-5.6012,-5.6012,-5.6012,-5.6012,-5.6012,-5.6012,-5.6029,-5.6062,-5.6062,-5.6125,-5.6164,-5.6156,-5.617,-5.617,-5.6192,-5.6213,-5.6278,0.0,0.0,0.0,0.0,0.0,0.0,0.0,0.0,0.0,0.0,0.0,0.0,0.0,0.0,0.0,0.0,0.0,0.0,0.0,0.0,0.0,0.0,0.0,0.0,0.0,0.0,0.0,0.0,0.0,0.0,0.0,0.0,-6.1118,-6.1118,-6.1118,-6.1118,-6.1118,-6.1118,-6.1118,-6.1118,-6.166,-6.2046,-6.2046,-6.2859,-6.3323,-6.3323,-6.3565,-6.399,-6.4609,-6.4648,-6.5141,-6.6185,-6.5992,-6.6108,-6.6533,-6.6301,-6.6185,-6.6185,-6.6185,-6.6185,-6.6185,-6.6185,-6.6185,-6.6185,-6.6185,-6.6195,-6.6215,-6.6274,-6.6312,-6.634,-6.634,-6.634,-6.634,0.0,-5.6012,-5.6012,-5.6012,-5.6012,-5.6012,-5.6012,-5.6012,-5.6012,-5.6012,-5.6012,-5.6012,-5.6012,-5.6012,-5.6012,-5.6012,-5.6012,-5.6012,-5.6012,-5.6012,-5.6012,-5.6012,-5.6012,-5.6012,-5.6012,-5.6012,-5.6012,-5.6012,-5.6747,-5.7095,-5.7095,-5.7856,-5.8031,-5.7737,-5.7758,-5.7625,-5.732,-5.693,-5.6798,-5.6806,-5.6388,-5.6272,-5.6291,-5.6291,-5.6291,-5.6524,-5.8195,-5.9127,-5.9943,-6.2585,0.0,0.0,0.0,0.0,0.0,0.0,0.0,0.0,0.0,0.0,0.0,0.0,0.0,0.0,0.0,0.0,0.0,0.0,0.0,0.0,0.0,0.0,0.0,0.0,-6.1118,-6.1118,-6.1118,-6.1118,-6.1118,-6.1118,-6.1427,-6.166,-6.166,-6.2433,-6.2936,-6.2936,-6.3748,-6.4261,-6.4261,-6.4571,-6.5141,-6.6031,-6.6031,-6.6456,-6.7268,-6.7307,-6.7307,-6.7307,-6.7307,-6.7307,-6.7307,-6.7307,-6.7307,0.0,-6.6882,-6.6727,-6.6727,-6.634,-6.6234,0.0,0.0,0.0,0.0,0.0,-6.6331,-6.6427,0.0,-5.6012,-5.6012,-5.6012,-5.6012,-5.6012,-5.6012,-5.6012,-5.6012,-5.6012,-5.6012,-5.6012,-5.6012,-5.6012,-5.6012,-5.6012,-5.6012,-5.6012,-5.6012,-5.6012,-5.6012,-5.6012,-5.6012,-5.6012,-5.6012,-5.6205,-5.6283,-5.6283,-5.7946,-5.8767,-5.8767,-6.0244,-6.0515,-5.9853,-5.9927,-5.9585,-5.8856,-5.8091,-5.7719,-5.7616,-5.6777,-5.6407,-5.6317,-5.6298,-5.6291,-5.6524,-5.8195,-5.8817,-5.9205,-6.1808,0.0,0.0,0.0,0.0,0.0,0.0,0.0,0.0,0.0,0.0,0.0,0.0,0.0,0.0,0.0,0.0,0.0,0.0,0.0,0.0,0.0,0.0,0.0,0.0,-6.1118,-6.1118,-6.1118,-6.1195,-6.1234,-6.1234,-6.193,-6.2433,-6.2549,-6.3323,-6.3835,-6.3835,-6.4648,-6.518,-6.5257,0.0,0.0,0.0,0.0,-6.8003,-6.8777,-6.8816,-6.8816,-6.8816,-6.8816,-6.8816,-6.8816,-6.8816,-6.8816,-6.8777,-6.7965,-6.7655,-6.7578,-6.6804,-6.6525,-6.6564,-6.6332,-6.6205,-6.6205,-6.6205,-6.6274,0.0,0.0,-5.6012,-5.6012,-5.6012,-5.6012,-5.6012,-5.6012,-5.6012,-5.6012,-5.6012,-5.6012,-5.6012,-5.6012,-5.6012,-5.6012,-5.6012,-5.6012,-5.6012,-5.6012,-5.6012,-5.6012,-5.6012,-5.6012,-5.6012,-5.6012,-5.7366,-5.8101,-5.8101,-5.9145,-5.9648,-5.9648,-5.9279,-5.9064,-5.9027,-5.9032,-5.9049,-5.899,-5.8785,-5.8319,-5.7662,-5.7487,-5.6975,-5.631,-5.6296,-5.6291,-5.6524,-5.8195,-5.8817,-5.9205,-6.1808,-6.3168,-6.3782,-6.3868,-6.3814,0.0,0.0,0.0,0.0,0.0,0.0,0.0,0.0,0.0,0.0,0.0,0.0,0.0,0.0,0.0,0.0,0.0,0.0,0.0,-6.1118,-6.1118,-6.1118,-6.1118,-6.1698,-6.2162,-6.2162,-6.2317,-6.2665,-6.3362,-6.4261,-6.4764,-6.4764,-6.5489,-6.6263,-6.6998,-6.7152,0.0,-6.8506,-6.8545,-6.8622,-6.8816,-6.8816,-6.8816,-6.8816,0.0,0.0,-6.8816,-6.8816,-6.8816,-6.8777,-6.8622,-6.8545,-6.8545,-6.839,-6.8313,-6.8179,-6.6864,-6.6349,-6.6349,-6.6349,-6.6358,-6.6415,0.0,-5.6313,-5.6012,-5.6012,-5.6012,-5.6012,-5.6012,-5.6012,-5.6012,-5.6012,-5.6012,-5.6012,-5.6012,-5.6012,-5.6012,-5.6012,-5.6012,-5.6012,-5.6012,-5.6012,-5.6012,-5.6012,-5.6012,-5.6399,-5.7288,-5.8139,-5.8797,-5.9261,-6.0538,-6.0925,-6.0499,-6.0991,-6.1026,-6.075,-6.0803,-6.0615,-6.0312,-5.9841,-5.9685,-5.957,-5.8227,-5.7703,-5.7616,-5.6645,-5.6581,-5.7114,-5.8331,-5.9088,-5.971,-6.1458,-6.2934,-6.3983,-6.3961,-6.3953,-6.3876,0.0,0.0,0.0,0.0,0.0,0.0,0.0,0.0,0.0,0.0,0.0,0.0,0.0,0.0,-6.1118,-6.1118,0.0,-6.1118,-6.1118,-6.1118,-6.1234,-6.1698,-6.2124,-6.2394,-6.2394,-6.3168,-6.3864,-6.43,-6.5102,-6.5605,-6.5605,-6.6379,-6.7036,-6.7501,-6.7926,-6.8545,-6.9357,-6.9396,-6.9628,-7.0054,-7.0054,-7.0054,-7.0054,-7.0054,-7.0054,-7.0054,-7.0054,-7.0054,-7.0015,-6.9589,-6.9396,-6.9357,-6.897,-6.8816,-6.87,-6.7939,-6.7396,-6.696,-6.6495,-6.6358,-6.6463,0.0,-5.6979,-5.6399,-5.6051,-5.6012,-5.6012,-5.6012,-5.6012,-5.6012,-5.6012,-5.6012,-5.6012,-5.6012,-5.6012,-5.6012,-5.6012,-5.6012,-5.6012,-5.6012,-5.6012,-5.6012,-5.6012,-5.6158,-5.6979,-5.8574,-5.9068,-5.9687,-6.0383,-6.1892,-6.222,-6.1405,-6.2728,-6.3015,-6.2509,-6.2524,-6.2222,-6.1642,-6.089,-6.1005,-6.149,-5.9179,-5.867,-5.9179,-5.7497,-5.7166,-5.7762,-5.8737,-5.9542,-6.0255,-6.1149,-6.2451,-6.375,-6.3937,-6.3859,-6.3743,-6.3937,-6.2765,0.0,0.0,0.0,0.0,0.0,0.0,0.0,0.0,0.0,-6.1182,-6.1173,-6.1146,-6.1118,-6.1118,-6.1118,-6.1118,-6.1118,-6.1234,-6.1621,-6.2317,-6.2704,-6.2897,-6.2897,-6.4135,-6.5064,-6.5218,-6.5837,-6.6185,-6.6185,-6.6998,-6.7578,-6.7733,-6.8584,-6.9396,-7.0208,-7.0247,-7.0595,-7.1291,-7.1291,-7.1291,-7.1291,-7.1291,-7.1291,-7.1291,-7.1291,-7.1291,-7.1253,-7.0556,-7.0247,-7.0208,-6.9755,-6.9561,-6.9572,-6.9633,-6.9237,-6.8462,-6.7251,-6.6853,-6.6967,0.0,-5.8372,-5.783,-5.6283,-5.6012,-5.6012,-5.6012,-5.6012,-5.6012,-5.6012,-5.6012,-5.6012,-5.6012,-5.6012,-5.6012,-5.6012,-5.6012,-5.6012,-5.6012,-5.6012,-5.6012,-5.6012,-5.6738,-5.7598,-5.8574,-6.0809,-6.2008,-6.2124,-6.3091,-6.3184,-6.24,-6.1864,-6.1617,-6.1704,-6.1744,-6.1719,-6.1679,-6.1607,-6.1605,-6.1603,-6.052,-6.0169,-6.0132,-5.9179,-5.8349,-5.789,-5.9522,-6.0145,-6.0307,-6.1198,-6.2106,-6.2966,-6.3705,-6.3387,-6.2921,-6.3697,-6.2688,-6.1337,-6.1366,-6.1352,-6.1314,-6.1314,-6.1297,-6.1281,0.0,0.0,-6.1173,-6.1137,-6.1118,-6.1118,-6.1118,-6.1118,-6.1118,-6.1118,-6.1737,-6.2278,-6.2394,-6.3748,-6.4715,-6.4715,-6.487,-6.5257,-6.5992,-6.6147,-6.6185,-6.6185,-6.6998,-6.7849,-6.8622,-6.9435,-7.0247,-7.1137,-7.1137,-7.1214,-7.1291,-7.1291,-7.1291,-7.1291,-7.1291,-7.1291,-7.1291,-7.1291,-7.1291,-7.1291,-7.1214,-7.1137,-7.1225,-7.1975,-7.2267,-7.2267,-7.2328,-7.2289,-7.1938,-6.9497,-6.8625,-6.8634,0.0,0.0,-5.8952,-5.7714,-5.7521,-5.7521,-5.7521,-5.7095,-5.6738,-5.6738,-5.6313,-5.6012,-5.6012,-5.6012,-5.6012,-5.6012,-5.6012,-5.6012,-5.6012,-5.6012,-5.6012,-5.6012,-5.6351,-5.7211,-5.8574,-6.0151,-6.1427,-6.2394,-6.3284,-6.3309,-6.2585,-6.2235,-6.1894,-6.1585,-6.159,-6.164,-6.169,-6.1683,-6.1991,-6.2345,-6.0978,-6.0705,-6.1059,-6.0176,-5.9608,-5.9288,-5.9979,-6.0516,0.0,-6.131,-6.2011,-6.2772,-6.3107,-6.2594,-6.1973,-6.2323,-6.1585,-6.073,-6.1205,-6.1283,-6.1234,-6.1191,-6.1182,-6.1173,-6.1127,-6.1127,-6.1137,-6.1118,-6.1118,-6.1118,-6.1118,-6.1118,-6.1273,0.0,-6.2162,-6.2743,-6.3787,-6.4522,-6.518,-6.5644,-6.5682,-6.5837,-6.6185,-6.6185,-6.6417,-6.692,-6.7771,-6.8622,-6.9435,-7.0286,-7.0905,-7.1291,-7.1291,-7.1291,-7.1291,-7.1291,-7.1291,-7.1291,-7.1291,-7.1291,-7.1291,-7.1291,-7.1291,-7.1291,-7.1324,-7.1345,-7.1384,-7.1833,-7.2318,-7.2754,-7.2802,-7.3102,-7.3315,-7.124,-7.0473,-7.046,0.0,0.0,0.0,-5.9416,-5.93,-5.9145,-5.869,-5.8062,-5.7675,-5.7675,-5.7095,-5.6631,-5.639,-5.6351,-5.6274,-5.6012,-5.6012,-5.6012,-5.6012,-5.6012,-5.6012,-5.6012,-5.6235,-5.7056,-5.8574,-5.9455,-6.0499,-6.1698,-6.2356,-6.2263,-6.1536,-6.1769,-6.1634,-6.1174,-6.1221,-6.1359,-6.1601,-6.1363,-6.1942,-6.2796,-6.1319,-6.1238,-6.1933,-6.1044,-6.0664,-6.0649,-6.0609,-6.0945,-6.1434,-6.1434,-6.1836,-6.2391,-6.2624,-6.1924,-6.1109,-6.1335,-6.0791,-6.0226,-6.0779,-6.107,-6.1173,-6.1146,-6.1127,-6.1118,-6.1118,-6.1118,-6.1118,-6.1118,-6.1118,-6.1118,-6.1118,-6.1118,-6.1389,-6.2278,-6.2588,-6.3284,-6.4793,-6.518,-6.5528,-6.6147,-6.6185,-6.6185,-6.6185,-6.6185,-6.6572,-6.7423,-6.8313,-6.9164,-6.9938,-7.0827,-7.1291,-7.1291,-7.1291,-7.1291,-7.1291,-7.1291,-7.1291,-7.1291,-7.1291,-7.1291,-7.1291,-7.1291,-7.1291,-7.1302,-7.1355,-7.1415,-7.1425,-7.1717,-7.2366,-7.319,-7.3431,-7.4067,-7.47,-7.3495,-7.2734,-7.2337,0.0,0.0,0.0,0.0,-6.1041,-6.0499,-5.8836,-5.8574,-5.8574,-5.8574,-5.8535,-5.8217,-5.7357,-5.7241,-5.6932,-5.6089,-5.6012,-5.6012,-5.6012,-5.6012,-5.6012,-5.6012,-5.6815,-5.7675,-5.8574,-5.9455,-5.9919,-5.9996,-5.9996,-5.9589,-5.8823,-5.9671,-6.0116,-6.0169,-6.0208,-6.0687,-6.1371,-6.057,-6.1229,-6.2732,-6.1816,-6.202,-6.2773,-6.1818,-6.1456,-6.1482,-6.1514,-6.1532,-6.1486,-6.1486,-6.149,-6.1568,-6.2429,-6.1536,-6.0293,-6.114,-6.0769,-6.0111,-6.0034,-6.0605,-6.1182,-6.1182,-6.1146,-6.1118,-6.1118,-6.1118,-6.1118,-6.1118,-6.1118,-6.1118,-6.1118,-6.1118,-6.1389,-6.2278,-6.3091,-6.399,-6.487,-6.5682,-6.6185,-6.6185,-6.6185,-6.6185,0.0,-6.6185,-6.6572,-6.7423,-6.8313,-6.9164,-6.9938,-7.0827,-7.1291,-7.1291,-7.1291,-7.1291,-7.1291,-7.1291,-7.1291,-7.1291,-7.1291,-7.1291,-7.1291,-7.1291,-7.1291,-7.1302,-7.1355,-7.1415,-7.1464,-7.2376,-7.3276,-7.4139,-7.5077,-7.5938,-7.6721,-7.6682,-7.5591,-7.4233,0.0,0.0,0.0,0.0,0.0,-6.0925,-6.0344,-5.9803,-5.9455,-5.9455,-5.9455,0.0,0.0,0.0,0.0,0.0,-5.8604,-5.8333,-5.7753,-5.7172,-5.6854,-5.6854,-5.6583,-5.6592,-5.6863,-5.7714,-5.8449,-5.9029,-5.9609,-6.0093,-6.0416,-6.0727,-6.0882,-6.0958,-6.0971,-6.114,-6.1382,-6.114,-6.14,-6.1922,-6.1605,-6.1692,-6.1937,-6.161,-6.1488,-6.15,0.0,-6.1504,-6.1447,-6.1447,-6.1415,-6.1451,-6.1723,-6.0621,-5.9163,-5.8831,-5.8909,-5.9218,-5.9783,-6.0523,-6.1137,-6.1137,-6.1127,-6.1118,-6.1118,-6.1118,-6.1118,-6.1118,-6.1118,-6.1118,-6.1118,-6.1118,-6.1582,-6.3013,-6.3526,-6.4184,-6.5605,-6.6031,-6.6185,-6.6185,-6.6185,0.0,0.0,0.0,0.0,-6.8313,-6.9125,-6.9976,-7.0827,-7.1137,-7.1291,-7.1291,-7.1291,-7.1291,-7.1291,-7.1291,-7.1291,-7.1291,-7.1291,-7.1291,-7.1291,-7.1291,-7.1313,-7.1355,-7.1469,-7.1513,-7.1559,-7.1967,-7.2633,-7.3529,-7.4441,-7.5283,-7.6088,-7.6634,-7.6549,-7.6109,0.0,0.0,0.0,0.0,0.0,0.0,0.0,0.0,0.0,0.0,0.0,0.0,0.0,0.0,0.0,0.0,0.0,-5.9648,-5.9106,-5.8255,-5.7753,-5.7753,-5.725,-5.694,-5.694,-5.7482,-5.8023,-5.8613,-5.9145,-5.9758,-6.0329,-6.0639,-6.0808,-6.0864,-6.0843,-6.1005,-6.1277,-6.1071,-6.1153,-6.1413,-6.1452,-6.1471,-6.1491,-6.1463,-6.1456,0.0,-6.1468,-6.1453,-6.1412,-6.1412,-6.1412,-6.1412,-6.1412,-6.0187,-5.8637,-5.7692,-5.7962,-5.8789,-5.9663,-6.0479,-6.1118,-6.1118,-6.1118,-6.1118,-6.1118,-6.1118,-6.1118,-6.1118,-6.1118,-6.1118,-6.1118,-6.1118,-6.166,-6.341,-6.3719,-6.43,-6.5953,-6.6185,-6.6185,-6.6185,-6.6185,-6.6533,0.0,0.0,0.0,-6.9164,-6.9705,-7.0363,-7.1253,-7.1291,-7.1291,-7.1291,-7.1291,-7.1291,-7.1291,-7.1291,-7.1291,-7.1291,-7.1291,-7.1302,-7.1324,-7.1368,-7.1426,-7.149,-7.1576,-7.1622,-7.1648,-7.1767,-7.23,-7.3156,-7.3705,-7.4613,-7.5683,-7.6269,-7.6716,-7.7028,0.0,0.0,0.0,0.0,0.0,0.0,0.0,0.0,0.0,0.0,0.0,0.0,0.0,0.0,0.0,0.0,0.0,0.0,-5.9957,-5.9145,-5.869,-5.869,-5.8613,-5.8613,-5.8613,-5.8613,-5.8613,-5.8613,-5.8613,-5.8613,-5.869,-5.9493,-5.9919,-5.9957,-5.9967,-6.0383,-6.105,-6.0373,-6.0544,-6.131,-6.1362,-6.146,-6.1471,-6.1428,-6.1412,-6.1412,-6.1412,-6.1412,-6.1412,-6.1412,-6.1412,-6.1373,-6.1327,-6.018,-5.8661,-5.7721,-5.8045,-5.8858,-5.9666,-6.0499,-6.1118,-6.1118,-6.1118,-6.1118,-6.1118,-6.1118,-6.1118,-6.1118,-6.1118,-6.1118,0.0,0.0,-6.166,-6.341,-6.3719,-6.43,-6.5953,-6.6185,-6.6224,0.0,0.0,0.0,0.0,0.0,0.0,-7.0015,0.0,-7.044,-7.1253,-7.1291,-7.1291,-7.1291,-7.1291,-7.1291,-7.1291,-7.1291,-7.1302,-7.1313,-7.1313,-7.1345,-7.1416,-7.1481,-7.1534,-7.1621,-7.169,-7.1696,-7.1738,-7.1795,-7.2307,-7.3049,-7.3088,-7.4129,-7.5586,-7.5664,-7.6279,-7.7032,0.0,0.0,0.0,0.0,0.0,0.0,0.0,0.0,0.0,0.0,0.0,0.0,0.0,0.0,0.0,0.0,0.0,0.0,-6.0886,-6.0035,-5.9571,-5.9571,-5.8952,-5.8613,-5.8613,-5.8613,-5.8613,-5.8613,-5.8613,-5.8913,-5.9571,-5.9803,-6.0228,-6.0809,-6.0845,-6.0979,-6.1173,-6.1034,-6.1097,-6.1327,-6.1373,-6.1401,-6.1428,-6.1388,-6.1412,-6.1412,-6.1412,-6.1412,-6.1412,-6.1412,-6.1359,-6.1205,-6.0483,-5.9993,-5.9434,-5.8562,-5.8892,-5.9627,-5.9851,-6.0499,-6.1118,-6.1118,-6.1118,-6.1118,-6.1118,-6.1118,-6.1118,-6.1118,-6.1118,-6.1118,0.0,0.0,0.0,-6.341,-6.3719,0.0,-6.5953,-6.6185,0.0,-6.7075,0.0,-6.7733,-6.9203,-6.9551,0.0,0.0,-7.0982,-7.1059,-7.1291,-7.1291,-7.1291,-7.1291,-7.1291,-7.1291,-7.1291,-7.1291,-7.1337,-7.1452,-7.1452,-7.1505,-7.1614,-7.1644,-7.1648,-7.1694,-7.1768,-7.1788,-7.1832,-7.191,-7.21,-7.2334,-7.2997,-7.3539,-7.4076,-7.5326,-7.5943,-7.6206,0.0,0.0,0.0,0.0,0.0,0.0,0.0,0.0,0.0,0.0,0.0,0.0,0.0,0.0,0.0,0.0,0.0,0.0,0.0,-6.0886,-6.0422,-6.0422,-5.9957,-5.9687,-5.9687,-5.9687,-5.9732,-5.9777,-5.9777,-6.0049,-6.0514,-6.0514,-6.0735,-6.1118,-6.1164,-6.1182,-6.1191,-6.1283,-6.1283,0.0,0.0,-6.1412,-6.1412,-6.1412,-6.1412,-6.1412,-6.1412,-6.1366,-6.1352,-6.1376,-6.1314,-6.1128,-6.0209,-5.9913,-5.9788,-5.9318,-5.9532,-5.9996,-6.0344,-6.077,-6.1118,-6.1118,-6.1118,-6.1118,-6.1118,-6.1118,-6.1118,-6.1118,-6.1118,-6.1118,-6.1118,-6.1118,-6.166,0.0,0.0,0.0,-6.5953,-6.6185,-6.6533,0.0,-6.7501,0.0,-6.9821,-6.9976,-7.0363,0.0,-7.1291,-7.1291,-7.1291,-7.1291,-7.1291,-7.1291,-7.1678,-7.2065,-7.2452,-7.2481,-7.2588,-7.2655,-7.267,-7.2534,-7.2266,-7.2314,-7.211,-7.1778,0.0,-7.1909,-7.1943,-7.1961,-7.1987,-7.2065,-7.2534,-7.2963,-7.3393,-7.4369,-7.5188,-7.5855,0.0,0.0,0.0,0.0,0.0,0.0,0.0,0.0,0.0,0.0,-6.576,-6.6147,0.0,0.0,0.0,0.0,0.0,0.0,0.0,0.0,-6.1118,-6.1118,-6.1107,-6.1107,-6.1118,-6.1125,-6.1181,-6.131,-6.1324,-6.1324,-6.131,-6.131,-6.1221,-6.1118,-6.1164,-6.1182,-6.1191,-6.1283,-6.1283,-6.1322,-6.1359,-6.1412,-6.1412,0.0,-6.1412,-6.1412,-6.1412,-6.1352,-6.1314,-6.1314,-6.1297,-6.1126,-6.0308,-6.0059,-6.005,-6.0044,-6.0074,-6.019,-6.0925,-6.1118,-6.1118,-6.1118,-6.1118,-6.1118,-6.1118,-6.1118,-6.1118,-6.1118,-6.1118,-6.1118,-6.1118,-6.1118,-6.166,-6.341,0.0,-6.43,-6.5953,-6.6301,-6.6688,-6.7578,-6.7771,-6.8468,-7.0015,-7.017,-7.0479,-7.1253,-7.1291,-7.1291,-7.1291,-7.1291,-7.133,-7.1485,-7.2336,-7.3121,-7.3928,-7.4043,-7.4117,-7.4133,-7.421,-7.3856,-7.3221,-7.3273,-7.289,-7.2264,0.0,0.0,-7.2339,-7.2456,-7.2495,-7.2534,-7.2612,-7.3158,-7.3822,-7.3939,-7.4915,-7.6167,0.0,0.0,0.0,0.0,0.0,0.0,0.0,0.0,0.0,0.0,-6.6108,-6.5953,0.0,0.0,0.0,0.0,0.0,0.0,0.0,0.0,0.0,-6.1118,-6.1189,-6.1197,-6.1079,-6.1246,-6.1316,-6.131,-6.1379,-6.134,-6.131,-6.131,-6.1221,-6.1118,-6.1164,-6.1182,-6.1191,-6.1283,-6.1283,-6.1322,-6.1359,-6.1412,-6.1412,-6.1412,0.0,0.0,-6.1412,-6.1352,-6.1314,-6.1314,-6.1272,-6.1191,-6.0952,-6.0895,-6.0895,-6.0886,-6.0886,-6.0925,-6.1079,-6.1118,-6.1118,-6.1118,-6.1118,-6.1118,-6.1118,-6.1118,0.0,-6.1118,-6.1118,-6.1118,-6.1118,-6.1118,-6.166,-6.341,-6.3719,-6.43,-6.5953,-6.6804,-6.7617,0.0,-6.9164,-6.9938,-7.0982,-7.1059,0.0,0.0,0.0,-7.1291,-7.1291,-7.1291,-7.164,-7.2336,-7.3226,-7.3788,-7.404,-7.4075,-7.4165,-7.436,-7.4374,-7.4366,-7.4329,-7.4323,-7.4236,-7.403,0.0,0.0,-7.4134,-7.4837,-7.5149,-7.5227,-7.593,-7.632,-7.6516,-7.7257,-7.7687,-7.8038,0.0,0.0,0.0,0.0,0.0,0.0,0.0,-6.5953,-6.6185,-6.6185,-6.5837,-6.5412,-6.5025,-6.4174,-6.3323,0.0,0.0,0.0,0.0,0.0,0.0,0.0,-6.1298,-6.1304,-6.1271,-6.1356,-6.1417,-6.1461,0.0,-6.1439,-6.1334,-6.139,-6.1317,-6.1079,-6.1191,-6.1208,-6.1191,-6.1283,-6.1283,-6.1322,-6.1359,-6.1412,-6.1412,0.0,0.0,0.0,-6.1412,-6.1352,-6.1314,-6.1299,-6.125,-6.1173,-6.1127,-6.1118,-6.1118,-6.1118,-6.1118,-6.1118,-6.1118,-6.1118,-6.1118,-6.1118,-6.1118,-6.1118,-6.1118,0.0,0.0,-6.1118,-6.1118,-6.1118,-6.1118,-6.1118,0.0,-6.341,-6.3719,-6.43,-6.5953,-6.6572,-6.7307,-6.8661,-6.9125,-6.986,0.0,-7.1291,0.0,0.0,0.0,-7.1291,-7.1291,-7.1717,-7.2584,-7.3947,-7.4412,-7.4895,-7.55,-7.5552,-7.5647,-7.5757,-7.5779,-7.5581,-7.5247,-7.5709,-7.5623,-7.5188,-7.5657,0.0,-7.5891,-7.6281,-7.6477,-7.6516,-7.6945,-7.7101,-7.714,-7.757,-7.7999,-7.8468,0.0,0.0,0.0,0.0,0.0,0.0,-6.6069,-6.6185,-6.6128,-6.5974,-6.5248,-6.4676,-6.4528,-6.3254,-6.2327,0.0,0.0,0.0,0.0,0.0,0.0,0.0,0.0,0.0,0.0,0.0,0.0,-6.1607,-6.1607,0.0,0.0,0.0,0.0,0.0,-6.1267,-6.1275,-6.1208,-6.1291,-6.1283,0.0,0.0,-6.149,0.0,0.0,0.0,0.0,0.0,-6.1359,-6.1329,-6.1283,-6.1267,-6.1191,-6.1146,-6.1127,-6.1118,-6.1118,-6.1118,-6.1118,-6.1118,-6.1118,-6.1118,-6.1118,-6.1118,-6.1118,-6.1118,-6.1118,-6.1118,-6.1118,-6.1118,-6.1118,-6.1118,-6.1234,-6.1892,0.0,-6.3874,-6.4493,-6.5992,-6.6379,-6.7075,0.0,-6.897,0.0,-7.1137,0.0,0.0,0.0,0.0,0.0,-7.1562,-7.2622,-7.3849,-7.5249,-7.5494,-7.602,-7.6848,-7.6942,-7.7015,-7.7023,-7.7259,-7.7002,-7.6375,-7.7263,-7.7296,-7.6672,-7.7375,0.0,0.0,-7.7843,-7.7921,-7.796,-7.8155,-7.8194,-7.8194,-7.8194,-7.8663,-7.9248,0.0,0.0,0.0,0.0,0.0,0.0,-6.6069,-6.6185,-6.5974,-6.5289,-6.445,-6.3655,-6.2997,-6.2626,-6.212,0.0,0.0,0.0,0.0,0.0,0.0,0.0,0.0,0.0,0.0,0.0,0.0,-6.1619,-6.1619,0.0,0.0,0.0,0.0,0.0,0.0,0.0,-6.1297,-6.1299,0.0,0.0,0.0,0.0,0.0,0.0,0.0,0.0,0.0,-6.1412,-6.1366,-6.1329,-6.1291,-6.1289,-6.1199,-6.1155,-6.1118,-6.1118,0.0,0.0,-6.1118,-6.1118,-6.1118,-6.1118,-6.1118,-6.1118,-6.1118,0.0,-6.1118,-6.1118,-6.1118,-6.1118,-6.1118,-6.1737,-6.2588,-6.3565,-6.4377,-6.518,-6.6069,-6.6882,-6.7733,-6.87,0.0,0.0,-7.1214,0.0,0.0,0.0,0.0,0.0,0.0,-7.4121,-7.5115,-7.5288,-7.6209,-7.6765,-7.6995,-7.6974,-7.703,-7.7093,-7.7905,-7.8247,-7.8197,-7.9053,-7.9405,-7.9366,0.0,0.0,0.0,-8.0302,-8.0654,-8.0732,-8.1513,-8.1825,-8.1825,-8.1825,-8.1864,-8.1942,0.0,0.0,0.0,0.0,0.0,0.0,-6.6383,-6.6009,-6.5556,-6.5258,-6.398,-6.3058,-6.284,-6.2229,-6.1681,-6.1384,0.0,0.0,0.0,0.0,0.0,0.0,0.0,0.0,0.0,0.0,-6.1679,-6.1679,-6.1629,0.0,0.0,0.0,0.0,0.0,0.0,0.0,0.0,-6.1306,0.0,0.0,0.0,0.0,0.0,0.0,0.0,0.0,0.0,0.0,-6.2111,-6.1553,-6.1314,-6.1297,-6.1267,-6.1199,-6.1118,-6.1118,-6.1118,-6.1118,-6.1118,-6.1118,-6.1118,-6.1118,-6.1118,-6.1127,-6.1155,0.0,-6.1127,-6.1155,-6.1137,-6.1273,-6.1776,-6.2162,-6.2859,-6.4251,-6.4764,-6.5257,-6.6108,-6.6495,-6.723,-6.8622,-6.9087,0.0,0.0,0.0,0.0,0.0,0.0,0.0,0.0,-7.4964,-7.5619,-7.6292,-7.6708,-7.6961,-7.7108,-7.7069,-7.7335,-7.7903,-7.8247,-7.8669,-7.9209,-8.0107,-8.0498,-8.0498,0.0,0.0,0.0,-8.163,-8.1786,-8.1825,-8.2176,-8.2293,-8.2293,-8.2293,-8.2293,-8.2293,0.0,0.0,0.0,0.0,0.0,-6.6413,-6.6229,-6.5694,-6.5114,-6.464,-6.3514,-6.2687,-6.2553,-6.1905,-6.1488,-6.1488,-6.1467,0.0,0.0,0.0,0.0,0.0,0.0,0.0,0.0,0.0,-6.1717,-6.1713,-6.1638,-6.158,0.0,0.0,0.0,0.0,0.0,0.0,0.0,0.0,0.0,0.0,0.0,0.0,0.0,0.0,0.0,0.0,0.0,0.0,0.0,0.0,0.0,-6.1632,-6.1376,-6.1242,-6.1155,-6.1146,-6.1127,-6.1118,-6.1118,-6.1118,-6.1118,-6.1118,-6.1127,-6.1146,0.0,0.0,-6.1164,-6.1182,-6.1164,-6.1407,-6.224,-6.2636,-6.3303,-6.4764,-6.5248,-6.5643,-6.6167,-6.629,-6.6919,0.0,0.0,0.0,0.0,0.0,0.0,0.0,0.0,0.0,0.0,-7.5696,-7.6165,-7.6987,-7.7016,-7.7069,-7.718,-7.736,-7.7781,-7.8403,-7.8903,-7.9483,-8.0107,-8.1005,-8.1396,-8.1435,0.0,0.0,0.0,-8.2293,-8.2293,-8.2293,-8.2293,-8.2293,-8.2293,-8.2293,-8.2293,-8.2293,0.0,0.0,0.0,0.0,0.0,-6.6317,-6.5455,-6.5299,-6.4714,-6.3112,-6.2925,-6.2594,-6.1796,-6.1719,-6.1719,-6.1719,-6.1626,0.0,0.0,0.0,0.0,0.0,0.0,0.0,0.0,0.0,-6.1712,-6.1697,-6.164,-6.1601,-6.1601,-6.1601,-6.1541,-6.149,0.0,0.0,0.0,0.0,0.0,0.0,0.0,0.0,0.0,0.0,0.0,0.0,0.0,0.0,0.0,0.0,0.0,0.0,0.0,-6.1297,-6.1289,-6.1238,-6.1155,-6.1118,-6.1118,-6.1118,-6.1118,-6.1118,-6.1155,-6.1182,-6.1182,-6.1264,-6.1289,-6.1199,-6.1182,-6.1444,-6.2249,-6.3168,-6.4038,-6.488,-6.5855,-6.6475,-6.6392,-6.651,0.0,0.0,0.0,0.0,0.0,0.0,0.0,0.0,0.0,0.0,0.0,-7.649,-7.7005,-7.7005,-7.707,-7.7094,-7.7083,-7.7969,-7.8392,-7.8432,-8.0146,-8.0966,-8.1005,-8.1903,-8.2293,0.0,0.0,0.0,0.0,-8.2293,-8.2293,-8.2293,-8.2293,-8.2293,-8.2293,-8.2293,-8.2293,-8.2293,0.0,0.0,0.0,0.0,0.0,0.0,-6.5526,-6.4475,-6.3541,-6.3041,-6.2456,-6.199,-6.1719,-6.1719,-6.1953,-6.2538,-6.2031,0.0,0.0,0.0,0.0,0.0,0.0,0.0,0.0,-6.3471,-6.3465,-6.3494,-6.3398,-6.3354,-6.3302,-6.3269,-6.3228,-6.3197,-6.3202,0.0,0.0,0.0,0.0,0.0,0.0,0.0,0.0,0.0,0.0,0.0,0.0,0.0,0.0,0.0,0.0,0.0,0.0,0.0,0.0,-6.1275,-6.125,-6.1255,-6.1255,-6.1255,-6.1255,-6.1255,-6.1264,-6.1281,-6.1275,-6.1267,-6.1306,-6.1275,-6.1724,-6.2352,-6.3277,-6.416,-6.5057,-6.5873,-6.6296,-6.6502,0.0,0.0,0.0,0.0,0.0,0.0,0.0,0.0,0.0,0.0,0.0,0.0,0.0,-7.6914,-7.7109,-7.7148,-7.7101,-7.7399,-7.7981,-7.8242,-7.9014,-8.0185,-8.0732,-8.1317,-8.1903,-8.2176,0.0,0.0,0.0,0.0,0.0,-8.2293,-8.2293,-8.2293,-8.2293,-8.2293,-8.2293,-8.2293,-8.2293,-8.2293,0.0,0.0,0.0,0.0,0.0,0.0,-6.4726,-6.3711,-6.289,-6.2539,-6.2305,-6.2187,-6.2187,-6.2461,-6.289,-6.3435,-6.3006,0.0,0.0,0.0,0.0,0.0,0.0,0.0,-6.4288,-6.4284,-6.4317,-6.4308,-6.4217,-6.4176,-6.4124,-6.4073,-6.4023,-6.3988,-6.3988,-6.4149,0.0,0.0,0.0,0.0,0.0,0.0,-6.6508,0.0,0.0,0.0,0.0,0.0,0.0,0.0,0.0,0.0,0.0,0.0,0.0,0.0,-6.1322,-6.1337,-6.1306,-6.1297,-6.1297,-6.1297,-6.1314,-6.1291,-6.1314,-6.1314,-6.1446,-6.1751,-6.221,-6.2976,-6.4187,-6.4875,-6.5523,-6.6346,-6.6564,0.0,0.0,0.0,0.0,0.0,0.0,0.0,0.0,0.0,0.0,0.0,0.0,0.0,0.0,0.0,-7.7252,-7.7646,-7.7597,-7.7861,-7.8403,-7.9059,-7.9912,-8.1005,-8.1317,-8.1786,-8.2293,-8.2293,0.0,0.0,0.0,0.0,0.0,-8.2293,-8.2293,-8.2293,-8.2293,-8.2293,-8.2293,-8.2293,-8.2293,-8.2293,0.0,0.0,0.0,0.0,0.0,0.0,0.0,-6.3008,-6.2695,-6.1914,-6.2539,-6.3086,-6.3086,-6.3827,-6.4333,-6.4371,-6.4405,0.0,0.0,0.0,0.0,0.0,0.0,0.0,-6.447,-6.4468,-6.4464,-6.4494,-6.4411,-6.4375,-6.4374,-6.431,-6.4248,-6.4198,-6.4198,-6.4603,-6.5336,-6.6159,-6.6508,-6.6508,-6.6508,-6.6508,0.0,0.0,0.0,0.0,0.0,0.0,0.0,0.0,0.0,0.0,0.0,0.0,0.0,0.0,0.0,0.0,0.0,-6.1306,-6.1306,-6.1306,-6.1299,-6.1322,-6.1322,-6.1391,0.0,-6.2535,-6.2785,-6.3361,-6.4996,-6.537,-6.5649,-6.6414,0.0,0.0,0.0,0.0,0.0,0.0,0.0,0.0,0.0,0.0,0.0,0.0,0.0,0.0,0.0,0.0,-7.751,-7.8369,-7.8447,-7.852,-7.8585,-8.0185,-8.1044,-8.1083,-8.1903,-8.2293,-8.2293,-8.2293,0.0,0.0,0.0,0.0,0.0,-8.2293,-8.2293,-8.2293,-8.2293,-8.2293,-8.2293,-8.2293,-8.2293,-8.2293,0.0,0.0,0.0,0.0,0.0,0.0,0.0,0.0,0.0,0.0,-6.3431,-6.3978,-6.3978,-6.4172,-6.4559,0.0,0.0,0.0,0.0,0.0,0.0,0.0,0.0,0.0,-6.6225,-6.6219,-6.6214,-6.6209,-6.6207,-6.6169,-6.6108,-6.6046,-6.5984,-6.5899,-6.5899,-6.6033,-6.6198,-6.6392,-6.6508,-6.6508,-6.6508,-6.6508,0.0,0.0,0.0,0.0,-6.6508,-6.6508,0.0,0.0,0.0,0.0,0.0,0.0,0.0,0.0,-6.1924,-6.1412,-6.1391,0.0,-6.1391,-6.1391,-6.1398,-6.1366,0.0,-6.1917,-6.2471,-6.2712,-6.3784,-6.4852,-6.534,-6.6012,-6.6523,0.0,0.0,0.0,0.0,0.0,0.0,0.0,0.0,0.0,0.0,0.0,0.0,0.0,0.0,0.0,0.0,0.0,-7.7497,-7.8356,-7.9059,-7.972,-8.0381,-8.081,-8.1317,-8.1981,-8.2215,-8.2293,-8.2293,-8.2293,0.0,0.0,0.0,0.0,-8.2293,-8.2293,-8.2293,-8.2293,-8.2293,-8.2293,-8.2293,-8.2293,-8.2293,-8.2293,0.0,0.0,0.0,0.0,0.0,0.0,0.0,0.0,0.0,0.0,-6.4364,-6.4911,-6.4911,-6.522,-6.5645,0.0,0.0,0.0,0.0,0.0,0.0,0.0,0.0,-6.68,-6.6805,-6.68,-6.6795,-6.6795,-6.6758,-6.6742,-6.6717,-6.6595,-6.6549,-6.6508,-6.6508,-6.6508,-6.6508,-6.6508,-6.6508,-6.6508,-6.6508,0.0,0.0,0.0,0.0,0.0,-6.6508,-6.6508,0.0,-6.6508,-6.6198,-6.5732,0.0,0.0,0.0,0.0,-6.2374,-6.1948,-6.1554,-6.1439,-6.1412,-6.1412,-6.1428,-6.1433,-6.1433,-6.2102,-6.2873,-6.3344,-6.4489,-6.5526,-6.6012,-6.6478,0.0,0.0,-6.6859,0.0,0.0,0.0,0.0,0.0,0.0,0.0,0.0,0.0,0.0,0.0,0.0,0.0,0.0,0.0,-7.8116,-7.8975,-7.9834,-8.0537,-8.1005,-8.1396,-8.1825,-8.2293,-8.2293,-8.2293,-8.2293,-8.2293,0.0,0.0,0.0,0.0,-8.2293,-8.2293,-8.2293,-8.2293,-8.2293,-8.2293,-8.2293,-8.2293,-8.2293,-8.2293,0.0,0.0,0.0,0.0,0.0,0.0,0.0,0.0,0.0,0.0,0.0,0.0,0.0,0.0,0.0,0.0,0.0,0.0,0.0,0.0,0.0,0.0,-6.6795,-6.6795,-6.6795,-6.6795,-6.6795,-6.6795,-6.6714,-6.6717,-6.6714,-6.6567,-6.6508,-6.6508,-6.6508,-6.6508,-6.6508,-6.6508,-6.6508,-6.6508,-6.6508,0.0,0.0,0.0,0.0,0.0,0.0,0.0,0.0,-6.65,-6.6507,-6.639,-6.5673,0.0,0.0,0.0,0.0,0.0,-6.2113,-6.1868,-6.1758,-6.148,-6.1562,-6.1708,-6.1708,-6.2467,-6.3416,-6.4218,-6.5078,-6.5935,-6.6651,-6.6807,0.0,0.0,0.0,0.0,0.0,0.0,0.0,0.0,0.0,0.0,0.0,0.0,0.0,0.0,0.0,0.0,0.0,0.0,0.0,-7.9873,-8.0615,-8.1044,-8.12,-8.1942,-8.2293,-8.2293,-8.2293,-8.2293,-8.2293,-8.2293,-8.2293,0.0,0.0,0.0,-8.2293,-8.2293,-8.2293,-8.2293,-8.2293,-8.2293,-8.2293,-8.2293,-8.2293,-8.2293,0.0,0.0,0.0,0.0,0.0,0.0,0.0,0.0,0.0,0.0,0.0,0.0,0.0,0.0,0.0,0.0,0.0,0.0,0.0,0.0,0.0,-6.6795,-6.6795,-6.6795,-6.6795,-6.6795,-6.6795,-6.6795,-6.6714,-6.6717,-6.6714,-6.6567,-6.6508,-6.6508,-6.6508,-6.6508,-6.6508,-6.6508,-6.6508,-6.6508,-6.6508,0.0,0.0,0.0,0.0,0.0,0.0,0.0,0.0,-6.6573,-6.6569,-6.6585,-6.6475,0.0,0.0,0.0,0.0,0.0,-6.3755,-6.3703,-6.3338,-6.1852,-6.2056,-6.2608,-6.2608,-6.3865,-6.5054,-6.5273,-6.5976,-6.6639,-6.6776,-6.6811,-6.6811,0.0,0.0,0.0,0.0,0.0,0.0,0.0,0.0,0.0,0.0,0.0,0.0,0.0,0.0,0.0,0.0,0.0,0.0,-8.0732,-8.0927,-8.1356,-8.2098,-8.2215,-8.2293,-8.2293,-8.2293,-8.2293,-8.2293,-8.2293,-8.2293,0.0,0.0,-8.2293,-8.2293,-8.2293,-8.2293,-8.2293,-8.2293,-8.2293,-8.2293,-8.2293,-8.2293,-8.2293,0.0,0.0,0.0,0.0,0.0,0.0,0.0,0.0,0.0,0.0,0.0,0.0,0.0,0.0,0.0,0.0,0.0,0.0,0.0,0.0,-6.6795,-6.6795,-6.6795,-6.6795,-6.6795,-6.6795,-6.6795,-6.6795,-6.6714,-6.6717,-6.6714,-6.6567,-6.6508,-6.6508,-6.6555,-6.6549,-6.6555,-6.6585,-6.6574,-6.6549,0.0,0.0,0.0,0.0,0.0,0.0,0.0,0.0,0.0,0.0,-6.6631,-6.6677,-6.667,0.0,0.0,0.0,0.0,0.0,-6.4335,-6.4218,-6.4023,-6.3203,-6.328,-6.3548,-6.3548,-6.4569,-6.5506,-6.5537,-6.6238,-6.6782,-6.6807,0.0,-6.693,-6.7443,0.0,0.0,0.0,0.0,0.0,0.0,0.0,0.0,0.0,0.0,0.0,0.0,0.0,0.0,0.0,0.0,0.0,0.0,-8.1474,-8.1903,-8.2293,-8.2293,-8.2293,-8.2293,-8.2293,-8.2293,-8.2293,-8.2293,-8.2293,-8.2293,0.0,-8.2293,-8.2293,-8.2293,-8.2293,-8.2293,-8.2293,-8.2293,-8.2293,-8.2293,-8.2293,-8.2293,0.0,0.0,0.0,0.0,0.0,0.0,0.0,0.0,0.0,0.0,0.0,0.0,0.0,0.0,0.0,0.0,0.0,0.0,0.0,-6.6795,-6.6795,-6.6795,-6.6795,-6.6795,-6.6795,-6.6795,-6.6795,-6.6795,-6.6714,-6.6664,-6.667,-6.6567,-6.6521,-6.6528,-6.6585,-6.6629,-6.6633,-6.6697,-6.6652,-6.6629,0.0,0.0,0.0,0.0,0.0,0.0,0.0,0.0,0.0,0.0,0.0,0.0,0.0,0.0,0.0,-6.6014,-6.5845,-6.5741,-6.5077,-6.4885,-6.4885,-6.4885,-6.4711,-6.4528,-6.4528,-6.5217,-6.5897,-6.5897,-6.6366,-6.6798,0.0,-6.6807,0.0,0.0,0.0,0.0,0.0,0.0,0.0,0.0,0.0,0.0,0.0,0.0,0.0,0.0,0.0,0.0,0.0,0.0,0.0,0.0,-8.1942,-8.2293,-8.2293,-8.2293,-8.2293,-8.2293,-8.2293,-8.2293,-8.2293,-8.2293,-8.2293,-8.2293,-8.2293,-8.2293,-8.2293,-8.2293,-8.2293,-8.2293,-8.2293,-8.2293,-8.2293,-8.2293,-8.2293,-8.2293,0.0,0.0,0.0,0.0,0.0,0.0,0.0,0.0,0.0,0.0,0.0,0.0,0.0,0.0,0.0,0.0,0.0,0.0,0.0,-6.6795,-6.6795,-6.6795,-6.6795,-6.6795,-6.6795,-6.6795,-6.6795,-6.6795,-6.6714,-6.665,-6.6507,-6.6573,-6.6579,-6.6585,-6.6642,-6.6673,-6.6673,-6.6717,-6.6714,-6.6673,-6.6673,0.0,0.0,0.0,0.0,0.0,0.0,0.0,0.0,0.0,0.0,0.0,0.0,0.0,-6.6802,-6.6724,-6.6722,-6.6717,-6.6639,-6.66,-6.66,-6.66,-6.6056,-6.5512,-6.5512,-6.6134,-6.6717,-6.6717,-6.6756,-6.68,-6.6809,-6.6811,0.0,0.0,0.0,0.0,0.0,0.0,0.0,0.0,0.0,0.0,0.0,0.0,0.0,0.0,0.0,0.0,0.0,0.0,0.0,0.0,0.0,-8.2293,-8.2293,-8.2293,-8.2293,-8.2293,-8.2293,-8.2293,-8.2293,-8.2293,-8.2293,-8.2293,-8.2293,-8.2293,-8.2293,-8.2293,-8.2293,-8.2293,-8.2293,-8.2293,-8.2293,-8.2293,-8.2293,-8.2293,0.0,0.0,0.0,0.0,0.0,0.0,0.0,0.0,0.0,0.0,0.0,0.0,0.0,0.0,0.0,0.0,0.0,0.0,0.0,-6.6795,-6.6795,-6.6795,-6.6795,-6.6795,-6.6795,-6.6795,-6.6795,-6.6795,-6.6757,-6.6673,-6.6567,-6.6642,-6.6642,-6.6684,-6.6738,-6.6752,-6.6753,-6.6757,-6.6758,-6.6752,-6.6752,-6.6742,0.0,0.0,0.0,0.0,0.0,0.0,0.0,0.0,-6.6781,-6.6818,-6.6802,-6.6795,-6.6795,-6.6795,-6.6795,-6.6795,-6.6795,-6.6795,-6.6795,-6.6795,-6.6561,-6.6366,-6.6366,-6.6561,-6.6795,-6.6795,-6.6795,-6.6954,-6.7503,0.0,0.0,0.0,0.0,0.0,0.0,0.0,0.0,0.0,0.0,0.0,0.0,0.0,0.0,0.0,0.0,0.0,0.0,0.0,0.0,0.0,0.0,-8.2293,-8.2293,-8.2293,-8.2293,-8.2293,-8.2293,-8.2293,-8.2293,-8.2293,-8.2293,-8.2293,-8.2293,-8.2293,-8.2293,-8.2293,-8.2293,-8.2293,-8.2293,-8.2293,-8.2293,-8.2293,-8.2293,-8.2293,0.0,0.0,0.0,0.0,0.0,0.0,0.0,0.0,0.0,0.0,0.0,0.0,0.0,0.0,0.0,0.0,0.0,0.0,-6.6795,-6.6795,-6.6795,-6.6795,-6.6795,-6.6795,-6.6795,-6.6795,-6.6795,-6.6795,-6.6793,-6.6743,-6.6642,-6.6717,-6.6738,-6.674,-6.6797,-6.6793,-6.6792,-6.6811,-6.6815,-6.6793,-6.6793,-6.6758,0.0,0.0,0.0,0.0,0.0,0.0,0.0,0.0,-6.6795,-6.6795,-6.6795,-6.6795,-6.6795,-6.6795,-6.6795,-6.6795,-6.6795,-6.6795,-6.6795,-6.6795,-6.6795,-6.6795,-6.6795,-6.6795,-6.6795,-6.6795,-6.7029,-6.7381,-6.8005,0.0,0.0,0.0,0.0,0.0,0.0,0.0,0.0,0.0,0.0,0.0,0.0,0.0,0.0,0.0,0.0,0.0,0.0,0.0,0.0,0.0,0.0,-8.2293,-8.2293,-8.2293,-8.2293,-8.2293,-8.2293,-8.2293,-8.2293,-8.2293,-8.2293,-8.2293,-8.2293,-8.2293,-8.2293,-8.2293,-8.2293,-8.2293,-8.2293,-8.2293,-8.2293,-8.2293,-8.2293,-8.2293,0.0,0.0,0.0,0.0,0.0,0.0,0.0,0.0,-6.6795,-6.6795,-6.6795,0.0,0.0,0.0,0.0,0.0,0.0,0.0,-6.6795,-6.6795,-6.6795,-6.6795,-6.6795,-6.6795,-6.6795,-6.6795,-6.6798,-6.6798,-6.6793,-6.6753,-6.668,-6.6754,-6.6797,-6.6797,-6.6817,-6.6795,-6.6795,-6.6795,-6.6795,-6.6795,-6.6795,-6.6795,-6.6795,0.0,0.0,0.0,0.0,0.0,0.0,0.0,-6.6795,-6.6795,-6.6795,-6.6795,-6.6795,-6.6795,-6.6795,-6.6795,-6.6795,-6.6795,-6.6795,-6.6795,-6.6795,-6.6795,-6.6795,-6.6795,-6.6795,-6.6795,-6.7498,-6.8122,-6.8122,-6.8825,0.0,0.0,0.0,0.0,0.0,0.0,0.0,0.0,0.0,0.0,0.0,0.0,0.0,0.0,0.0,0.0,0.0,0.0,0.0,0.0,0.0,0.0,-8.2293,-8.2293,-8.2293,-8.2293,-8.2293,-8.2293,-8.2293,-8.2293,-8.2293,-8.2293,-8.2293,-8.2293,-8.2293,-8.2293,-8.2293,-8.2293,-8.2293,-8.2293,-8.2293,-8.2293,-8.2293,-8.2293,0.0,0.0,0.0,0.0,0.0,0.0,0.0,0.0,-6.6795,-6.6795,-6.6795,0.0,0.0,0.0,0.0,0.0,0.0,0.0,-6.6795,-6.6795,-6.6795,-6.6795,-6.6795,-6.6795,-6.6795,-6.6795,-6.6813,-6.6793,-6.6784,-6.6792,-6.6754,-6.6791,-6.6817,-6.6817,-6.6802,-6.6795,-6.6795,-6.6795,-6.6795,-6.6795,-6.6795,-6.6795,-6.6795,0.0,0.0,0.0,0.0,0.0,0.0,0.0,0.0,0.0,-6.6795,-6.6795,-6.6795,-6.6795,-6.6795,-6.6795,-6.6795,-6.6795,-6.6795,-6.6795,-6.6795,-6.6795,-6.6795,-6.6795,-6.6951,-6.7576,-6.7927,-6.8474,-6.9684,-7.0621,0.0,0.0,0.0,0.0,0.0,0.0,0.0,0.0,0.0,0.0,0.0,0.0,0.0,0.0,0.0,0.0,0.0,0.0,0.0,0.0,0.0,0.0,-8.2293,-8.2293,-8.2293,-8.2293,-8.2293,-8.2293,-8.2293,-8.2293,-8.2293,-8.2293,-8.2293,-8.2293,-8.2293,-8.2293,-8.2293,-8.2293,-8.2293,-8.2293,-8.2293,-8.2293,-8.2293,-8.2293,0.0,0.0,0.0,0.0,0.0,0.0,0.0,0.0,-6.6795,-6.6795,-6.6795,-6.6795,0.0,0.0,0.0,0.0,0.0,0.0,-6.6795,-6.6795,-6.6795,-6.6795,-6.6795,-6.6795,-6.6795,-6.6795,-6.6811,-6.679,-6.6811,-6.6811,-6.679,-6.6809,-6.6795,-6.6795,-6.6795,-6.6795,-6.6795,-6.6795,-6.6795,-6.6795,-6.6795,-6.6795,-6.6795,0.0,0.0,0.0,0.0,0.0,0.0,0.0,0.0,0.0,-6.6795,-6.6795,-6.6795,-6.6795,-6.6795,-6.6795,-6.6795,-6.6795,-6.6795,-6.6795,-6.6795,-6.6873,-6.7224,-6.7303,-6.7459,-6.8005,-6.8942,-6.9957,-7.1011,-7.2182,0.0,0.0,0.0,0.0,0.0,0.0,0.0,0.0,0.0,0.0,0.0,0.0,0.0,0.0,0.0,0.0,0.0,0.0,0.0,0.0,0.0,0.0,-8.2293,-8.2293,-8.2293,-8.2293,-8.2293,-8.2293,-8.2293,-8.2293,-8.2293,-8.2293,-8.2293,-8.2293,-8.2293,-8.2293,-8.2293,-8.2293,-8.2293,-8.2293,-8.2293,-8.2293,-8.2293,-8.2293,0.0,0.0,-6.6795,-6.6795,0.0,0.0,0.0,0.0,-6.6795,-6.6795,-6.6795,-6.6795,0.0,0.0,0.0,0.0,0.0,0.0,0.0,-6.6795,-6.6795,-6.6795,-6.6795,-6.6795,-6.6795,-6.6795,-6.6795,-6.6795,-6.6795,-6.6795,-6.6795,-6.6795,-6.6795,-6.6795,-6.6795,-6.6795,-6.6795,-6.6795,-6.6795,-6.6795,-6.6795,-6.6795,-6.6795,-6.6795,0.0,0.0,0.0,0.0,0.0,0.0,0.0,0.0,-6.6795,-6.6795,-6.6795,-6.6795,-6.6795,-6.6795,-6.6795,-6.6795,-6.6795,-6.6795,-6.6873,-6.7146,-6.8005,-6.8357,-6.8474,-6.8474,0.0,-7.2065,-7.2182,0.0,0.0,0.0,0.0,0.0,0.0,0.0,0.0,0.0,0.0,0.0,0.0,0.0,0.0,0.0,0.0,0.0,0.0,0.0,0.0,0.0,0.0,0.0,-8.2293,-8.2293,-8.2293,0.0,-8.2293,-8.2293,-8.2293,-8.2293,-8.2293,-8.2293,-8.2293,-8.2293,-8.2293,-8.2293,-8.2293,-8.2293,-8.2293,-8.2293,-8.2293,-8.2293,-8.2293,-8.2293,0.0,0.0,-6.6795,-6.6795,0.0,0.0,0.0,0.0,0.0,-6.6795,-6.6795,0.0,0.0,0.0,0.0,0.0,0.0,0.0,0.0,-6.6795,-6.6795,-6.6795,-6.6795,-6.6795,-6.6795,-6.6795,-6.6795,-6.6795,-6.6795,-6.6795,-6.6795,-6.6795,-6.6795,-6.6795,-6.6795,-6.6795,-6.6795,-6.6795,-6.6795,-6.6795,-6.6795,-6.6795,-6.6795,-6.6795,-6.6795,0.0,0.0,0.0,0.0,0.0,0.0,0.0,-6.6795,-6.6795,-6.6795,-6.6795,-6.6795,-6.6795,-6.6795,-6.6795,-6.6795,-6.6795,-6.7303,-6.8044,-6.8903,-7.0191,-7.1167,-7.1167,-7.1597,-7.2417,0.0,0.0,0.0,0.0,0.0,0.0,0.0,0.0,0.0,0.0,0.0,0.0,0.0,0.0,0.0,0.0,0.0,0.0,0.0,0.0,0.0,0.0,0.0,-8.2293,-8.2293,-8.2293,-8.2293,0.0,-8.2293,-8.2293,-8.2293,-8.2293,-8.2293,-8.2293,-8.2293,-8.2293,-8.2293,-8.2293,-8.2293,-8.2293,-8.2293,-8.2293,-8.2293,-8.2293,-8.2293,-8.2293,0.0,0.0,0.0,0.0,0.0,0.0,0.0,0.0,0.0,0.0,0.0,0.0,0.0,0.0,0.0,0.0,-6.6795,0.0,0.0,0.0,-6.6795,-6.6795,-6.6795,-6.6795,-6.6795,-6.6795,-6.6795,-6.6795,-6.6795,-6.6795,-6.6795,-6.6795,-6.6795,-6.6795,-6.6795,-6.6795,-6.6795,-6.6795,-6.6795,-6.6795,-6.6795,-6.6795,-6.6795,-6.6795,-6.6795,-6.6795,-6.6795,0.0,0.0,0.0,0.0,0.0,0.0,0.0,-6.6795,-6.6795,-6.6795,-6.6795,-6.6795,-6.6795,-6.6795,-6.6795,-6.7459,-6.8435,-6.9723,-7.105,-7.2339,-7.3588,-7.3822,0.0,0.0,0.0,0.0,0.0,0.0,0.0,0.0,0.0,0.0,0.0,0.0,0.0,0.0,0.0,0.0,0.0,0.0,0.0,0.0,0.0,0.0,0.0,-8.2293,-8.2293,-8.2293,-8.2293,-8.2293,-8.2293,-8.2293,-8.2293,-8.2293,-8.2293,-8.2293,-8.2293,-8.2293,-8.2293,-8.2293,-8.2293,-8.2293,-8.2293,-8.2293,-8.2293,-8.2293,-8.2293,-8.2293,-8.2293,0.0,0.0,0.0,0.0,0.0,0.0,0.0,0.0,0.0,0.0,0.0,0.0,0.0,0.0,-6.6795,0.0,0.0,0.0,0.0,0.0,0.0,-6.6795,-6.6795,-6.6795,-6.6795,-6.6795,-6.6795,-6.6795,-6.6795,-6.6795,-6.6795,-6.6795,-6.6795,-6.6795,-6.6795,-6.6795,-6.6795,-6.6795,-6.6795,-6.6795,-6.6795,-6.6795,-6.6795,-6.6795,-6.6795,-6.6795,-6.6795,-6.6795,-6.6795,-6.6795,0.0,0.0,0.0,0.0,-6.6795,-6.6795,-6.6795,-6.6795,-6.6795,-6.6795,-6.6795,-6.6795,-6.7693,-6.8981,-7.0543,-7.1831,-7.3315,-7.554,0.0,0.0,0.0,0.0,0.0,0.0,0.0,0.0,0.0,0.0,0.0,0.0,0.0,0.0,0.0,0.0,0.0,0.0,0.0,0.0,0.0,0.0,-8.2293,-8.2293,-8.2293,-8.2293,-8.2293,-8.2293,-8.2293,-8.2293,-8.2293,-8.2293,-8.2293,-8.2293,-8.2293,-8.2293,-8.2293,-8.2293,-8.2293,-8.2293,-8.2293,-8.2293,-8.2293,-8.2293,-8.2293,-8.2293,-8.2293,-8.2293,0.0,0.0,0.0,0.0,0.0,0.0,0.0,0.0,0.0,0.0,-6.6795,-6.6795,0.0,0.0,0.0,-6.6795,-6.6795,-6.6795,-6.6795,0.0,0.0,-6.6795,-6.6795,-6.6795,-6.6795,-6.6795,-6.6795,-6.6795,-6.6795,-6.6795,-6.6795,-6.6795,-6.6795,-6.6795,-6.6795,-6.6795,-6.6795,-6.6795,-6.6795,-6.6795,-6.6795,-6.6795,-6.6795,-6.6795,-6.6795,-6.6795,-6.6795,-6.6795,-6.6795,-6.6795,-6.6795,0.0,0.0,0.0,-6.6795,-6.6795,-6.6795,-6.6795,-6.6795,-6.6795,-6.6795,-6.6795,-6.8591,-7.0621,0.0,0.0,-7.5618,0.0,0.0,0.0,0.0,0.0,0.0,0.0,0.0,0.0,0.0,0.0,0.0,0.0,0.0,0.0,0.0,0.0,0.0,0.0,0.0,0.0,0.0,-8.2293,-8.2293,-8.2293,-8.2293,-8.2293,-8.2293,-8.2293,-8.2293,-8.2293,-8.2293,-8.2293,-8.2293,-8.2293,-8.2293,-8.2293,-8.2293,-8.2293,-8.2293,-8.2293,-8.2293,-8.2293,-8.2293,-8.2293,-8.2293,-8.2293,-8.2293,-8.2293,0.0,0.0,0.0,0.0,0.0,0.0,0.0,0.0,0.0,0.0,0.0,-6.6795,0.0,0.0,0.0,-6.6795,-6.6795,-6.6795,-6.6795,-6.6795,-6.6795,-6.6795,-6.6795,-6.6795,-6.6795,-6.6795,-6.6795,-6.6795,-6.6795,-6.6795,-6.6795,-6.6795,-6.6795,-6.6795,-6.6795,-6.6795,-6.6795,-6.6795,-6.6795,-6.6795,-6.6795,-6.6795,-6.6795,-6.6795,-6.6795,-6.6795,-6.6795,-6.6795,-6.6795,-6.6795,-6.6795,-6.6795,-6.6795,0.0,0.0,0.0,-6.6795,-6.6795,-6.6795,-6.6795,-6.6795,-6.6795,-6.8786,-7.0933,-7.1792,0.0,-7.6047,0.0,0.0,0.0,0.0,0.0,0.0,0.0,0.0,0.0,0.0,0.0,0.0,0.0,0.0,0.0,0.0,0.0,0.0,0.0,0.0,0.0,-8.2293,-8.2293,-8.2293,-8.2293,-8.2293,-8.2293,-8.2293,-8.2293,-8.2293,-8.2293,-8.2293,-8.2293,-8.2293,-8.2293,-8.2293,-8.2293,-8.2293,-8.2293,-8.2293,-8.2293,-8.2293,-8.2293,-8.2293,-8.2293,-8.2293,-8.2293,-8.2293,-8.2293,0.0,0.0,0.0,0.0,0.0,0.0,0.0,0.0,0.0,0.0,0.0,0.0,0.0,0.0,0.0,0.0,-6.6795,-6.6795,-6.6795,-6.6795,-6.6795,-6.6795,-6.6795,-6.6795,-6.6795,-6.6795,-6.6795,-6.6795,-6.6795,-6.6795,-6.6795,-6.6795,-6.6795,-6.6795,-6.6795,-6.6795,-6.6795,-6.6795,-6.6795,-6.6795,-6.6795,-6.6795,-6.6795,-6.6795,-6.6795,-6.6795,-6.6795,-6.6795,-6.6795,-6.6795,-6.6795,-6.6795,-6.6795,-6.6795,0.0,0.0,0.0,-6.6795,-6.6795,-6.6795,-6.6795,-6.6795,-6.8942,-7.1206,0.0,0.0,0.0,0.0,0.0,0.0,0.0,0.0,0.0,0.0,0.0,0.0,0.0,0.0,0.0,0.0,0.0,0.0,0.0,0.0,0.0,0.0,0.0,0.0,-8.2293,-8.2293,-8.2293,-8.2293,-8.2293,-8.2293,-8.2293,-8.2293,-8.2293,-8.2293,-8.2293,-8.2293,-8.2293,-8.2293,-8.2293,-8.2293,-8.2293,-8.2293,-8.2293,-8.2293,-8.2293,-8.2293,-8.2293,-8.2293,-8.2293,-8.2293,-8.2293,-8.2293,0.0,0.0,0.0,0.0,0.0,0.0,0.0,0.0,0.0,0.0,0.0,0.0,-6.6795,-6.6795,-6.6795,-6.6795,-6.6795,-6.6795,-6.6795,-6.6795,-6.6795,-6.6795,-6.6795,0.0,-6.6795,-6.6795,-6.6795,-6.6795,-6.6795,-6.6795,-6.6795,-6.6795,-6.6795,-6.6795,-6.6795,-6.6795,-6.6795,-6.6795,-6.6795,-6.6795,-6.6795,-6.6795,-6.6795,-6.6795,-6.6795,-6.6795,-6.6795,-6.6795,-6.6795,-6.6795,-6.6795,-6.6795,-6.6795,-6.6795,-6.6795,0.0,0.0,0.0,-6.6795,-6.6795,0.0,-6.6795,-6.9372,-7.1948,0.0,0.0,0.0,0.0,0.0,0.0,0.0,0.0,0.0,0.0,0.0,0.0,0.0,0.0,0.0,0.0,0.0,0.0,0.0,0.0,0.0,0.0,0.0,0.0,-8.2293,-8.2293,-8.2293,-8.2293,-8.2293,-8.2293,-8.2293,-8.2293,-8.2293,-8.2293,-8.2293,-8.2293,-8.2293,-8.2293,-8.2293,-8.2293,-8.2293,-8.2293,-8.2293,-8.2293,-8.2293,-8.2293,-8.2293,-8.2293,-8.2293,-8.2293,-8.2293,-8.2293,0.0,0.0,0.0,0.0,0.0,0.0,0.0,0.0,0.0,0.0,0.0,0.0,0.0,-6.6795,-6.6795,-6.6795,-6.7303,-6.7888,-6.8435,-6.7966,-6.7615,-6.7615,-6.7107,-6.6795,-6.6795,-6.6795,-6.6795,-6.6795,-6.6795,-6.6795,-6.6795,-6.6795,-6.6795,-6.6795,-6.6795,-6.6795,-6.6795,-6.6795,-6.6795,-6.6795,-6.6795,-6.6795,-6.6795,-6.6795,-6.6795,-6.6795,-6.6795,-6.6795,-6.6795,-6.6795,0.0,0.0,-6.6795,-6.6795,-6.6795,-6.6795,-6.6795,-6.6795,-6.6795,-6.6795,0.0,-6.6795,-6.9411,-7.1987,-7.1987,0.0,0.0,0.0,0.0,0.0,0.0,0.0,0.0,0.0,0.0,0.0,0.0,0.0,0.0,0.0,0.0,0.0,0.0,0.0,0.0,0.0,0.0,0.0,-8.2293,-8.2293,-8.2293,-8.2293,-8.2293,-8.2293,-8.2293,-8.2293,-8.2293,-8.2293,-8.2293,-8.2293,-8.2293,-8.2293,-8.2293,-8.2293,-8.2293,-8.2293,-8.2293,-8.2293,-8.2293,-8.2293,-8.2293,-8.2293,-8.2293,-8.2293,-8.2293,-8.2293,0.0,0.0,0.0,0.0,0.0,-6.6795,-6.6795,-6.6795,-6.6795,-6.6795,0.0,0.0,0.0,0.0,-6.7342,-6.7654,-6.82,-6.8786,-6.9372,-6.8864,-6.8552,-6.8552,-6.7966,-6.7654,-6.7654,-6.7381,-6.7224,-6.7224,-6.6951,-6.6795,-6.6795,-6.6795,-6.6795,-6.6795,-6.6795,-6.6795,-6.6795,-6.6795,-6.6795,-6.6795,-6.6795,-6.6795,-6.6795,-6.6795,-6.6795,-6.6795,-6.6795,-6.6795,-6.6795,0.0,0.0,0.0,-6.7146,-6.7224,-6.7185,-6.6873,-6.6795,-6.6795,-6.6795,-6.6795,-6.6873,0.0,-6.9645,-7.2065,-7.2378,0.0,0.0,0.0,0.0,0.0,0.0,0.0,0.0,0.0,0.0,0.0,0.0,0.0,0.0,0.0,0.0,0.0,0.0,0.0,0.0,0.0,0.0,0.0,-8.2293,-8.2293,-8.2293,-8.2293,-8.2293,-8.2293,-8.2293,-8.2293,-8.2293,-8.2293,-8.2293,-8.2293,-8.2293,-8.2293,-8.2293,-8.2293,-8.2293,-8.2293,-8.2293,-8.2293,-8.2293,-8.2293,-8.2293,-8.2293,-8.2293,-8.2293,-8.2293,-8.2293,0.0,0.0,-6.6795,-6.6795,-6.6795,-6.6795,-6.6795,-6.6795,-6.6795,-6.6795,0.0,0.0,0.0,0.0,0.0,-6.9372,-6.945,-6.945,-6.9489,-6.945,-6.945,-6.945,-6.9411,-6.9411,-6.9411,-6.8552,-6.8122,-6.8122,-6.7303,-6.6873,-6.6834,-6.6834,-6.6834,-6.6795,-6.6795,-6.6795,-6.6834,-6.6795,-6.6795,-6.6795,-6.6795,-6.6834,-6.6834,-6.6834,-6.6834,-6.6873,-6.6873,-6.6873,0.0,-6.6873,0.0,0.0,-6.7888,-6.8122,-6.7966,-6.7107,-6.6873,-6.6873,0.0,0.0,0.0,-6.7966,0.0,0.0,-7.3158,0.0,0.0,0.0,0.0,0.0,0.0,0.0,0.0,0.0,0.0,0.0,0.0,0.0,0.0,0.0,0.0,0.0,0.0,0.0,0.0,0.0,0.0,-8.2293,-8.2293,-8.2293,-8.2293,-8.2293,-8.2293,-8.2293,-8.2293,-8.2293,-8.2293,-8.2293,-8.2293,-8.2293,-8.2293,-8.2293,-8.2293,-8.2293,-8.2293,-8.2293,-8.2293,-8.2293,-8.2293,-8.2293,-8.2293,-8.2293,-8.2293,-8.2293,-8.2293,-8.2293,0.0,-6.6795,-6.6795,-6.6795,-6.6795,-6.6795,-6.6795,-6.6795,-6.6795,0.0,0.0,0.0,-6.7732,-6.8513,-6.9372,-7.027,-7.0348,-7.0621,-7.1245,-7.0699,-7.0348,-7.0348,-6.9723,-6.9411,-6.9411,-6.9176,-6.902,-6.902,-6.8786,-6.8357,-6.7732,-6.7732,-6.7381,-6.6795,-6.6795,-6.7146,-6.7693,-6.7068,-6.6795,-6.6795,-6.6795,-6.7185,-6.7732,-6.7732,-6.8122,0.0,0.0,-6.8669,-6.8669,0.0,-6.8669,-6.8708,0.0,-6.902,-6.8981,-6.8747,-6.8669,-6.8669,-6.8669,0.0,0.0,0.0,0.0,0.0,-7.3978,-7.5696,0.0,0.0,0.0,0.0,0.0,0.0,0.0,0.0,0.0,0.0,0.0,0.0,0.0,0.0,0.0,0.0,0.0,0.0,0.0,0.0,-8.2293,-8.2293,-8.2293,-8.2293,-8.2293,-8.2293,-8.2293,-8.2293,-8.2293,-8.2293,-8.2293,-8.2293,-8.2293,-8.2293,-8.2293,-8.2293,-8.2293,-8.2293,-8.2293,-8.2293,-8.2293,-8.2293,-8.2293,-8.2293,-8.2293,-8.2293,-8.2293,-8.2293,-8.2293,-8.2293,-6.6795,-6.6795,-6.6795,-6.6795,-6.6795,-6.6795,-6.6795,-6.6795,-6.6912,0.0,0.0,0.0,-6.9098,-6.9645,-7.0309,-7.1167,-7.1245,-7.1441,-7.1987,-7.1519,-7.1245,-7.1245,-7.0777,-7.0465,-7.0465,-7.0113,-6.9957,-6.9957,-6.9567,-6.9137,-6.863,-6.863,-6.8357,-6.7888,-6.7888,-6.8161,-6.8591,-6.8083,-6.7888,-6.7888,-6.7888,-6.82,-6.863,-6.863,-6.8942,0.0,0.0,0.0,-6.9411,-6.9411,-6.9645,0.0,0.0,-6.9957,-6.9879,-6.9528,-6.9411,-6.9411,-6.9411,-6.9411,-6.9606,-7.0465,0.0,0.0,-7.433,-7.5852,-7.7101,0.0,0.0,0.0,0.0,0.0,0.0,0.0,0.0,0.0,0.0,0.0,0.0,0.0,0.0,0.0,0.0,0.0,0.0,0.0,-8.2293,-8.2293,-8.2293,-8.2293,-8.2293,-8.2293,-8.2293,-8.2293,-8.2293,-8.2293,-8.2293,-8.2293,-8.2293,-8.2293,-8.2293,-8.2293,-8.2293,-8.2293,-8.2293,-8.2293,-8.2293,-8.2293,-8.2293,-8.2293,-8.2293,-8.2293,-8.2293,-8.2293,-8.2293,-8.2293,0.0,-6.6795,-6.6795,-6.6795,-6.6795,-6.6834,-6.6912,-6.6951,-6.7264,0.0,-6.8318,-6.902,-7.066,-7.0855,-7.1167,-7.1948,-7.1987,-7.1987,-7.1987,-7.1987,-7.1987,-7.1987,-7.1987,-7.1987,-7.1987,-7.1245,-7.0855,-7.0855,-7.0074,-6.9645,-6.9528,-6.9528,-6.9489,-6.9411,-6.9411,-6.945,-6.9528,-6.9528,-6.9606,-6.9684,-6.9489,-6.945,0.0,0.0,-6.9606,-6.9684,-6.9684,-6.9684,-6.9684,-6.9684,-7.027,0.0,0.0,0.0,0.0,0.0,-6.9762,-6.9801,-6.9723,-6.9684,-6.9918,-7.0777,-7.2143,0.0,-7.4447,-7.5852,-7.6984,0.0,0.0,0.0,0.0,0.0,0.0,0.0,0.0,0.0,0.0,0.0,0.0,0.0,0.0,0.0,0.0,0.0,-8.2215,-8.2293,-8.2293,-8.2293,-8.2293,-8.2293,-8.2293,-8.2293,-8.2293,-8.2293,-8.2293,-8.2293,-8.2293,-8.2293,-8.2293,-8.2293,-8.2293,-8.2293,-8.2293,-8.2293,-8.2293,-8.2293,-8.2293,-8.2293,-8.2293,-8.2293,-8.2293,-8.2293,-8.2293,-8.2293,-8.2293,-8.2293,-6.6795,-6.6795,-6.6795,-6.6795,-6.6795,-6.7029,-6.7732,-6.7849,-6.8161,-6.902,-6.9762,-7.0582,-7.1636,-7.1753,-7.1792,-7.1987,-7.1987,-7.1987,-7.1987,-7.1987,-7.1987,-7.1987,-7.1987,-7.1987,-7.1987,-7.1831,-7.1753,-7.1753,-7.1597,-7.1128,-7.0465,-7.0465,-7.0074,-6.9411,-6.9411,-6.9801,-7.0465,-7.0465,-7.0855,-7.1363,-6.9957,-6.9801,-7.0465,-7.0465,-7.0894,-7.148,-7.148,-7.148,-7.148,-7.148,-7.2065,-7.269,0.0,0.0,0.0,-7.1948,0.0,0.0,-7.1675,-7.148,0.0,0.0,0.0,0.0,-7.5188,-7.5813,-7.6242,0.0,0.0,0.0,0.0,0.0,0.0,0.0,0.0,0.0,0.0,0.0,0.0,0.0,0.0,0.0,0.0,0.0,-8.1552,-8.2254,-8.2293,-8.2293,-8.2293,-8.2293,-8.2293,-8.2293,-8.2293,-8.2293,-8.2293,-8.2293,-8.2293,-8.2293,-8.2293,-8.2293,-8.2293,-8.2293,-8.2293,-8.2293,-8.2293,-8.2293,-8.2293,-8.2293,-8.2293,-8.2293,-8.2293,-8.2293,-8.2293,-8.2293,-8.2293,-8.2293,-6.6795,-6.6795,-6.6951,-6.7381,-6.7459,-6.7732,-6.863,-6.8747,-6.9059,-6.9918,-7.0816,-7.1519,-7.1948,-7.1987,-7.1987,-7.1987,-7.1987,-7.1987,-7.1987,-7.1987,-7.1987,-7.1987,-7.1987,-7.1987,-7.1987,-7.1987,-7.1987,-7.1987,-7.1987,-7.1792,-7.1363,-7.1363,-7.1128,-7.0699,-7.0699,-7.0933,-7.1363,-7.1363,-7.1597,-7.1909,-7.105,0.0,-7.1363,-7.1363,-7.1636,-7.1987,-7.1987,-7.1987,-7.2065,-7.2495,-7.2651,0.0,0.0,-7.3549,-7.3744,0.0,-7.2963,-7.3119,0.0,0.0,0.0,-7.2534,0.0,0.0,0.0,-7.5501,-7.6047,0.0,0.0,0.0,0.0,0.0,0.0,0.0,0.0,0.0,0.0,0.0,0.0,0.0,0.0,0.0,0.0,0.0,-8.1356,-8.2215,-8.2293,-8.2293,-8.2293,-8.2293,-8.2293,-8.2293,-8.2293,-8.2293,-8.2293,-8.2293,-8.2293,-8.2293,-8.2293,-8.2293,-8.2293,-8.2293,-8.2293,-8.2293,-8.2293,-8.2293,-8.2293,-8.2293,-8.2293,-8.2293,-8.2293,-8.2293,-8.2293,-8.2293,-8.2293,-8.2293,-6.7068,-6.7185,-6.7537,-6.8239,-6.8357,-6.863,-6.9528,-6.9645,-6.9957,-7.0855,-7.1558,-7.1987,-7.1987,-7.1987,-7.1987,-7.1987,-7.1987,-7.1987,-7.1987,-7.1987,-7.1987,-7.1987,-7.1987,-7.1987,-7.1987,-7.1987,-7.1987,-7.1987,-7.1987,-7.1987,-7.1987,-7.1987,-7.1987,-7.1987,-7.1987,-7.1987,-7.1987,-7.1987,-7.1987,-7.1987,0.0,-7.1987,-7.1987,-7.1987,-7.2104,-7.226,-7.2417,-7.2495,-7.2573,-7.3119,-7.2924,-7.2651,-7.3705,-7.39,0.0,0.0,0.0,0.0,0.0,0.0,0.0,0.0,0.0,-7.351,0.0,0.0,0.0,0.0,0.0,0.0,0.0,0.0,0.0,0.0,0.0,0.0,0.0,0.0,0.0,0.0,0.0,0.0,0.0,0.0,-8.1356,-8.2215,-8.2293,-8.2293,-8.2293,-8.2293,-8.2293,-8.2293,-8.2293,-8.2293,-8.2293,-8.2293,-8.2293,-8.2293,-8.2293,-8.2293,-8.2293,-8.2293,-8.2293,-8.2293,-8.2293,-8.2293,-8.2293,-8.2293,-8.2293,-8.2293,-8.2293,-8.2293,-8.2293,-8.2293,-8.2293,-8.2293,-6.8083,-6.8552,-6.9137,-6.9255,-6.9255,-6.9567,-7.0426,-7.0543,-7.0855,-7.1753,-7.1948,-7.1987,-7.1987,-7.1987,-7.1987,-7.1987,-7.1987,-7.1987,-7.1987,-7.1987,-7.1987,-7.1987,-7.1987,-7.1987,-7.1987,-7.1987,-7.1987,-7.1987,-7.1987,-7.1987,-7.1987,-7.1987,-7.1987,-7.1987,-7.1987,-7.1987,-7.1987,-7.1987,-7.1987,0.0,-7.1987,-7.1987,0.0,-7.1987,-7.2495,-7.3236,-7.3978,-7.4212,-7.4134,0.0,-7.3705,-7.3978,0.0,-7.3783,-7.5227,-7.3744,0.0,0.0,0.0,0.0,0.0,0.0,-7.2651,0.0,0.0,0.0,0.0,0.0,0.0,0.0,0.0,0.0,0.0,0.0,0.0,0.0,0.0,0.0,0.0,0.0,0.0,0.0,0.0,0.0,0.0,-8.2215,-8.2293,-8.2293,-8.2293,-8.2293,-8.2293,-8.2293,-8.2293,-8.2293,-8.2293,-8.2293,-8.2293,-8.2293,-8.2293,-8.2293,-8.2293,-8.2293,-8.2293,-8.2293,-8.2293,-8.2293,-8.2293,-8.2293,-8.2293,-8.2293,-8.2293,-8.2293,-8.2293,-8.2293,-8.2293,-8.2293,-6.902,-6.9137,-6.9567,-7.0074,-7.0152,-7.0465,-7.1324,-7.1441,-7.1597,-7.1948,-7.1987,-7.1987,-7.1987,-7.1987,-7.1987,-7.1987,-7.1987,-7.1987,0.0,0.0,-7.1987,-7.1987,-7.1987,-7.1987,-7.1987,-7.1987,-7.1987,-7.1987,-7.1987,-7.1987,-7.1987,-7.1987,-7.1987,-7.1987,-7.1987,-7.1987,-7.1987,0.0,-7.1987,0.0,0.0,0.0,0.0,-7.2768,-7.3275,-7.4095,-7.4954,-7.5266,-7.5266,0.0,-7.5735,0.0,0.0,0.0,0.0,0.0,0.0,0.0,0.0,0.0,0.0,0.0,0.0,0.0,-7.5071,0.0,-7.6047,0.0,0.0,0.0,0.0,0.0,0.0,0.0,0.0,0.0,0.0,0.0,0.0,0.0,0.0,0.0,0.0,0.0,0.0,0.0,0.0,-8.2293,-8.2293,-8.2293,-8.2293,-8.2293,-8.2293,-8.2293,-8.2293,-8.2293,-8.2293,-8.2293,-8.2293,-8.2293,-8.2293,-8.2293,-8.2293,-8.2293,-8.2293,-8.2293,-8.2293,-8.2293,-8.2293,-8.2293,-8.2293,-8.2293,-8.2293,-8.2293,-8.2293,-8.2293,-7.023,-7.0113,-7.0309,-7.0933,-7.105,-7.1285,-7.1909,-7.1987,-7.1987,-7.1987,-7.1987,-7.1987,-7.1987,-7.1987,-7.1987,-7.1987,-7.1987,-7.1987,0.0,0.0,-7.1987,-7.1987,-7.1987,0.0,-7.1987,-7.1987,-7.1987,-7.1987,-7.1987,-7.1987,-7.1987,-7.1987,-7.1987,-7.1987,-7.1987,-7.1987,-7.1987,0.0,-7.2143,-7.2417,-7.3041,-7.3705,-7.433,-7.433,-7.472,-7.5345,-7.6477,-7.6867,-7.6945,-7.7335,-7.7453,0.0,-7.7921,0.0,0.0,0.0,0.0,0.0,-7.5891,0.0,0.0,0.0,0.0,0.0,0.0,0.0,0.0,0.0,0.0,0.0,0.0,0.0,0.0,0.0,0.0,0.0,0.0,0.0,0.0,0.0,0.0,0.0,0.0,0.0,0.0,0.0,-8.2176,-8.2293,-8.2293,-8.2293,-8.2293,-8.2293,-8.2293,-8.2293,-8.2293,-8.2293,-8.2293,-8.2293,-8.2293,-8.2293,-8.2293,-8.2293,-8.2293,-8.2293,-8.2293,-8.2293,-8.2293,-8.2293,-8.2293,-8.2293,-8.2293,-8.2293,-8.2293,-8.2293,-8.2293,-8.2293,-7.1909,-7.1909,-7.1948,-7.1948,-7.1948,-7.1987,-7.1987,-7.1987,-7.1987,-7.1987,-7.1987,0.0,0.0,0.0,0.0,0.0,0.0,-7.1987,-7.1987,0.0,-7.1987,0.0,0.0,-7.1987,0.0,-7.1987,-7.1987,-7.1987,-7.1987,-7.1987,-7.1987,-7.1987,-7.1987,-7.1987,-7.1987,-7.1987,-7.1987,-7.1987,-7.2495,-7.3275,-7.3275,-7.4798,-7.6984,0.0,-7.6984,-7.7257,-7.8975,0.0,0.0,-7.8624,-7.835,0.0,0.0,0.0,0.0,0.0,0.0,0.0,0.0,0.0,0.0,-7.7023,0.0,0.0,0.0,0.0,-7.7062,0.0,0.0,0.0,0.0,0.0,-7.6555,-7.4876,-7.6008,0.0,0.0,0.0,0.0,0.0,0.0,0.0,0.0,0.0,0.0,-8.0966,-8.1825,-8.2293,-8.2293,-8.2293,-8.2293,-8.2293,-8.2293,-8.2293,-8.2293,-8.2293,-8.2293,-8.2293,-8.2293,-8.2293,-8.2293,-8.2293,-8.2293,-8.2293,-8.2293,-8.2293,-8.2293,-8.2293,-8.2293,-8.2293,-8.2293,-8.2293,-8.2293,-8.2293,-8.2293,-8.2293,-7.1987,-7.1987,-7.1987,-7.1987,-7.1987,-7.1987,-7.1987,-7.1987,-7.1987,0.0,0.0,0.0,0.0,-7.1987,-7.1987,0.0,0.0,-7.1987,-7.1987,-7.1987,0.0,0.0,0.0,-7.1987,0.0,0.0,0.0,-7.1987,-7.1987,-7.1987,-7.1987,-7.1987,-7.1987,-7.1987,-7.1987,-7.2339,0.0,0.0,0.0,0.0,0.0,-7.7023,-7.8741,0.0,0.0,-7.8975,-8.0146,-8.0576,0.0,-8.0888,-8.0966,-8.0927,-8.0615,-8.0732,-8.0888,-8.0302,-8.0107,0.0,0.0,0.0,-7.8819,-7.8819,0.0,0.0,0.0,0.0,0.0,0.0,0.0,0.0,0.0,0.0,-7.6906,-7.632,-7.6711,-7.6906,0.0,0.0,0.0,0.0,0.0,0.0,0.0,0.0,0.0,-8.0927,-8.1825,-8.2293,0.0,-8.2293,-8.2293,-8.2293,-8.2293,-8.2293,-8.2293,-8.2293,-8.2293,-8.2293,-8.2293,-8.2293,-8.2293,-8.2293,-8.2293,-8.2293,-8.2293,-8.2293,-8.2293,-8.2293,-8.2293,-8.2293,-8.2293,-8.2293,-8.2293,-8.2293,-8.2293,-8.2293,-7.1987,-7.1987,-7.1987,-7.1987,-7.1987,-7.1987,-7.1987,-7.1987,0.0,0.0,-7.1987,0.0,-7.2417,0.0,-7.2573,0.0,-7.2885,-7.2885,-7.2885,-7.2885,0.0,-7.2456,-7.2456,0.0,0.0,0.0,0.0,0.0,0.0,-7.1987,-7.1987,-7.1987,-7.2182,-7.2456,-7.2456,-7.2924,-7.3744,-7.3744,-7.4369,0.0,0.0,-7.917,0.0,0.0,-7.9951,-8.0263,0.0,-8.1474,-8.1552,-8.2098,-8.2293,-8.2293,-8.2293,-8.2293,-8.2176,-8.163,-8.1474,-8.1356,-8.0771,-8.0615,0.0,-8.0615,-8.0381,0.0,-8.0146,0.0,0.0,0.0,0.0,0.0,0.0,0.0,-7.757,-7.757,-7.7296,-7.7101,0.0,-7.7101,0.0,0.0,0.0,0.0,0.0,0.0,0.0,-8.0459,-8.1356,-8.1981,0.0,0.0,-8.2293,-8.2293,-8.2293,-8.2293,-8.2293,-8.2293,-8.2293,-8.2293,-8.2293,-8.2293,-8.2293,-8.2293,-8.2293,-8.2293,-8.2293,-8.2293,-8.2293,-8.2293,-8.2293,-8.2293,-8.2293,-8.2293,-8.2293,-8.2293,-8.2293,-8.2293,-7.1987,-7.1987,-7.1987,-7.1987,-7.1987,0.0,0.0,0.0,-7.2026,0.0,-7.2065,-7.2378,-7.3275,-7.3354,-7.3666,-7.4447,-7.4486,-7.4486,-7.4486,-7.4486,0.0,0.0,-7.3354,-7.2963,-7.2143,0.0,0.0,0.0,0.0,0.0,-7.2104,-7.2104,-7.2573,-7.3354,-7.3354,0.0,-7.4564,-7.4603,-7.5657,-7.7492,-7.999,-8.1044,-8.1161,-8.1981,0.0,-8.1161,-8.1981,-8.2293,-8.2293,-8.2293,-8.2293,-8.2293,-8.2293,-8.2293,-8.2293,-8.2293,-8.2293,-8.2293,-8.2293,-8.2293,-8.2293,-8.2293,0.0,0.0,0.0,0.0,-7.9834,0.0,0.0,0.0,0.0,0.0,0.0,-7.8468,-7.7726,-7.7179,-7.7179,0.0,0.0,0.0,0.0,0.0,0.0,0.0,-7.8819,-7.9639,-8.0498,-8.1396,0.0,0.0,-8.2254,-8.2293,-8.2293,-8.2293,-8.2293,-8.2293,-8.2293,-8.2293,-8.2293,-8.2293,-8.2293,-8.2293,-8.2293,-8.2293,-8.2293,-8.2293,-8.2293,-8.2293,-8.2293,-8.2293,-8.2293,-8.2293,-8.2293,-8.2293,-8.2293,-8.2293,-7.1987,-7.1987,-7.1987,0.0,-7.1987,-7.1987,0.0,0.0,0.0,0.0,-7.2963,-7.3275,-7.4095,-7.4173,-7.429,-7.4486,-7.4486,0.0,0.0,0.0,0.0,-7.4212,-7.4173,-7.4095,-7.3861,-7.3861,0.0,-7.3861,0.0,0.0,-7.3861,-7.3861,-7.3978,-7.4173,0.0,0.0,-7.5501,-7.6164,-7.7804,-8.0068,-8.0732,-8.1396,0.0,0.0,-8.2176,-8.1981,-8.2215,-8.2293,-8.2293,-8.2293,-8.2293,-8.2293,-8.2293,-8.2293,-8.2293,-8.2293,-8.2293,-8.2293,-8.2293,-8.2293,-8.2293,-8.2293,-8.2137,-8.1981,0.0,0.0,0.0,0.0,0.0,0.0,0.0,0.0,0.0,-7.9366,-7.8624,-7.8077,0.0,0.0,0.0,-7.7101,0.0,0.0,0.0,0.0,-7.9444,-7.9678,-8.0498,-8.1396,0.0,0.0,0.0,-8.2293,-8.2293,-8.2293,-8.2293,-8.2293,-8.2293,-8.2293,-8.2293,-8.2293,-8.2293,-8.2293,-8.2293,-8.2293,-8.2293,-8.2293,-8.2293,-8.2293,-8.2293,-8.2293,-8.2293,-8.2293,-8.2293,-8.2293,-8.2293,-8.2293,-7.1987,-7.1987,0.0,-7.1987,0.0,0.0,-7.1987,0.0,0.0,-7.3236,-7.3627,0.0,-7.4993,-7.5071,-7.5227,-7.5618,-7.5657,0.0,-7.5657,0.0,0.0,-7.5071,-7.5071,-7.4876,-7.4525,-7.4486,0.0,-7.4486,0.0,0.0,-7.4486,-7.4486,-7.4681,-7.5071,0.0,-7.5774,-7.7023,-7.8272,-7.9639,-8.1044,-8.1396,0.0,0.0,-8.2293,-8.2293,-8.2293,-8.2293,-8.2293,-8.2293,-8.2293,-8.2293,-8.2293,-8.2293,-8.2293,-8.2293,-8.2293,-8.2293,-8.2293,-8.2293,-8.2293,-8.2293,-8.2293,-8.2293,-8.2293,-8.2293,-8.2293,-8.2284,0.0,0.0,0.0,0.0,0.0,0.0,0.0,0.0,0.0,0.0,0.0,0.0,0.0,0.0,0.0,0.0,0.0,-7.8702,-7.9092,-7.9951,0.0,0.0,0.0,0.0,-8.2293,-8.2293,-8.2293,-8.2293,-8.2293,-8.2293,-8.2293,-8.2293,-8.2293,-8.2293,-8.2293,-8.2293,-8.2293,-8.2293,-8.2293,-8.2293,-8.2293,-8.2293,-8.2293,-8.2293,-8.2293,-8.2293,-8.2293,-8.2293,-8.2293,-7.1987,-7.1987,0.0,0.0,0.0,0.0,0.0,-7.2807,0.0,-7.3588,0.0,-7.4993,-7.5891,-7.5969,-7.632,-7.7179,0.0,-7.7257,-7.7257,-7.7257,-7.6867,-7.6008,-7.5969,-7.5618,-7.4876,-7.4837,-7.4837,0.0,0.0,0.0,-7.4837,-7.4837,0.0,0.0,0.0,0.0,0.0,-8.0341,-8.1083,-8.1239,-8.1981,-8.2293,-8.2293,-8.2293,-8.2293,-8.2293,-8.2293,-8.2293,-8.2293,-8.2293,-8.2293,-8.2293,-8.2293,-8.2293,-8.229,-8.228,-8.228,-8.2237,-8.2226,-8.223,-8.2237,-8.2226,-8.2234,-8.2237,-8.2226,-8.2222,-8.2162,-8.1987,-8.2089,-8.2162,0.0,0.0,0.0,0.0,0.0,0.0,0.0,0.0,0.0,0.0,0.0,0.0,0.0,0.0,0.0,-7.835,0.0,0.0,0.0,0.0,0.0,0.0,-8.2293,0.0,-8.2293,0.0,-8.2293,-8.2293,-8.2293,-8.2293,-8.2293,-8.2293,-8.2293,-8.2293,-8.2293,-8.2293,-8.2293,-8.2293,-8.2293,-8.2293,-8.2293,-8.2293,-8.2293,-8.2293,-8.2293,-8.2293,-7.1987,0.0,0.0,0.0,0.0,-7.308,-7.308,-7.3197,-7.3783,-7.5188,-7.5462,-7.5891,-7.6789,-7.6867,-7.7218,-7.8116,-7.8155,0.0,0.0,0.0,0.0,-7.6906,-7.6867,-7.6789,-7.6633,-7.6633,-7.6633,0.0,0.0,0.0,-7.6633,-7.6633,0.0,0.0,0.0,0.0,-8.0576,-8.0888,0.0,-8.2098,-8.2254,-8.2293,-8.2293,-8.2293,-8.2293,-8.2293,-8.2293,-8.2293,-8.2293,-8.2293,-8.2293,-8.2293,-8.2293,-8.2293,-8.228,-8.2089,-8.2062,-8.2038,-8.1836,-8.1934,-8.1999,-8.1836,-8.1941,-8.1993,-8.1828,-8.1795,-8.1787,-8.1753,-8.177,-8.1787,-8.1753,0.0,0.0,0.0,0.0,0.0,0.0,0.0,0.0,0.0,0.0,0.0,0.0,0.0,0.0,0.0,0.0,0.0,0.0,0.0,0.0,0.0,0.0,0.0,0.0,0.0,-8.2293,-8.2293,-8.2293,-8.2293,-8.2293,-8.2293,-8.2293,-8.2293,-8.2293,-8.2293,-8.2293,-8.2293,-8.2293,-8.2293,-8.2293,-8.2293,-8.2293,-8.2293,-8.2293,-8.2293,0.0,0.0,0.0,0.0,0.0,0.0,0.0,-7.4603,0.0,-7.5699,-7.6203,-7.6828,-7.7687,-7.7765,-7.8116,-7.9014,-7.9053,-7.9053,-7.9053,-7.9053,-7.8897,-7.8468,-7.8468,0.0,-7.8468,-7.7999,-7.7765,-7.7765,0.0,0.0,-7.7765,-7.7765,0.0,-7.8507,0.0,-8.0224,0.0,0.0,0.0,-8.2293,-8.2293,-8.2293,-8.2293,-8.2293,-8.2293,-8.2293,-8.2293,-8.223,-8.2157,-8.2241,-8.2293,-8.2287,-8.2166,-8.2148,-8.2089,-8.192,-8.1836,-8.1812,-8.1726,-8.177,-8.1812,-8.1717,-8.177,-8.1812,-8.1717,-8.1698,-8.167,-8.1558,-8.162,-8.1698,-8.1698,-8.1779,0.0,0.0,0.0,0.0,0.0,0.0,0.0,0.0,0.0,0.0,0.0,0.0,0.0,0.0,0.0,0.0,0.0,0.0,0.0,0.0,0.0,0.0,0.0,0.0,0.0,-8.2293,-8.2293,-8.2293,-8.2293,-8.2293,-8.2293,-8.2293,-8.2293,-8.2293,-8.2293,-8.2293,-8.2293,-8.2293,-8.2293,-8.2293,-8.2293,-8.2293,-8.2293,-8.2293,0.0,-7.226,0.0,0.0,-7.3705,0.0,-7.5618,-7.6128,-7.6362,-7.6362,-7.6945,-7.7726,-7.8585,-7.8663,-7.9014,-7.9912,-7.999,-7.999,-7.999,-7.999,-7.9873,-7.9717,-7.9717,-7.9717,-7.9717,-7.9014,-7.8663,0.0,0.0,0.0,0.0,-7.8585,0.0,0.0,0.0,0.0,0.0,0.0,-8.2293,-8.2293,-8.2293,-8.2293,-8.229,-8.2237,-8.223,-8.2226,-8.221,-8.2073,-8.1961,-8.2138,-8.2162,-8.2148,-8.1981,-8.1941,-8.1912,-8.1698,-8.163,-8.162,-8.1579,-8.16,-8.162,-8.1568,-8.16,-8.162,-8.1568,-8.1558,-8.1553,-8.1388,-8.1472,-8.1579,-8.162,-8.1726,0.0,0.0,0.0,0.0,0.0,0.0,0.0,0.0,0.0,0.0,0.0,0.0,0.0,0.0,0.0,0.0,0.0,0.0,0.0,0.0,0.0,-8.2293,-8.2293,0.0,-8.2293,0.0,-8.2293,-8.2293,-8.2293,-8.2293,-8.2293,-8.2293,-8.2293,-8.2293,-8.2293,-8.2293,-8.2293,-8.2293,-8.2293,-8.2293,-8.2293,-8.2293,-8.2293,-8.2293,0.0,0.0,0.0,0.0,0.0,0.0,0.0,-7.714,-7.8155,-7.8155,-7.8233,-7.8624,-7.9483,-7.96,-7.9912,-8.081,-8.0888,-8.0888,-8.0888,-8.0888,-8.0537,-7.9717,-7.9717,-7.9717,-7.9717,-7.9639,-7.96,0.0,0.0,0.0,0.0,0.0,0.0,0.0,0.0,0.0,0.0,-8.2254,-8.2293,-8.2293,-8.2293,-8.2293,-8.2287,-8.2089,-8.2044,-8.1993,-8.1812,-8.1744,-8.1726,-8.1744,-8.1753,-8.1744,-8.1735,-8.1726,-8.1689,-8.1507,-8.1424,-8.1375,-8.122,-8.1269,-8.1375,-8.122,-8.1283,-8.1362,-8.122,-8.1146,-8.1131,-8.1139,-8.1131,-8.1196,-8.1387,-8.1283,-8.1283,0.0,0.0,0.0,0.0,0.0,0.0,0.0,0.0,0.0,0.0,0.0,0.0,0.0,0.0,0.0,0.0,0.0,0.0,-8.2254,0.0,-8.2293,-8.2293,-8.2293,0.0,-8.2293,-8.2293,-8.2293,-8.2293,-8.2293,-8.2293,-8.2293,-8.2293,-8.2293,-8.2293,-8.2293,-8.2293,-8.2293,-8.2293,-8.2293,-8.2293,-8.2293,-8.2293,-8.2293,0.0,0.0,0.0,0.0,0.0,0.0,0.0,-7.796,-7.878,-7.9834,-7.9522,-7.9522,-8.0381,-8.0498,-8.0849,-8.1708,-8.1786,-8.1786,-8.1786,-8.1786,-8.163,-8.1278,-8.1278,-8.1278,-8.1278,-8.0732,-8.0438,0.0,0.0,0.0,0.0,0.0,0.0,0.0,0.0,-8.175,-8.1948,-8.2067,-8.2056,-8.1941,-8.1941,-8.1941,-8.1941,-8.1836,-8.1812,-8.1804,-8.1726,-8.1698,-8.1698,-8.1698,-8.1779,-8.1828,-8.1589,-8.1689,-8.1812,-8.1469,-8.1387,-8.1375,-8.1296,-8.1253,-8.122,-8.1124,-8.1146,-8.122,-8.1124,-8.1093,-8.1093,-8.1093,-8.1093,-8.1139,-8.122,-8.1267,-8.1283,0.0,0.0,0.0,0.0,0.0,0.0,0.0,0.0,0.0,0.0,0.0,0.0,0.0,0.0,0.0,0.0,0.0,0.0,-8.1474,0.0,-8.2293,-8.2293,-8.2293,-8.2293,-8.2293,-8.2293,-8.2293,-8.2293,-8.2293,-8.2293,-8.2293,-8.2293,-8.2293,-8.2293,-8.2293,-8.2293,-8.2293,-8.2293,-8.2293,-8.2293,-8.2293,-8.2293,-8.2293,-7.4837,0.0,-7.5227,0.0,-7.6558,-7.7062,-7.8546,-7.9014,-7.96,-8.0849,-8.0693,-8.0693,-8.1317,-8.1396,-8.163,-8.2254,-8.2293,-8.2293,-8.2293,-8.2293,-8.2293,-8.2293,-8.2234,0.0,-8.2293,-8.1585,-8.1182,-8.1091,-8.0552,0.0,0.0,0.0,0.0,0.0,-8.1836,-8.182,-8.1708,-8.1836,-8.182,-8.1698,-8.1698,-8.1698,-8.1689,-8.163,-8.164,-8.1689,-8.163,-8.165,-8.1698,-8.1698,-8.182,-8.1948,-8.1589,-8.1679,-8.1843,-8.1568,-8.1507,-8.1484,-8.1412,-8.1283,-8.1176,-8.1124,-8.1093,-8.1093,-8.1093,-8.1093,-8.1093,-8.1093,-8.1093,-8.1093,-8.1093,-8.121,-8.1269,-8.122,0.0,0.0,0.0,0.0,0.0,0.0,-8.0586,-7.9804,-7.9091,0.0,0.0,0.0,0.0,0.0,0.0,0.0,0.0,0.0,0.0,0.0,0.0,-8.2293,-8.2293,-8.2293,-8.2293,-8.2293,-8.2293,-8.2293,-8.2293,-8.2293,-8.2293,-8.2293,-8.2293,-8.2293,-8.2293,-8.2293,-8.2293,-8.2293,-8.2293,-8.2293,-8.2293,-8.2293,-7.5618,-7.5777,-7.6323,-7.8077,-7.835,-7.8663,-7.9561,-8.042,-8.0966,-8.1005,-8.1747,-8.2254,-8.2293,-8.2293,-8.2293,-8.2293,-8.2293,-8.2293,-8.2293,-8.2293,-8.2293,0.0,0.0,-8.2084,-8.229,-8.1881,-8.1795,-8.1987,0.0,0.0,-8.0416,0.0,-8.0882,-8.1698,-8.1698,-8.1698,-8.1698,-8.1698,-8.1698,-8.1698,-8.1698,-8.1698,-8.1679,-8.1496,-8.1514,-8.167,-8.1484,-8.1514,-8.1698,-8.1698,-8.182,-8.1968,-8.1753,-8.1698,-8.1698,-8.1698,-8.1689,-8.165,-8.1461,-8.1387,-8.1363,-8.1131,-8.1093,-8.1093,-8.1093,-8.1093,-8.1093,-8.1093,-8.1093,-8.1093,-8.1093,-8.1093,-8.1161,-8.135,0.0,0.0,0.0,0.0,0.0,0.0,-7.9827,-7.9058,-7.8213,0.0,0.0,0.0,0.0,0.0,0.0,0.0,0.0,-8.2215,-8.2293,0.0,-8.2293,-8.2293,-8.2293,-8.2293,-8.2293,-8.2293,-8.2293,-8.2293,-8.2293,-8.2293,-8.2293,-8.2293,-8.2293,-8.2293,-8.2293,-8.2293,-8.2293,-8.2293,-8.2293,-8.2293,-8.2293,-8.2293,-7.7414,-7.757,-7.7921,-7.9092,-7.9287,-7.9561,-8.0459,-8.081,-8.12,-8.1825,-8.2137,-8.2293,-8.2293,-8.2293,-8.2293,0.0,-8.2293,-8.2293,0.0,-8.2162,-8.2084,-8.2084,-8.192,-8.1812,-8.1905,-8.1761,-8.166,-8.1589,0.0,0.0,0.0,-8.1081,-8.1141,-8.1283,-8.1437,-8.1412,-8.1283,-8.1437,-8.1412,-8.1269,-8.1269,-8.135,-8.1507,-8.1424,-8.1514,-8.1689,-8.162,-8.164,-8.1698,-8.1698,-8.1735,-8.1779,-8.1717,-8.1787,-8.1898,-8.1735,-8.16,-8.1491,-8.1579,-8.14,-8.1191,-8.1124,-8.1093,-8.1093,-8.1093,-8.1093,-8.1093,-8.1093,-8.1093,-8.1093,-8.1093,-8.1093,-8.1124,-8.1191,-8.1116,0.0,0.0,0.0,0.0,0.0,-8.0151,-7.9606,0.0,-7.8931,0.0,0.0,0.0,0.0,0.0,0.0,0.0,0.0,-8.1981,0.0,-8.2293,-8.2293,-8.2293,-8.2293,-8.2293,-8.2293,-8.2293,-8.2293,-8.2293,-8.2293,-8.2293,-8.2293,-8.2293,-8.2293,-8.2293,-8.2293,-8.2293,-8.2293,-8.2293,-8.2293,-8.2293,-8.2293,-7.8702,-7.8897,-7.917,-8.0029,-8.0185,-8.0498,-8.1356,-8.141,-8.1585,-8.2132,-8.2138,-8.2073,-8.2073,-8.2073,0.0,-8.2287,-8.2157,-8.2128,-8.2166,-8.1987,-8.1905,-8.1905,-8.1698,-8.162,-8.1698,0.0,0.0,-8.1387,-8.1449,-8.14,-8.1269,-8.1269,-8.121,-8.1108,-8.1224,-8.121,-8.1108,-8.1239,-8.1196,-8.1093,-8.1093,-8.1176,-8.1269,-8.1269,-8.14,-8.1579,-8.1579,-8.163,-8.1698,-8.1698,-8.1698,-8.1679,-8.161,-8.167,-8.1761,-8.1717,-8.161,-8.1503,-8.1568,-8.14,-8.1205,-8.1124,-8.1093,-8.1093,-8.1093,-8.1093,-8.1093,-8.1093,-8.1093,-8.1093,-8.1093,-8.1093,-8.1093,-8.1093,-8.1093,-8.1093,-8.1093,0.0,0.0,0.0,0.0,0.0,0.0,-7.9441,0.0,0.0,0.0,0.0,0.0,0.0,0.0,-8.1351,-8.1968,0.0,-8.2293,-8.2293,-8.2293,-8.2293,-8.2293,-8.2293,-8.2293,-8.2293,-8.2293,-8.2293,-8.2293,-8.2293,-8.2293,-8.2293,-8.2293,-8.2293,-8.2293,-8.2293,-8.2293,-8.2293,-8.2293,-8.2293,-7.9639,-7.9795,0.0,0.0,-8.108,0.0,-8.217,-8.2094,-8.1974,-8.1974,-8.1804,-8.1698,-8.1698,-8.1689,-8.182,-8.2226,0.0,0.0,0.0,-8.1787,-8.1679,-8.1679,-8.1496,-8.1472,-8.165,-8.1269,-8.1205,-8.1362,-8.1205,-8.1093,-8.1093,-8.1093,-8.1093,-8.1093,-8.1093,-8.1093,-8.1093,-8.1093,-8.1093,-8.1093,-8.1093,-8.1108,-8.1124,-8.1124,-8.1253,-8.1424,-8.1424,-8.1514,-8.1679,-8.1679,-8.167,-8.162,-8.1437,-8.1362,-8.1412,-8.161,-8.167,-8.161,-8.1449,-8.1375,-8.1336,-8.1131,-8.1093,-8.1093,-8.1093,-8.1093,-8.1093,-8.1093,-8.1093,-8.1093,-8.1093,-8.1093,-8.1093,-8.1093,-8.1093,-8.1093,-8.1093,0.0,0.0,0.0,0.0,0.0,0.0,-7.9674,-8.0086,0.0,0.0,0.0,0.0,0.0,-8.1347,-8.1993,-8.2166,-8.2287,-8.2293,-8.2293,-8.2293,-8.2293,-8.2293,-8.2293,-8.2293,-8.2293,-8.2293,-8.2293,-8.2293,-8.2293,-8.2293,-8.2293,-8.2293,-8.2293,-8.2293,-8.2293,-8.2293,-8.2293,-8.2293,-8.2293,0.0,0.0,-8.0966,-8.1825,-8.1854,-8.1839,-8.2034,-8.1912,-8.177,-8.177,-8.1726,-8.1698,-8.1698,-8.1547,-8.1558,-8.1812,-8.1753,-8.1717,-8.1761,-8.1579,-8.1484,-8.1484,-8.1294,-8.1205,-8.1239,-8.1131,-8.1139,-8.1176,-8.1139,-8.1093,-8.1093,-8.1093,-8.1093,-8.1093,-8.1093,-8.1093,-8.1093,-8.1093,-8.1093,-8.1093,-8.1093,-8.1205,-8.1336,-8.1336,-8.1461,-8.162,-8.162,-8.1547,-8.1484,-8.1484,-8.1388,-8.1224,-8.1191,-8.1176,-8.1196,-8.1412,-8.1375,-8.128,-8.135,-8.1269,-8.1146,-8.1108,-8.1093,-8.1093,-8.1093,-8.1093,-8.1093,-8.1093,-8.1093,-8.1093,-8.1093,-8.1093,-8.1093,-8.1093,-8.1093,-8.1093,-8.1093,-8.1093,0.0,0.0,-8.0853,-8.0776,-8.0583,-8.0737,-8.0926,0.0,0.0,0.0,0.0,-8.1485,-8.1671,-8.1987,-8.2056,-8.2153,-8.2293,-8.2293,-8.2293,-8.2293,-8.2293,-8.2293,-8.2293,-8.2293,-8.2293,-8.2293,-8.2293,-8.2293,-8.2293,-8.2293,-8.2293,-8.2293,-8.2293,-8.2293,-8.2293,-8.2293,-8.2293,-8.2293,-8.1304,-8.1382,-8.146,-8.1927,-8.1941,-8.1851,-8.1851,-8.1689,-8.1547,-8.1547,-8.1496,-8.1424,-8.1424,-8.1323,-8.1296,-8.1412,-8.1424,-8.1472,-8.1547,-8.135,-8.128,-8.128,-8.1146,-8.1093,-8.1093,-8.1093,-8.1093,-8.1093,-8.1093,-8.1093,-8.1093,-8.1093,-8.1093,-8.1093,-8.1093,-8.1093,-8.1093,-8.1093,-8.1093,-8.1093,-8.1093,-8.1161,-8.128,-8.128,-8.1336,-8.1424,-8.1424,-8.1363,-8.128,-8.128,-8.1205,-8.1093,-8.1093,-8.1093,-8.1124,-8.1224,-8.1191,-8.1139,-8.1224,-8.1191,-8.1093,-8.1093,-8.1093,-8.1093,-8.1093,-8.1093,-8.1093,-8.1093,-8.1093,-8.1093,-8.1093,-8.1093,-8.1093,-8.1093,-8.1093,-8.1093,-8.1093,-8.1093,0.0,-8.1093,-8.1093,-8.1093,-8.1093,-8.1093,-8.1169,-8.1267,0.0,0.0,-8.128,-8.1375,-8.1541,-8.1717,-8.1881,-8.2062,-8.2157,-8.2237,-8.2293,-8.2293,-8.2293,-8.2293,-8.2293,-8.2293,-8.2293,-8.2293,-8.2293,-8.2293,-8.2293,-8.2293,-8.2293,-8.2293,-8.2293,-8.2293,-8.2293,-8.2293,-8.2293,-8.2293,-8.1799,-8.1812,-8.1698,-8.1698,-8.167,-8.165,-8.165,-8.1496,-8.1375,-8.1375,-8.122,-8.1093,-8.1093,-8.1093,-8.1093,-8.1093,-8.1093,-8.1176,-8.135,-8.1167,-8.1093,-8.1093,-8.1093,-8.1093,-8.1093,-8.1093,-8.1093,-8.1093,-8.1093,-8.1093,-8.1093,-8.1093,-8.1093,-8.1093,-8.1093,-8.1093,-8.1093,-8.1093,-8.1093,-8.1093,-8.1093,-8.1093,-8.1093,-8.1093,-8.1093,-8.1093,-8.1093,-8.1093,-8.1093,-8.1093,-8.1093,-8.1093,-8.1093,-8.1093,-8.1093,-8.1093,-8.1093,-8.1093,-8.1093,-8.1093,-8.1093,-8.1093,-8.1093,-8.1093,-8.1093,-8.1093,-8.1093,-8.1093,-8.1093,-8.1093,-8.1093,-8.1093,-8.1093,-8.1093,-8.1093,-8.1093,-8.1093,0.0,-8.1093,-8.1093,-8.1093,-8.1093,-8.1093,-8.1093,-8.1093,-8.1093,-8.1093,-8.1093,0.0,-8.1093,-8.1176,-8.1363,-8.1744,-8.1981,-8.2056,-8.2222,-8.2293,-8.2293,-8.2293,-8.2287,-8.2277,-8.2287,-8.2287,-8.2277,-8.2287,-8.2287,-8.2237,-8.2237,-8.223,-8.2218,-8.2218,-8.2218,-8.2218,-8.2218,-8.2218,-8.2218,-8.1705,-8.1717,-8.1698,-8.1698,-8.1547,-8.1449,-8.1449,-8.1294,-8.1131,-8.1131,-8.1124,-8.1093,-8.1093,-8.1093,-8.1093,-8.1093,-8.1093,-8.1108,-8.1131,-8.1124,-8.1093,-8.1093,-8.1093,-8.1093,-8.1093,-8.1093,-8.1093,-8.1093,-8.1093,-8.1093,-8.1093,-8.1093,-8.1093,-8.1093,-8.1093,-8.1093,-8.1093,-8.1093,-8.1093,-8.1093,-8.1093,-8.1093,-8.1093,-8.1093,-8.1093,-8.1093,-8.1093,-8.1093,-8.1093,-8.1093,-8.1093,-8.1093,-8.1093,-8.1093,-8.1093,-8.1093,-8.1093,-8.1093,-8.1093,-8.1093,-8.1093,-8.1093,-8.1093,-8.1093,-8.1093,-8.1093,-8.1093,-8.1093,-8.1093,-8.1093,-8.1093,-8.1093,-8.1093,-8.1093,-8.1093,-8.1093,-8.1093,0.0,-8.1093,-8.1093,-8.1093,-8.1093,-8.1093,-8.1093,-8.1093,-8.1093,-8.1093,-8.1093,-8.1093,-8.1093,-8.1124,-8.1169,-8.1564,-8.192,-8.2237,-8.2287,-8.2293,-8.2293,-8.2293,-8.2218,-8.2062,-8.2226,-8.2218,-8.2062,-8.2226,-8.2218,-8.2056,-8.2056,-8.1948,-8.1787,-8.1787,-8.1787,-8.1787,-8.1787,-8.1787,-8.1787,-8.1525,-8.1449,-8.1388,-8.1388,-8.1283,-8.1239,-8.1239,-8.1146,-8.1093,-8.1093,-8.1093,-8.1093,-8.1093,-8.1093,-8.1093,-8.1093,-8.1093,-8.1093,-8.1093,-8.1093,-8.1093,-8.1093,-8.1093,-8.1093,-8.1093,-8.1093,-8.1093,-8.1093,-8.1093,-8.1093,-8.1093,-8.1093,-8.1093,-8.1093,-8.1093,-8.1093,-8.1093,-8.1093,-8.1093,-8.1093,-8.1093,-8.1093,-8.1093,-8.1093,-8.1093,-8.1093,-8.1093,-8.1093,-8.1093,-8.1093,-8.1093,-8.1093,-8.1093,-8.1093,-8.1093,-8.1093,-8.1093,-8.1093,-8.1093,-8.1093,-8.1093,-8.1093,-8.1093,-8.1093,-8.1093,-8.1093,-8.1093,-8.1093,-8.1093,-8.1093,-8.1093,-8.1093,-8.1093,-8.1093,-8.1093,0.0,0.0,-8.1093,-8.1093,-8.1093,-8.1093,-8.1093,-8.1093,-8.1093,-8.1093,-8.1093,-8.1093,-8.1093,-8.1093,-8.1093,-8.1093,-8.1093,-8.1414,-8.1679,-8.1968,-8.1968,-8.1968,-8.1968,-8.1968,-8.1934,-8.1828,-8.1941,-8.1934,-8.1828,-8.1941,-8.1934,-8.1828,-8.1828,-8.1779,-8.1698,-8.1698,-8.1698,-8.1698,-8.1698,-8.1698,-8.1698,-8.1336,-8.122,-8.1093,-8.1093,-8.1093,-8.1093,-8.1093,-8.1093,-8.1093,-8.1093,-8.1093,-8.1093,-8.1093,-8.1093,-8.1093,-8.1093,-8.1093,-8.1093,-8.1093,-8.1093,-8.1093,-8.1093,-8.1093,-8.1093,-8.1093,-8.1093,-8.1093,-8.1093,-8.1093,-8.1093,-8.1093,-8.1093,-8.1093,-8.1093,-8.1093,-8.1093,-8.1093,-8.1093,-8.1093,-8.1093,-8.1093,-8.1093,-8.1093,-8.1093,-8.1093,-8.1093,-8.1093,-8.1093,-8.1093,-8.1093,-8.1093,-8.1093,-8.1093,-8.1093,-8.1093,-8.1093,-8.1093,-8.1093,-8.1093,-8.1093,-8.1093,-8.1093,-8.1093,-8.1093,-8.1093,-8.1093,-8.1093,-8.1093,-8.1093,-8.1093,-8.1093,-8.1093,-8.1093,-8.1093,0.0,0.0,0.0,-8.1093,-8.1093,-8.1093,-8.1093,-8.1093,-8.1093,-8.1093,-8.1093,-8.1093,-8.1093,-8.1093,-8.1093,-8.1093,-8.1093,-8.1093,-8.1283,-8.1519,-8.1698,-8.1698,-8.1698,-8.1698,-8.1698,-8.167,-8.163,-8.1679,-8.167,-8.163,-8.1679,-8.167,-8.163,-8.163,-8.16,-8.1547,-8.1547,-8.1547,-8.1547,-8.1547,-8.1547,-8.1547,-8.1124,-8.1108,-8.1093,-8.1093,-8.1093,-8.1093,-8.1093,-8.1093,-8.1093,-8.1093,-8.1093,-8.1093,-8.1093,-8.1093,-8.1093,-8.1093,-8.1093,-8.1093,-8.1093,-8.1093,-8.1093,-8.1093,-8.1093,-8.1093,-8.1093,-8.1093,-8.1093,-8.1093,-8.1093,-8.1093,-8.1093,-8.1093,-8.1093,-8.1093,-8.1093,-8.1093,-8.1093,-8.1093,-8.1093,-8.1093,-8.1093,-8.1093,-8.1093,-8.1093,-8.1093,-8.1093,-8.1093,-8.1093,-8.1093,-8.1093,-8.1093,-8.1093,-8.1093,-8.1093,-8.1093,-8.1093,-8.1093,-8.1093,-8.1093,-8.1093,-8.1093,-8.1093,-8.1093,-8.1093,-8.1093,-8.1093,-8.1093,-8.1093,-8.1093,-8.1093,-8.1093,-8.1093,-8.1093,-8.1093,0.0,0.0,-8.1093,-8.1093,-8.1093,-8.1093,-8.1093,-8.1093,-8.1093,-8.1093,-8.1093,-8.1093,-8.1093,-8.1093,-8.1093,-8.1093,-8.1093,-8.1093,-8.1283,-8.1519,-8.1698,-8.1698,-8.1698,-8.1698,-8.1698,-8.16,-8.1424,-8.161,-8.1589,-8.1437,-8.161,-8.1589,-8.1424,-8.1424,-8.131,-8.1131,-8.1131,-8.1131,-8.1131,-8.1131,-8.1131,-8.1131,-8.1093,-8.1093,-8.1093,-8.1093,-8.1093,-8.1093,-8.1093,-8.1093,-8.1093,-8.1093,-8.1093,-8.1093,-8.1093,-8.1093,-8.1093,-8.1093,-8.1093,-8.1093,-8.1093,-8.1093,-8.1093,-8.1093,-8.1093,-8.1093,-8.1093,-8.1093,-8.1093,-8.1093,-8.1093,-8.1093,-8.1093,-8.1093,-8.1093,-8.1093,-8.1093,-8.1093,-8.1093,-8.1093,-8.1093,-8.1093,-8.1093,-8.1093,-8.1093,-8.1093,-8.1093,-8.1093,-8.1093,-8.1093,-8.1093,-8.1093,-8.1093,-8.1093,-8.1093,-8.1093,-8.1093,-8.1093,-8.1093,-8.1093,-8.1093,-8.1093,-8.1093,-8.1093,-8.1093,-8.1093,-8.1093,-8.1093,-8.1093,-8.1093,-8.1093,-8.1093,-8.1093,-8.1093,-8.1093,-8.1093,0.0,-8.1093,-8.1093,-8.1093,-8.1093,-8.1093,-8.1093,-8.1093,-8.1093,-8.1093,-8.1093,-8.1093,-8.1093,-8.1093,-8.1093,-8.1093,-8.1093,-8.1093,-8.1176,-8.1253,-8.1323,-8.1323,-8.1323,-8.1323,-8.1323,-8.1308,-8.121,-8.1283,-8.1308,-8.121,-8.1283,-8.1269,-8.1196,-8.1196,-8.1161,-8.1093,-8.1093,-8.1093,-8.1093,-8.1093,-8.1093,-8.1093,-8.1093,-8.1093,-8.1093,-8.1093,-8.1093,-8.1093,-8.1093,-8.1093,-8.1093,-8.1093,-8.1093,-8.1093,-8.1093,-8.1093,-8.1093,-8.1093,-8.1093,-8.1208,-8.1477,-8.1747,-8.1631,-8.1131,-8.1093,-8.1093,-8.1093,-8.1093,-8.1093,-8.1093,-8.1093,-8.1093,-8.1093,-8.1093,-8.1093,-8.1093,-8.1093,-8.1093,-8.1093,-8.1093,-8.1093,-8.1093,-8.1093,-8.1093,-8.1093,-8.1093,-8.1093,-8.1093,-8.1093,-8.1093,-8.1093,-8.1093,-8.1093,-8.1093,-8.1093,-8.1093,-8.1093,-8.1093,-8.1093,-8.1093,-8.1093,-8.1093,-8.1093,-8.1093,-8.1093,-8.1093,-8.1093,-8.1093,-8.1093,-8.1093,-8.1093,-8.1093,-8.1093,-8.1093,-8.1093,-8.1093,-8.1093,-8.1093,-8.1093,-8.1093,-8.1093,-8.1093,-8.1093,-8.1093,-8.1093,-8.1093,-8.1093,-8.1093,-8.1093,-8.1093,-8.1093,-8.1093,-8.1093,-8.1093,-8.1093,-8.1093,-8.1093,-8.1093,-8.1093,-8.1093,-8.1093,-8.1093,-8.1093,-8.1093,-8.1093,-8.1093,-8.1093,-8.1093,-8.1093,-8.1093,-8.1093,-8.1093,-8.1093,-8.1093,-8.1093,-8.1093,-8.1093,-8.1093,-8.1093,-8.1093,-8.1093,-8.1093,-8.1093,-8.1093,-8.1093,-8.1093,-8.1093,-8.1093,-8.1093,-8.1093,-8.1093,-8.1093,-8.1093,-8.1093,-8.1131,-8.1477,-8.2247,-8.3131,-8.2862,-8.1208,-8.1131,-8.1131,-8.1093,-8.1093,-8.1093,-8.1093,-8.1093,-8.1093,-8.1093,-8.1093,-8.1093,-8.1093,-8.1093,-8.1093,-8.1093,-8.1093,-8.1093,-8.1093,-8.1093,-8.1093,-8.1093,-8.1093,-8.1093,-8.1093,-8.1093,-8.1093,-8.1093,-8.1093,-8.1093,-8.1093,-8.1093,-8.1093,-8.1093,-8.1093,-8.1093,-8.1093,-8.1093,-8.1093,-8.1093,-8.1093,-8.1093,-8.1093,-8.1093,-8.1093,-8.1093,-8.1093,-8.1093,-8.1093,-8.1093,-8.1093,-8.1093,-8.1093,-8.1093,-8.1093,-8.1093,-8.1093,-8.1093,-8.1093,-8.1093,-8.1093,-8.1093,-8.1093,-8.1093,-8.1093,-8.1093,-8.1093,-8.1093,-8.1093,-8.1093,-8.1093,-8.1093,-8.1093,-8.1093,-8.1093,-8.1093,-8.1093,-8.1093,-8.1093,-8.1093,-8.1093,-8.1093,-8.1093,-8.1093,-8.1093,-8.1093,-8.1093,-8.1093,-8.1093,-8.1093,-8.1093,-8.1093,-8.1093,-8.1093,-8.1093,-8.1093,-8.1093,-8.1093,-8.1093,-8.1093,-8.1093,-8.1093,-8.1093,-8.1093,-8.1093,-8.1093,-8.1093,-8.1093,-8.1593,-8.1939,-8.1939,-8.2516,-8.2939,-8.3208,-8.3439,-8.3362,-8.2862,-8.2862,-8.2554,-8.1939,-8.1939,-8.167,-8.1093,-8.1093,-8.1093,-8.1093,-8.1093,-8.1093,-8.1093,-8.1093,-8.1093,-8.1093,-8.1093,-8.1093,-8.1093,-8.1093,-8.1093,-8.1093,-8.1093,-8.1093,-8.1093,-8.1093,-8.1093,-8.1093,-8.1093,-8.1093,-8.1093,-8.1093,-8.1093,-8.1093,-8.1093,-8.1093,-8.1093,-8.1093,-8.1093,-8.1093,-8.1093,-8.1093,-8.1093,-8.1093,-8.1093,-8.1093,-8.1093,-8.1093,-8.1093,-8.1093,-8.1093,-8.1093,-8.1093,-8.1093,-8.1093,-8.1093,-8.1093,-8.1093,-8.1093,-8.1093,-8.1093,-8.1093,-8.1093,-8.1093,-8.1093,-8.1093,-8.1093,-8.1093,-8.1093,-8.1093,-8.1093,-8.1093,-8.1093,-8.1093,-8.1093,-8.1093,-8.1093,-8.1093,-8.1093,-8.1093,-8.1093,-8.1093,-8.1093,-8.1093,-8.1093,-8.1093,-8.1093,-8.1093,-8.1093,-8.1093,-8.1093,-8.1093,-8.1093,-8.1093,-8.1093,-8.1093,-8.1093,-8.1093,-8.1093,-8.1093,-8.1093,-8.1093,-8.1093,-8.1093,-8.1093,-8.1362,-8.1554,-8.1554,-8.2324,-8.2824,-8.2824,-8.3593,-8.4093,-8.4093,-8.4401,-8.4593,-8.4593,-8.4593,-8.4016,-8.2824,-8.2824,-8.2401,-8.1554,-8.1554,-8.14,-8.1093,-8.1093,-8.1093,-8.1093,-8.1093,-8.1093,-8.1093,-8.1093,-8.1093,-8.1093,-8.1093,-8.1093,-8.1093,-8.1093,-8.1093,-8.1093,-8.1093,-8.1093,-8.1093,-8.1093,-8.1093,-8.1093,-8.1093,-8.1093,-8.1093,-8.1093,-8.1093,-8.1093,-8.1093,-8.1093,-8.1093,-8.1093,-8.1093,-8.1093,-8.1093,-8.1093,-8.1093,-8.1093,-8.1093,-8.1093,-8.1093,-8.1093,-8.1093,-8.1093,-8.1093,-8.1093,-8.1093,-8.1093,-8.1093,-8.1093,-8.1093,-8.1093,-8.1093,-8.1093,-8.1093,-8.1093,-8.1093,-8.1093,-8.1093,-8.1093,-8.1093,-8.1093,-8.1093,-8.1093,-8.1093,-8.1093,-8.1093,-8.1093,-8.1093,-8.1093,-8.1093,-8.1093,-8.1093,-8.1093,-8.1093,-8.1093,-8.1093,-8.1093,-8.1093,-8.1093,-8.1093,-8.1093,-8.1093,-8.1093,-8.1093,-8.1093,-8.1093,-8.1093,-8.1093,-8.1093,-8.1093,-8.1093,-8.1093,-8.117,-8.1208,-8.1208,-8.19,-8.2401,-8.2401,-8.317,-8.3708,-8.3708,-8.4516,-8.5016,-8.5016,-8.5709,-8.6094,-8.6094,-8.6094,-8.5401,-8.3862,-8.3747,-8.3285,-8.2401,-8.2401,-8.2016,-8.1208,-8.1208,-8.117,-8.1093,-8.1093,-8.1093,-8.1093,-8.1093,-8.1093,-8.1093,-8.1093,-8.1093,-8.1093,-8.1093,-8.1093,-8.1093,-8.1093,-8.1093,-8.1093,-8.1093,-8.1093,-8.1093,-8.1093,-8.1093,-8.1093,-8.1093,-8.1093,-8.1093,-8.1093,-8.1093,-8.1093,-8.1093,-8.1093,-8.1093,-8.1093,-8.1093,-8.1093,-8.1093,-8.1093,-8.1093,-8.1093,-8.1093,-8.1093,-8.1093,-8.1093,-8.1093,-8.1093,-8.1093,-8.1093,-8.1093,-8.1093,-8.1093,-8.1093,-8.1093,-8.1093,-8.1093,-8.1093,-8.1093,-8.1093,-8.1093,-8.1093,-8.1093,-8.1093,-8.1093,-8.1093,-8.1093,-8.1093,-8.1093,-8.1093,-8.1093,-8.1093,-8.1093,-8.1093,-8.1093,-8.1093,-8.1093,-8.1093,-8.1093,-8.1093,-8.1093,-8.1093,-8.1093,-8.1093,-8.1093,-8.1093,-8.1093,-8.1093,-8.1093,-8.1093,-8.1093,-8.1093,-8.1093,-8.1093,-8.1631,-8.2054,-8.2054,-8.2785,-8.3324,-8.3324,-8.4093,-8.4632,-8.4632,-8.5363,-8.5863,-8.5863,-8.6017,-8.6094,-8.6094,-8.6094,-8.594,-8.5555,-8.4939,-8.417,-8.3324,-8.3324,-8.2862,-8.2054,-8.2054,-8.1708,-8.1093,-8.1093,-8.1093,-8.1093,-8.1093,-8.1093,-8.1093,-8.1093,-8.1093,-8.1093,-8.1093,-8.1093,-8.1093,-8.1093,-8.1093,-8.1093,-8.1093,-8.1093,-8.1093,-8.1093,-8.1093,-8.1093,-8.1093,-8.1093,-8.1093,-8.1093,-8.1093,-8.1093,-8.1093,-8.1093,-8.1093,-8.1093,-8.1093,-8.1093,-8.1093,-8.1093,-8.1093,-8.1093,-8.1093,-8.1093,-8.1093,-8.1093,-8.1093,-8.1093,-8.1093,-8.1093,-8.1093,-8.1093,-8.1093,-8.1093,-8.1093,-8.1093,-8.1093,-8.1093,-8.1093,-8.1093,-8.1093,-8.1093,-8.1093,-8.1093,-8.1093,-8.1093,-8.1093,-8.1093,-8.1093,-8.1093,-8.1093,-8.1093,-8.1093,-8.1093,-8.1093,-8.1093,-8.1093,-8.1093,-8.1093,-8.1093,-8.1093,-8.1093,-8.1093,-8.1093,-8.1093,-8.1093,-8.1093,-8.1093,-8.1093,-8.1093,-8.1093,-8.1093,-8.1246,-8.1593,-8.2016,-8.2439,-8.2862,-8.367,-8.4209,-8.4209,-8.4978,-8.5478,-8.5478,-8.5863,-8.6094,-8.6094,-8.6094,-8.6094,-8.6094,-8.6094,-8.6094,-8.6094,-8.5709,-8.5055,-8.4209,-8.4209,-8.3785,-8.2901,-8.2901,-8.2708,-8.2285,-8.2285,-8.2285,-8.2285,-8.1862,-8.167,-8.1631,-8.1246,-8.1093,-8.1093,-8.1093,-8.1093,-8.1093,-8.1093,-8.1093,-8.1093,-8.1093,-8.1093,-8.1093,-8.1093,-8.1093,-8.1093,-8.1093,-8.1093,-8.1093,-8.1093,-8.1093,-8.1093,-8.1093,-8.1093,-8.1093,-8.1093,-8.1093,-8.1093,-8.1093,-8.1093,-8.1093,-8.1093,-8.1093,-8.1093,-8.1093,-8.1093,-8.1093,-8.1093,-8.1093,-8.1093,-8.1093,-8.1093,-8.1093,-8.1093,-8.1093,-8.1093,-8.1093,-8.1093,-8.1093,-8.1093,-8.1093,-8.1093,-8.1093,-8.1093,-8.1093,-8.1093,-8.1093,-8.1093,-8.1093,-8.1093,-8.1093,-8.1093,-8.1093,-8.1093,-8.1093,-8.1093,-8.1093,-8.1093,-8.1093,-8.1093,-8.1093,-8.1093,-8.1093,-8.1093,-8.1093,-8.1093,-8.1093,-8.1093,-8.1093,-8.1093,-8.1093,-8.1208,-8.1516,-8.2208,-8.2554,-8.3016,-8.3708,-8.4555,-8.5132,-8.5132,-8.5709,-8.6094,-8.6094,-8.6094,-8.6094,-8.6094,-8.6094,-8.6094,-8.6094,-8.6094,-8.6094,-8.6094,-8.6094,-8.5786,-8.5132,-8.5132,-8.467,-8.3824,-8.3824,-8.3747,-8.3593,-8.3593,-8.3593,-8.3555,-8.2824,-8.2516,-8.2439,-8.1785,-8.1516,-8.1516,-8.1362,-8.1323,-8.1285,-8.1131,-8.1093,-8.1093,-8.1093,-8.1093,-8.1093,-8.1093,-8.1093,-8.1093,-8.1093,-8.1093,-8.1093,-8.1093,-8.1093,-8.1093,-8.1093,-8.1093,-8.1093,-8.1093,-8.1093,-8.1093,-8.1093,-8.1093,-8.1093,-8.1093,-8.1093,-8.1093,-8.1093,-8.1093,-8.1093,-8.1093,-8.1093,-8.1093,-8.1093,-8.1093,-8.1093,-8.1093,-8.1093,-8.1093,-8.1093,-8.1093,-8.1093,-8.1093,-8.1093,-8.1093,-8.1093,-8.1093,-8.1093,-8.1093,-8.1093,-8.1093,-8.1093,-8.1093,-8.1093,-8.1093,-8.1093,-8.1093,-8.1093,-8.1093,-8.1093,-8.1093,-8.1093,-8.1093,-8.1093,-8.1093,-8.1093,-8.1093,-8.1093,-8.1093,-8.1093,-8.1093,-8.1093,-8.1093,-8.1093,-8.167,-8.217,-8.2285,-8.3593,-8.4593,-8.4709,-8.544,-8.594,-8.594,-8.6017,-8.6094,-8.6094,-8.6094,-8.6094,-8.6094,-8.6094,-8.6094,-8.6094,-8.6094,-8.6094,-8.6094,-8.6094,-8.6055,-8.594,-8.594,-8.5517,-8.4709,-8.4709,-8.4324,-8.3593,-8.3593,-8.3593,-8.3593,-8.3478,-8.3401,-8.3401,-8.3285,-8.3247,-8.317,-8.2401,-8.2131,-8.2054,-8.1362,-8.1093,-8.1093,-8.1093,-8.1093,-8.1093,-8.1093,-8.1093,-8.1093,-8.1093,-8.1093,-8.1093,-8.1093,-8.1093,-8.1093,-8.1093,-8.1093,-8.1093,-8.1093,-8.1093,-8.1093,-8.1093,-8.1093,-8.1093,-8.1093,-8.1093,-8.1093,-8.1093,-8.1093,-8.1093,-8.1093,-8.1093,-8.1093,-8.1093,-8.1093,-8.1093,-8.1093,-8.1093,-8.1093,-8.1093,-8.1093,-8.1093,-8.1093,-8.1093,-8.1093,-8.1093,-8.1093,-8.1093,-8.1093,-8.1093,-8.1093,-8.1093,-8.1093,-8.1093,-8.1093,-8.1093,-8.1093,-8.1093,-8.1093,-8.1093,-8.1093,-8.1093,-8.1093,-8.1093,-8.1093,-8.1093,-8.1093,-8.1093,-8.1093,-8.1093,-8.1093,-8.1093,-8.1246,-8.1708,-8.2054,-8.2631,-8.3593,-8.4401,-8.5055,-8.5517,-8.5901,-8.6094,-8.6094,-8.6094,-8.6094,-8.6094,-8.6094,-8.6094,-8.6094,-8.6094,-8.6094,-8.6094,-8.6094,-8.6094,-8.6094,-8.6094,-8.6094,-8.6094,-8.6094,-8.594,-8.5555,-8.5555,-8.5363,-8.5016,-8.5016,-8.5016,-8.4978,-8.4516,-8.4324,-8.4286,-8.3785,-8.3593,-8.3555,-8.317,-8.3016,-8.2978,-8.2631,-8.217,-8.1785,-8.1785,-8.1477,-8.1093,-8.1093,-8.1093,-8.1093,-8.1093,-8.1093,-8.1093,-8.1093,-8.1093,-8.1093,-8.1093,-8.1093,-8.1093,-8.1093,-8.1093,-8.1093,-8.1093,-8.1093,-8.1093,-8.1093,-8.1093,-8.1093,-8.1093,-8.1093,-8.1093,-8.1093,-8.1093,-8.1093,-8.1093,-8.1093,-8.1093,-8.1093,-8.1093,-8.1093,-8.1093,-8.1093,-8.1093,-8.1093,-8.1093,-8.1093,-8.1093,-8.1093,-8.1093,-8.1093,-8.1093,-8.1093,-8.1093,-8.1093,-8.1093,-8.1093,-8.1093,-8.1093,-8.1093,-8.1093,-8.1093,-8.1093,-8.1093,-8.1093,-8.1093,-8.1093,-8.1093,-8.1093,-8.1093,-8.1093,-8.1093]},{"header":{"parameterUnit":"m.s-1","parameterCategory":1,"la1":30.6,"la2":28.766,"lo1":-90.7593,"lo2":-88.6598,"dy":0.0162,"dx":0.0183,"nx":116,"ny":114,"refTime":"2024-03-29T18:00:00:Z","depth":0,"parameterNumber":3,"parameterNumberName":"V-component_of_WINDS"},"data":[0.0,0.0,0.0,0.0,0.0,0.0,0.0,0.0,0.0,0.0,0.0,0.0,0.0,0.0,0.0,0.0,0.0,0.0,0.0,0.0,0.0,0.0,0.0,0.0,0.0,0.0,0.0,0.0,0.0,0.0,0.0,0.0,0.0,0.0,0.0,0.0,0.0,0.0,0.0,0.0,0.0,0.0,0.0,0.0,0.0,0.0,0.0,0.0,0.0,0.0,0.0,0.0,0.0,0.0,0.0,0.0,0.0,0.0,0.0,0.0,0.0,0.0,0.0,0.0,0.0,0.0,0.0,0.0,0.0,0.0,0.0,0.0,0.0,0.0,0.0,0.0,0.0,0.0,0.0,0.0,0.0,0.0,0.0,0.0,0.0,0.0,0.0,0.0,0.0,0.0,0.0,0.0,0.0,0.0,0.0,0.0,0.0,0.0,0.0,0.0,0.0,0.0,0.0,0.0,0.0,0.0,0.0,0.0,0.0,0.0,0.0,0.0,0.0,0.0,0.0,0.0,0.0,0.0,0.0,0.0,0.0,0.0,0.0,0.0,0.0,0.0,0.0,0.0,0.0,0.0,0.0,0.0,0.0,0.0,0.0,0.0,0.0,0.0,0.0,0.0,0.0,0.0,0.0,0.0,0.0,0.0,0.0,0.0,0.0,0.0,0.0,0.0,0.0,0.0,0.0,0.0,0.0,0.0,0.0,0.0,0.0,0.0,0.0,0.0,0.0,0.0,0.0,0.0,0.0,0.0,0.0,0.0,0.0,0.0,0.0,0.0,0.0,0.0,0.0,0.0,0.0,0.0,0.0,0.0,0.0,0.0,0.0,0.0,0.0,0.0,0.0,0.0,0.0,0.0,0.0,0.0,0.0,0.0,0.0,0.0,0.0,0.0,0.0,0.0,0.0,0.0,0.0,0.0,0.0,0.0,0.0,0.0,0.0,0.0,0.0,0.0,0.0,0.0,0.0,0.0,0.0,0.0,0.0,0.0,0.0,0.0,0.0,0.0,0.0,0.0,0.0,0.0,0.0,0.0,0.0,0.0,0.0,0.0,0.0,0.0,0.0,0.0,0.0,0.0,0.0,0.0,0.0,0.0,0.0,0.0,0.0,0.0,0.0,0.0,0.0,0.0,0.0,0.0,0.0,0.0,0.0,0.0,0.0,0.0,0.0,0.0,0.0,0.0,0.0,0.0,0.0,0.0,0.0,0.0,0.0,0.0,0.0,0.0,0.0,0.0,0.0,0.0,0.0,0.0,0.0,0.0,0.0,0.0,0.0,0.0,0.0,0.0,0.0,0.0,0.0,0.0,0.0,0.0,0.0,0.0,0.0,0.0,0.0,0.0,0.0,0.0,0.0,0.0,0.0,0.0,0.0,0.0,0.0,0.0,0.0,0.0,0.0,0.0,0.0,0.0,0.0,0.0,0.0,0.0,0.0,0.0,0.0,0.0,0.0,0.0,0.0,0.0,0.0,0.0,0.0,0.0,0.0,0.0,0.0,0.0,0.0,0.0,0.0,0.0,0.0,0.0,0.0,0.0,0.0,0.0,0.0,0.0,0.0,0.0,0.0,0.0,0.0,0.0,0.0,0.0,0.0,0.0,0.0,0.0,0.0,0.0,0.0,0.0,0.0,0.0,0.0,0.0,0.0,0.0,0.0,0.0,0.0,0.0,0.0,0.0,0.0,0.0,0.0,0.0,0.0,0.0,0.0,0.0,0.0,0.0,0.0,0.0,0.0,0.0,0.0,0.0,0.0,0.0,0.0,0.0,0.0,0.0,0.0,0.0,0.0,0.0,0.0,0.0,0.0,0.0,0.0,0.0,0.0,0.0,0.0,0.0,0.0,0.0,0.0,0.0,0.0,0.0,0.0,0.0,0.0,0.0,0.0,0.0,0.0,0.0,0.0,0.0,0.0,0.0,0.0,0.0,0.0,0.0,0.0,0.0,0.0,0.0,0.0,0.0,0.0,0.0,0.0,0.0,0.0,0.0,0.0,0.0,0.0,0.0,0.0,0.0,0.0,0.0,0.0,0.0,0.0,0.0,0.0,0.0,0.0,0.0,0.0,0.0,0.0,0.0,0.0,0.0,0.0,0.0,0.0,0.0,0.0,0.0,0.0,0.0,0.0,0.0,0.0,0.0,0.0,0.0,0.0,0.0,0.0,0.0,0.0,0.0,0.0,0.0,0.0,0.0,0.0,0.0,0.0,0.0,0.0,0.0,0.0,0.0,0.0,0.0,0.0,0.0,0.0,0.0,0.0,0.0,0.0,0.0,0.0,0.0,0.0,0.0,0.0,0.0,0.0,0.0,0.0,0.0,0.0,0.0,0.0,0.0,0.0,0.0,0.0,0.0,0.0,0.0,0.0,0.0,0.0,0.0,0.0,0.0,0.0,0.0,0.0,0.0,0.0,0.0,0.0,0.0,0.0,0.0,0.0,0.0,0.0,0.0,0.0,0.0,0.0,0.0,0.0,0.0,0.0,0.0,0.0,0.0,0.0,0.0,0.0,0.0,0.0,0.0,0.0,0.0,0.0,0.0,0.0,0.0,0.0,0.0,0.0,0.0,0.0,0.0,0.0,0.0,0.0,0.0,0.0,0.0,0.0,0.0,0.0,0.0,0.0,0.0,0.0,0.0,0.0,0.0,0.0,0.0,0.0,0.0,0.0,0.0,0.0,0.0,0.0,0.0,0.0,0.0,0.0,0.0,0.0,0.0,0.0,0.0,0.0,0.0,0.0,0.0,0.0,0.0,0.0,0.0,0.0,0.0,0.0,0.0,0.0,0.0,0.0,0.0,0.0,0.0,0.0,0.0,0.0,0.0,0.0,0.0,0.0,0.0,0.0,0.0,0.0,0.0,0.0,0.0,0.0,0.0,0.0,0.0,0.0,0.0,0.0,0.0,0.0,0.0,0.0,0.0,0.0,0.0,0.0,0.0,0.0,0.0,0.0,0.0,0.0,0.0,0.0,0.0,0.0,0.0,0.0,0.0,0.0,0.0,0.0,0.0,0.0,0.0,0.0,0.0,0.0,0.0,0.0,0.0,0.0,0.0,0.0,0.0,0.0,0.0,0.0,0.0,0.0,0.0,0.0,0.0,0.0,0.0,0.0,0.0,0.0,0.0,0.0,0.0,0.0,0.0,0.0,0.0,0.0,0.0,0.0,0.0,0.0,0.0,0.0,0.0,0.0,0.0,0.0,0.0,0.0,0.0,0.0,0.0,0.0,0.0,0.0,0.0,0.0,0.0,0.0,0.0,0.0,0.0,0.0,0.0,0.0,0.0,0.0,0.0,0.0,0.0,0.0,0.0,0.0,0.0,0.0,0.0,0.0,0.0,0.0,0.0,0.0,0.0,0.0,0.0,0.0,0.0,0.0,0.0,0.0,0.0,0.0,0.0,0.0,0.0,0.0,0.0,0.0,0.0,0.0,0.0,0.0,0.0,0.0,0.0,0.0,0.0,0.0,0.0,0.0,0.0,0.0,0.0,0.0,0.0,0.0,0.0,0.0,0.0,0.0,0.0,0.0,0.0,0.0,0.0,0.0,0.0,0.0,0.0,0.0,0.0,0.0,0.0,0.0,0.0,0.0,0.0,0.0,0.0,0.0,0.0,0.0,0.0,0.0,0.0,0.0,0.0,0.0,0.0,0.0,0.0,0.0,0.0,0.0,0.0,0.0,0.0,0.0,0.0,0.0,0.0,0.0,0.0,0.0,0.0,0.0,0.0,0.0,0.0,0.0,0.0,0.0,0.0,0.0,0.0,0.0,0.0,0.0,0.0,0.0,0.0,0.0,0.0,0.0,0.0,0.0,0.0,0.0,0.0,0.0,0.0,0.0,0.0,0.0,0.0,0.0,0.0,0.0,0.0,0.0,0.0,0.0,0.0,0.0,0.0,0.0,0.0,0.0,0.0,0.0,0.0,0.0,0.0,0.0,0.0,0.0,0.0,0.0,0.0,0.0,0.0,0.0,0.0,0.0,0.0,0.0,0.0,0.0,0.0,0.0,0.0,0.0,0.0,0.0,0.0,0.0,0.0,0.0,0.0,0.0,0.0,0.0,0.0,0.0,0.0,0.0,0.0,0.0,0.0,0.0,0.0,0.0,0.0,0.0,0.0,0.0,0.0,0.0,0.0,0.0,0.0,0.0,0.0,0.0,0.0,0.0,0.0,0.0,0.0,0.0,0.0,0.0,0.0,0.0,0.0,0.0,0.0,0.0,0.0,0.0,0.0,0.0,0.0,0.0,0.0,0.0,0.0,0.0,0.0,0.0,0.0,0.0,0.0,0.0,0.0,0.0,0.0,0.0,0.0,0.0,0.0,0.0,0.0,0.0,0.0,0.0,0.0,0.0,0.0,0.0,0.0,0.0,0.0,0.0,0.0,0.0,0.0,0.0,0.0,0.0,0.0,0.0,0.0,0.0,0.0,0.0,0.0,0.0,0.0,0.0,0.0,0.0,0.0,0.0,0.0,0.0,0.0,0.0,0.0,0.0,0.0,0.0,0.0,0.0,0.0,0.0,0.0,0.0,0.0,0.0,0.0,0.0,0.0,0.0,0.0,0.0,0.0,0.0,0.0,0.0,0.0,0.0,0.0,0.0,0.0,0.0,0.0,0.0,0.0,0.0,0.0,0.0,0.0,0.0,0.0,0.0,0.0,0.0,0.0,0.0,0.0,0.0,0.0,0.0,0.0,0.0,0.0,0.0,0.0,0.0,0.0,0.0,0.0,0.0,0.0,0.0,0.0,0.0,0.0,0.0,0.0,0.0,0.0,0.0,0.0,0.0,0.0,0.0,0.0,0.0,0.0,0.0,0.0,0.0,0.0,0.0,0.0,0.0,0.0,0.0,0.0,0.0,0.0,0.0,0.0,0.0,0.0,0.0,0.0,0.0,0.0,0.0,0.0,0.0,0.0,0.0,0.0,0.0,0.0,0.0,0.0,0.0,0.0,0.0,0.0,0.0,0.0,0.0,0.0,0.0,0.0,0.0,0.0,0.0,0.0,0.0,0.0,0.0,0.0,0.0,0.0,0.0,0.0,0.0,0.0,0.0,0.0,0.0,0.0,0.0,0.0,0.0,0.0,0.0,0.0,0.0,0.0,0.0,0.0,0.0,0.0,0.0,0.0,0.0,0.0,0.0,0.0,0.0,0.0,0.0,0.0,0.0,0.0,0.0,0.0,0.0,0.0,0.0,0.0,0.0,0.0,0.0,0.0,0.0,0.0,0.0,0.0,0.0,0.0,0.0,0.0,0.0,0.0,0.0,0.0,0.0,0.0,0.0,0.0,0.0,0.0,0.0,0.0,0.0,0.0,0.0,0.0,0.0,0.0,0.0,0.0,0.0,0.0,0.0,0.0,0.0,0.0,0.0,0.0,0.0,0.0,0.0,0.0,0.0,0.0,0.0,0.0,0.0,0.0,0.0,0.0,0.0,0.0,0.0,0.0,0.0,0.0,0.0,0.0,0.0,0.0,0.0,0.0,0.0,0.0,0.0,0.0,0.0,0.0,0.0,0.0,0.0,0.0,0.0,0.0,0.0,0.0,0.0,0.0,0.0,0.0,0.0,0.0,0.0,0.0,0.0,0.0,0.0,0.0,0.0,0.0,0.0,0.0,0.0,0.0,0.0,0.0,0.0,0.0,0.0,0.0,0.0,0.0,0.0,0.0,0.0,0.0,0.0,0.0,0.0,0.0,0.0,0.0,0.0,0.0,0.0,0.0,0.0,0.0,0.0,0.0,0.0,0.0,0.0,0.0,0.0,0.0,0.0,0.0,0.0,0.0,0.0,0.0,0.0,0.0,0.0,0.0,0.0,0.0,0.0,0.0,0.0,0.0,0.0,0.0,0.0,0.0,0.0,0.0,0.0,0.0,0.0,0.0,0.0,0.0,0.0,0.0,0.0,0.0,0.0,0.0,0.0,0.0,0.0,0.0,0.0,0.0,0.0,0.0,0.0,0.0,0.0,0.0,0.0,0.0,0.0,0.0,0.0,0.0,0.0,0.0,0.0,0.0,0.0,0.0,0.0,0.0,0.0,0.0,0.0,0.0,0.0,0.0,0.0,0.0,0.0,0.0,0.0,0.0,0.0,0.0,0.0,0.0,0.0,0.0,-0.9302,0.0,0.0,0.0,0.0,0.0,0.0,0.0,0.0,0.0,0.0,0.0,0.0,0.0,0.0,0.0,0.0,0.0,0.0,0.0,0.0,0.0,0.0,0.0,0.0,-0.7872,-0.7872,-0.7872,-0.7872,-0.7872,-0.7872,0.0,0.0,0.0,0.0,0.0,-0.7872,-0.7872,-0.7811,-0.7689,-0.7811,-0.7872,-0.7872,-0.7872,-0.7872,-0.7872,0.0,0.0,0.0,0.0,0.0,0.0,0.0,0.0,0.0,0.0,0.0,0.0,0.0,0.0,0.0,0.0,0.0,0.0,0.0,0.0,0.0,0.0,0.0,0.0,0.0,0.0,0.0,0.0,0.0,0.0,0.0,0.0,0.0,0.0,0.0,0.0,0.0,0.0,0.0,0.0,0.0,0.0,0.0,0.0,0.0,0.0,0.0,0.0,0.0,0.0,0.0,0.0,0.0,0.0,0.0,0.0,0.0,0.0,0.0,0.0,0.0,0.0,0.0,0.0,0.0,0.0,0.0,0.0,0.0,0.0,0.0,-0.9302,0.0,0.0,0.0,0.0,0.0,0.0,0.0,0.0,0.0,0.0,0.0,0.0,0.0,0.0,0.0,0.0,0.0,0.0,0.0,0.0,0.0,-0.7872,-0.7872,-0.7872,-0.7872,-0.7872,-0.7872,-0.7872,-0.7872,-0.7872,0.0,0.0,-0.7872,-0.7872,-0.7872,-0.7872,-0.775,-0.7505,-0.775,-0.7872,-0.7872,-0.7872,-0.7872,-0.7872,-0.7872,0.0,0.0,0.0,0.0,0.0,0.0,0.0,0.0,0.0,0.0,0.0,0.0,0.0,0.0,0.0,0.0,0.0,0.0,0.0,0.0,0.0,0.0,0.0,0.0,0.0,0.0,0.0,0.0,0.0,0.0,0.0,0.0,0.0,0.0,0.0,0.0,0.0,0.0,0.0,0.0,0.0,0.0,0.0,0.0,0.0,0.0,0.0,0.0,0.0,0.0,0.0,0.0,0.0,0.0,0.0,0.0,0.0,0.0,0.0,0.0,0.0,0.0,0.0,-0.8883,-0.8944,-0.9139,-0.9275,-0.9334,-0.9334,-0.9334,-0.9323,-0.9302,0.0,0.0,0.0,0.0,0.0,0.0,0.0,0.0,0.0,0.0,0.0,0.0,0.0,0.0,0.0,0.0,0.0,0.0,0.0,0.0,-0.7872,-0.7872,-0.7872,-0.7872,-0.7872,-0.7872,-0.7872,-0.7872,-0.7872,-0.7872,-0.7872,-0.7872,-0.7872,-0.7872,-0.7872,-0.7872,-0.7811,-0.7872,-0.7872,-0.7872,-0.7872,-0.7872,-0.7872,-0.7872,-0.7872,-0.7811,0.0,0.0,0.0,0.0,0.0,0.0,0.0,0.0,0.0,0.0,0.0,0.0,0.0,0.0,0.0,0.0,0.0,0.0,0.0,0.0,0.0,0.0,0.0,0.0,0.0,0.0,0.0,0.0,0.0,0.0,0.0,0.0,0.0,0.0,0.0,0.0,0.0,0.0,0.0,0.0,0.0,-0.859,-0.859,0.0,0.0,0.0,0.0,0.0,0.0,0.0,0.0,0.0,0.0,0.0,0.0,0.0,0.0,-0.859,-0.859,-0.8595,-0.8611,-0.884,-0.8944,-0.9144,-0.9362,-0.9465,-0.9465,-0.9465,0.0,-0.9302,-0.9302,0.0,0.0,0.0,0.0,0.0,0.0,0.0,0.0,0.0,0.0,0.0,0.0,0.0,0.0,0.0,0.0,0.0,0.0,0.0,0.0,0.0,-0.7872,-0.7872,-0.7872,-0.7872,-0.7872,-0.7872,-0.7872,-0.7872,-0.7872,-0.7872,-0.7872,-0.7872,-0.7872,-0.7872,-0.7872,-0.7689,-0.7689,-0.7872,-0.7872,-0.7872,-0.7872,-0.7872,-0.7811,-0.7627,-0.7627,0.0,0.0,0.0,0.0,0.0,0.0,0.0,0.0,0.0,0.0,0.0,0.0,0.0,0.0,0.0,0.0,0.0,0.0,0.0,0.0,0.0,0.0,0.0,0.0,0.0,0.0,0.0,0.0,0.0,0.0,0.0,0.0,0.0,0.0,0.0,0.0,0.0,0.0,0.0,-0.859,-0.859,-0.859,-0.859,-0.859,0.0,0.0,0.0,0.0,0.0,0.0,0.0,0.0,0.0,-0.859,-0.859,-0.859,-0.859,-0.8655,-0.8687,-0.8693,-0.8938,-0.9117,-0.9237,-0.941,-0.9487,-0.9487,-0.9487,-0.9416,-0.9302,-0.9302,-0.9302,-0.9302,0.0,0.0,0.0,0.0,0.0,-0.9302,0.0,0.0,0.0,0.0,0.0,0.0,0.0,0.0,0.0,0.0,0.0,0.0,-0.7872,-0.7872,-0.7872,-0.7872,-0.7872,-0.7872,-0.7872,-0.7872,-0.7872,-0.7872,-0.7872,-0.7872,-0.7872,-0.7872,-0.7872,-0.7872,-0.7627,-0.7627,-0.7872,-0.7872,-0.7872,-0.7872,-0.7872,-0.775,-0.7505,-0.7505,-0.7388,-0.7143,0.0,0.0,0.0,0.0,0.0,0.0,0.0,0.0,0.0,0.0,0.0,0.0,0.0,0.0,0.0,0.0,0.0,0.0,0.0,0.0,0.0,0.0,0.0,0.0,0.0,0.0,0.0,0.0,0.0,0.0,0.0,0.0,0.0,0.0,0.0,0.0,0.0,-0.859,-0.859,-0.859,-0.859,-0.859,0.0,0.0,0.0,0.0,0.0,0.0,-0.859,-0.859,-0.859,-0.859,-0.859,-0.8617,-0.8682,-0.8742,-0.8802,-0.8867,-0.9046,-0.9193,-0.9307,-0.9432,-0.9487,-0.9487,-0.9487,-0.9416,-0.9302,-0.9302,-0.9302,-0.9302,-0.9302,-0.9302,-0.9302,-0.9302,-0.9302,-0.9302,0.0,0.0,0.0,0.0,0.0,0.0,0.0,0.0,0.0,0.0,0.0,-0.7872,-0.7872,-0.7872,-0.7872,-0.7872,-0.7872,-0.7872,-0.7872,-0.7872,-0.7872,-0.7872,-0.7872,-0.7872,-0.7872,-0.7872,-0.7872,-0.7872,-0.7872,-0.7872,-0.7872,-0.7872,-0.7872,-0.7872,-0.7872,-0.7872,-0.7872,-0.7872,-0.7872,-0.7811,-0.7143,0.0,0.0,0.0,0.0,0.0,0.0,0.0,0.0,0.0,0.0,0.0,0.0,0.0,0.0,0.0,0.0,0.0,0.0,0.0,0.0,0.0,0.0,0.0,0.0,0.0,0.0,0.0,0.0,0.0,0.0,0.0,0.0,0.0,0.0,0.0,0.0,0.0,0.0,-0.859,-0.859,0.0,0.0,0.0,0.0,-0.859,-0.859,-0.859,-0.859,-0.859,-0.859,-0.859,-0.859,-0.8698,-0.8863,-0.8823,-0.8889,-0.9117,-0.9128,-0.9193,-0.9307,-0.9432,-0.9487,-0.9487,-0.9487,-0.9416,-0.9302,-0.9302,-0.9302,-0.9302,-0.9302,-0.9302,-0.9302,-0.9302,-0.9302,-0.9302,0.0,0.0,0.0,0.0,0.0,-0.7872,-0.7872,-0.7872,-0.7872,-0.7872,-0.7872,-0.7872,-0.7872,-0.7872,-0.7872,-0.7872,-0.7872,-0.7872,-0.7872,-0.7872,-0.7872,-0.7872,-0.7872,-0.7872,-0.7872,-0.7872,-0.7872,-0.7872,-0.7872,-0.7872,-0.7872,-0.7872,-0.7872,-0.7872,-0.7872,-0.7872,-0.7872,-0.7872,-0.775,-0.7566,-0.7327,-0.7082,0.0,0.0,0.0,0.0,0.0,0.0,0.0,0.0,0.0,0.0,0.0,0.0,0.0,0.0,0.0,0.0,0.0,0.0,0.0,0.0,0.0,0.0,0.0,0.0,0.0,0.0,0.0,0.0,0.0,0.0,0.0,0.0,0.0,0.0,0.0,0.0,0.0,-0.859,-0.859,0.0,-0.859,-0.859,-0.859,-0.859,-0.859,-0.859,-0.859,-0.859,-0.8622,-0.8704,-0.8704,-0.8785,-0.8879,-0.8986,-0.9052,-0.9133,-0.9209,-0.9307,-0.9421,-0.9465,-0.9487,-0.9487,-0.9487,-0.9416,-0.9302,-0.9302,-0.9302,-0.9302,-0.9302,-0.9302,-0.9302,-0.9302,-0.9302,-0.9302,0.0,0.0,0.0,0.0,-0.7872,-0.7872,-0.7872,-0.7872,-0.7872,-0.7872,-0.7872,-0.7872,-0.7872,-0.7872,-0.7872,-0.7872,-0.7872,-0.7872,-0.7872,-0.7872,-0.7872,-0.7872,-0.7872,-0.7872,-0.7872,-0.7872,-0.7872,-0.7872,-0.7872,-0.7872,-0.7872,-0.7872,-0.7872,-0.7872,-0.7872,-0.7811,-0.775,-0.775,-0.7627,-0.7388,-0.7138,-0.6959,-0.6723,0.0,0.0,0.0,0.0,0.0,0.0,0.0,0.0,0.0,0.0,0.0,0.0,0.0,0.0,0.0,0.0,0.0,0.0,0.0,0.0,0.0,0.0,0.0,0.0,0.0,0.0,0.0,0.0,0.0,0.0,0.0,0.0,0.0,0.0,0.0,-0.859,-0.859,-0.859,-0.859,-0.859,-0.859,-0.859,-0.859,-0.8628,-0.8649,-0.8649,-0.8687,-0.8747,-0.8829,-0.8834,-0.891,-0.9068,-0.9111,-0.9171,-0.9253,-0.9285,-0.9345,-0.9427,-0.9427,-0.9427,-0.9427,-0.9427,-0.9378,-0.9302,-0.9302,-0.923,-0.9085,-0.923,-0.9302,-0.9302,-0.9302,-0.9302,-0.9302,0.0,0.0,0.0,-0.7872,-0.7872,-0.7872,-0.7872,-0.7872,-0.7872,-0.7872,-0.7872,-0.7872,-0.7872,-0.7872,-0.7872,-0.7872,-0.7872,-0.7872,-0.7872,-0.7872,-0.7872,-0.7872,-0.7872,-0.7872,-0.7872,-0.7872,-0.7872,-0.7872,-0.7872,-0.7872,-0.7872,-0.7872,-0.7872,-0.7872,-0.7872,-0.7689,-0.7388,-0.7388,-0.7383,-0.7327,-0.6648,-0.6403,-0.6342,0.0,0.0,0.0,0.0,0.0,0.0,0.0,0.0,0.0,0.0,0.0,0.0,0.0,0.0,0.0,0.0,0.0,0.0,0.0,0.0,0.0,0.0,0.0,0.0,0.0,0.0,0.0,0.0,0.0,0.0,0.0,0.0,0.0,-0.859,-0.859,-0.859,-0.859,-0.859,-0.859,-0.859,-0.859,-0.8595,-0.8595,-0.8709,-0.8774,-0.8774,-0.8889,-0.8884,-0.889,-0.889,-0.8998,-0.9302,-0.9193,-0.9253,-0.9481,-0.9362,-0.9302,-0.9302,-0.9302,-0.9302,-0.9302,-0.9302,-0.9302,-0.9302,-0.9302,-0.909,-0.8729,-0.9163,-0.9302,-0.923,-0.923,-0.923,-0.9235,0.0,0.0,-0.7872,-0.7872,-0.7872,-0.7872,-0.7872,-0.7872,-0.7872,-0.7872,-0.7872,-0.7872,-0.7872,-0.7872,-0.7872,-0.7872,-0.7872,-0.7872,-0.7872,-0.7872,-0.7872,-0.7872,-0.7872,-0.7872,-0.7872,-0.7872,-0.7872,-0.7872,-0.7872,-0.7872,-0.7872,-0.7872,-0.775,-0.7505,-0.7505,-0.7327,-0.7021,-0.6771,-0.6648,-0.6648,-0.6464,-0.628,-0.6039,0.0,0.0,0.0,0.0,0.0,0.0,0.0,0.0,0.0,0.0,0.0,0.0,0.0,0.0,0.0,0.0,0.0,0.0,0.0,0.0,0.0,0.0,0.0,0.0,0.0,0.0,0.0,0.0,0.0,0.0,0.0,0.0,-0.859,-0.859,-0.859,-0.859,-0.859,-0.859,-0.859,-0.859,-0.8666,-0.872,-0.872,-0.8834,-0.8899,-0.8899,-0.8863,-0.8922,-0.9008,-0.9014,-0.9155,-0.9302,-0.9275,-0.9291,-0.9351,-0.9318,-0.9302,-0.9302,-0.9302,-0.9302,-0.9302,-0.9302,-0.9302,-0.9302,-0.9302,-0.923,-0.9085,-0.8946,-0.8657,-0.844,-0.844,-0.844,-0.844,0.0,-0.7872,-0.7872,-0.7872,-0.7872,-0.7872,-0.7872,-0.7872,-0.7872,-0.7872,-0.7872,-0.7872,-0.7872,-0.7872,-0.7872,-0.7872,-0.7872,-0.7872,-0.7872,-0.7872,-0.7872,-0.7872,-0.7872,-0.7872,-0.7872,-0.7872,-0.7872,-0.7872,-0.7975,-0.8024,-0.8024,-0.7938,-0.7511,-0.6706,-0.6517,-0.593,-0.5015,-0.5419,-0.5156,-0.4595,-0.574,-0.6101,-0.5916,-0.5916,-0.5916,-0.5941,-0.6117,-0.6215,-0.63,-0.6578,0.0,0.0,0.0,0.0,0.0,0.0,0.0,0.0,0.0,0.0,0.0,0.0,0.0,0.0,0.0,0.0,0.0,0.0,0.0,0.0,0.0,0.0,0.0,0.0,-0.859,-0.859,-0.859,-0.859,-0.859,-0.859,-0.8633,-0.8666,-0.8666,-0.8774,-0.8845,-0.8845,-0.8959,-0.896,-0.896,-0.9003,-0.9155,-0.928,-0.928,-0.934,-0.9454,-0.9459,-0.9459,-0.9459,-0.9459,-0.9459,-0.9459,-0.9459,-0.9459,0.0,-0.94,-0.9378,-0.9378,-0.9323,-0.9235,0.0,0.0,0.0,0.0,0.0,-0.8512,-0.8377,0.0,-0.7872,-0.7872,-0.7872,-0.7872,-0.7872,-0.7872,-0.7872,-0.7872,-0.7872,-0.7872,-0.7872,-0.7872,-0.7872,-0.7872,-0.7872,-0.7872,-0.7872,-0.7872,-0.7872,-0.7872,-0.7872,-0.7872,-0.7872,-0.7872,-0.7899,-0.791,-0.791,-0.8144,-0.8194,-0.8194,-0.8065,-0.7162,-0.5631,-0.5243,-0.4101,-0.2441,-0.3617,-0.3278,-0.2138,-0.4468,-0.5556,-0.5671,-0.5855,-0.5916,-0.5941,-0.6117,-0.6182,-0.6223,-0.6496,0.0,0.0,0.0,0.0,0.0,0.0,0.0,0.0,0.0,0.0,0.0,0.0,0.0,0.0,0.0,0.0,0.0,0.0,0.0,0.0,0.0,0.0,0.0,0.0,-0.859,-0.859,-0.859,-0.86,-0.8606,-0.8606,-0.8704,-0.8774,-0.8791,-0.8899,-0.89,-0.89,-0.9014,-0.916,-0.9171,0.0,0.0,0.0,0.0,-0.9557,-0.9666,-0.9671,-0.9671,-0.9671,-0.9671,-0.9671,-0.9671,-0.9671,-0.9671,-0.9666,-0.9552,-0.9508,-0.9497,-0.9389,-0.9128,-0.8837,-0.9101,-0.9157,-0.9157,-0.9157,-0.8946,0.0,0.0,-0.7872,-0.7872,-0.7872,-0.7872,-0.7872,-0.7872,-0.7872,-0.7872,-0.7872,-0.7872,-0.7872,-0.7872,-0.7872,-0.7872,-0.7872,-0.7872,-0.7872,-0.7872,-0.7872,-0.7872,-0.7872,-0.7872,-0.7872,-0.7872,-0.8062,-0.8166,-0.8166,-0.8312,-0.8383,-0.8383,-0.8199,-0.7121,-0.5229,-0.5165,-0.3935,-0.1996,-0.2245,-0.2164,-0.1951,-0.2447,-0.3298,-0.4432,-0.5483,-0.5916,-0.5941,-0.6117,-0.6182,-0.6223,-0.6496,-0.6639,-0.6774,-0.7065,-0.72,0.0,0.0,0.0,0.0,0.0,0.0,0.0,0.0,0.0,0.0,0.0,0.0,0.0,0.0,0.0,0.0,0.0,0.0,0.0,-0.859,-0.859,-0.859,-0.859,-0.8671,-0.8736,-0.8736,-0.8758,-0.8807,-0.8905,-0.896,-0.903,-0.903,-0.9204,-0.9313,-0.9416,-0.9438,0.0,-0.9628,-0.9633,-0.9644,-0.9671,-0.9671,-0.9671,-0.9671,0.0,0.0,-0.9671,-0.9671,-0.9671,-0.9666,-0.9644,-0.9633,-0.9633,-0.9612,-0.9601,-0.943,-0.8654,-0.8367,-0.8367,-0.8367,-0.8295,-0.8155,0.0,-0.7977,-0.7872,-0.7872,-0.7872,-0.7872,-0.7872,-0.7872,-0.7872,-0.7872,-0.7872,-0.7872,-0.7872,-0.7872,-0.7872,-0.7872,-0.7872,-0.7872,-0.7872,-0.7872,-0.7872,-0.7872,-0.7872,-0.7926,-0.8051,-0.8171,-0.8263,-0.8329,-0.8508,-0.8562,-0.8503,-0.8368,-0.6818,-0.4248,-0.4052,-0.2448,0.0132,-0.0588,-0.0521,0.0,-0.1334,-0.1889,-0.2138,-0.4147,-0.495,-0.5122,-0.5938,-0.621,-0.6276,-0.646,-0.6615,-0.6725,-0.6934,-0.7004,-0.6996,0.0,0.0,0.0,0.0,0.0,0.0,0.0,0.0,0.0,0.0,0.0,0.0,0.0,0.0,-0.859,-0.859,0.0,-0.859,-0.859,-0.859,-0.8606,-0.8671,-0.8731,-0.8769,-0.8769,-0.8878,-0.8976,-0.8965,-0.915,-0.922,-0.922,-0.9329,-0.9421,-0.9487,-0.9546,-0.9633,-0.9748,-0.9753,-0.9786,-0.9845,-0.9845,-0.9845,-0.9845,-0.9845,-0.9845,-0.9845,-0.9845,-0.9845,-0.984,-0.978,-0.9753,-0.9748,-0.9693,-0.9671,-0.9655,-0.8869,-0.8499,-0.8518,-0.8459,-0.8295,-0.8087,0.0,-0.8008,-0.7926,-0.7877,-0.7872,-0.7872,-0.7872,-0.7872,-0.7872,-0.7872,-0.7872,-0.7872,-0.7872,-0.7872,-0.7872,-0.7872,-0.7872,-0.7872,-0.7872,-0.7872,-0.7872,-0.7872,-0.7955,-0.8008,-0.8167,-0.8301,-0.8388,-0.8486,-0.8698,-0.8606,-0.822,-0.805,-0.6206,-0.2934,-0.2593,-0.0747,0.2153,0.0996,0.1131,0.2013,-0.0258,-0.0448,0.0194,-0.2196,-0.3371,-0.3849,-0.4945,-0.5602,-0.5935,-0.6023,-0.6357,-0.67,-0.6791,-0.6782,-0.677,-0.6791,-0.6735,0.0,0.0,0.0,0.0,0.0,0.0,0.0,0.0,0.0,-0.8123,-0.8189,-0.839,-0.859,-0.859,-0.859,-0.859,-0.859,-0.8606,-0.866,-0.8758,-0.8812,-0.884,-0.884,-0.9014,-0.9144,-0.9166,-0.9253,-0.9302,-0.9302,-0.9416,-0.9497,-0.9519,-0.9639,-0.9753,-0.9867,-0.9873,-0.9921,-1.0019,-1.0019,-1.0019,-1.0019,-1.0019,-1.0019,-1.0019,-1.0019,-1.0019,-1.0014,-0.9916,-0.9873,-0.9867,-0.9726,-0.9699,-0.9623,-0.9167,-0.8885,-0.8785,-0.8705,-0.8431,-0.8148,0.0,-0.8204,-0.8127,-0.791,-0.7872,-0.7872,-0.7872,-0.7872,-0.7872,-0.7872,-0.7872,-0.7872,-0.7872,-0.7872,-0.7872,-0.7872,-0.7872,-0.7872,-0.7872,-0.7872,-0.7872,-0.7872,-0.8037,-0.8095,-0.8167,-0.8546,-0.8715,-0.8731,-0.8867,-0.8178,-0.6834,-0.6707,-0.4714,-0.1346,-0.128,0.0,0.2221,0.2017,0.2084,0.2151,0.1783,0.1773,0.1706,0.0194,-0.1082,-0.2148,-0.2404,-0.3284,-0.4415,-0.4548,-0.5434,-0.6687,-0.7118,-0.7152,-0.7099,-0.7187,-0.7073,-0.6853,-0.6585,-0.6719,-0.7054,-0.7393,-0.7526,-0.766,0.0,0.0,-0.8189,-0.8456,-0.859,-0.859,-0.859,-0.859,-0.859,-0.859,-0.8677,-0.8753,-0.8769,-0.8959,-0.9095,-0.9095,-0.9117,-0.9171,-0.9275,-0.9296,-0.9302,-0.9302,-0.9416,-0.9536,-0.9644,-0.9758,-0.9873,-0.9998,-0.9998,-1.0008,-1.0019,-1.0019,-1.0019,-1.0019,-1.0019,-1.0019,-1.0019,-1.0019,-1.0019,-1.0019,-1.0008,-0.9998,-0.9931,-0.9635,-0.9514,-0.9514,-0.9041,-0.8716,-0.8355,-0.8379,-0.8426,-0.8351,0.0,0.0,-0.8285,-0.8111,-0.8084,-0.8084,-0.8084,-0.8024,-0.8037,-0.8037,-0.7977,-0.7872,-0.7872,-0.7872,-0.7872,-0.7872,-0.7872,-0.7872,-0.7872,-0.7872,-0.7872,-0.7872,-0.7982,-0.804,-0.8167,-0.8454,-0.8633,-0.8769,-0.8894,-0.8124,-0.6578,-0.6541,-0.4667,-0.1411,-0.1209,0.0,0.1885,0.2087,0.2232,0.2177,0.2129,0.212,0.2066,0.151,0.039,-0.1035,-0.2684,-0.4232,0.0,-0.5566,-0.6039,-0.6667,-0.6842,-0.6855,-0.6787,-0.6825,-0.6745,-0.6651,-0.6973,-0.7321,-0.7722,-0.8056,-0.8123,-0.8189,-0.8523,-0.8523,-0.8456,-0.859,-0.859,-0.859,-0.859,-0.859,-0.8611,0.0,-0.8736,-0.8818,-0.8965,-0.9068,-0.916,-0.9226,-0.9231,-0.9253,-0.9302,-0.9302,-0.9334,-0.9405,-0.9525,-0.9644,-0.9758,-0.9878,-0.9965,-1.0019,-1.0019,-1.0019,-1.0019,-1.0019,-1.0019,-1.0019,-1.0019,-1.0019,-1.0019,-1.0019,-1.0019,-1.0019,-0.9786,-0.963,-0.9636,-0.9218,-0.912,-0.9094,-0.8697,-0.8491,-0.8353,-0.8274,-0.8107,-0.7872,0.0,0.0,0.0,-0.835,-0.8334,-0.8312,-0.8183,-0.816,-0.8106,-0.8106,-0.8024,-0.7959,-0.7988,-0.7982,-0.7971,-0.7872,-0.7872,-0.7872,-0.7872,-0.7872,-0.7872,-0.7872,-0.7966,-0.8019,-0.8167,-0.8356,-0.8503,-0.8671,-0.8764,-0.799,-0.6468,-0.6492,-0.4986,-0.2136,-0.187,-0.1004,0.0336,0.0736,0.1149,0.1439,0.107,0.1203,0.1554,0.1132,0.0066,-0.1323,-0.258,-0.4262,-0.5915,-0.5915,-0.6227,-0.6558,-0.6582,-0.6509,-0.6423,-0.6514,-0.6456,-0.6596,-0.7261,-0.7769,-0.8189,-0.839,-0.8523,-0.859,-0.859,-0.859,-0.859,-0.859,-0.859,-0.859,-0.859,-0.859,-0.8628,-0.8753,-0.8796,-0.8894,-0.9106,-0.916,-0.9209,-0.9296,-0.9302,-0.9302,-0.9302,-0.9302,-0.9356,-0.9476,-0.9601,-0.972,-0.9829,-0.9954,-1.0019,-1.0019,-1.0019,-1.0019,-1.0019,-1.0019,-1.0019,-1.0019,-1.0019,-1.0019,-1.0019,-1.0019,-1.0019,-0.9942,-0.9553,-0.9402,-0.9324,-0.8885,-0.8725,-0.8744,-0.8366,-0.7948,-0.7522,-0.7401,-0.7164,-0.6806,0.0,0.0,0.0,0.0,-0.8579,-0.8503,-0.8269,-0.8167,-0.8167,-0.8167,-0.8161,-0.8182,-0.8125,-0.8108,-0.8065,-0.7883,-0.7872,-0.7872,-0.7872,-0.7872,-0.7872,-0.7872,-0.8048,-0.8106,-0.8167,-0.8356,-0.8421,-0.8432,-0.8432,-0.7647,-0.6118,-0.6272,-0.5326,-0.3548,-0.3551,-0.338,-0.3015,-0.2578,-0.1603,-0.0479,-0.1551,-0.115,-0.0068,-0.1484,-0.2885,-0.3828,-0.1074,-0.1947,-0.4367,-0.4367,-0.5312,-0.6539,-0.6562,-0.6468,-0.6337,-0.6494,-0.6655,-0.6915,-0.7238,-0.771,-0.8123,-0.8123,-0.839,-0.859,-0.859,-0.859,-0.859,-0.859,-0.859,-0.859,-0.859,-0.859,-0.8628,-0.8753,-0.8867,-0.8922,-0.9117,-0.9231,-0.9302,-0.9302,-0.9302,-0.9302,0.0,-0.9302,-0.9356,-0.9476,-0.9601,-0.972,-0.9829,-0.9954,-1.0019,-1.0019,-1.0019,-1.0019,-1.0019,-1.0019,-1.0019,-1.0019,-1.0019,-1.0019,-1.0019,-1.0019,-1.0019,-0.9942,-0.9553,-0.9402,-0.9329,-0.8646,-0.8349,-0.8365,-0.8057,-0.6894,-0.5449,-0.5446,-0.5369,-0.5191,0.0,0.0,0.0,0.0,0.0,-0.8562,-0.8481,-0.8405,-0.8356,-0.8356,-0.8356,0.0,0.0,0.0,0.0,0.0,-0.8236,-0.8198,-0.8117,-0.8035,-0.8054,-0.8054,-0.8015,-0.7954,-0.7992,-0.8111,-0.8214,-0.8296,-0.8378,-0.7711,-0.6283,-0.6316,-0.5527,-0.4062,-0.3863,-0.3673,-0.3553,-0.2937,-0.2345,-0.1959,-0.2084,-0.1818,-0.1419,-0.195,-0.3021,-0.4166,0.0,-0.4099,-0.5781,-0.5781,-0.6116,-0.6527,-0.6555,-0.6572,-0.661,-0.6768,-0.7103,-0.7468,-0.7672,-0.8035,-0.8456,-0.8456,-0.8523,-0.859,-0.859,-0.859,-0.859,-0.859,-0.859,-0.859,-0.859,-0.859,-0.8655,-0.8856,-0.8857,-0.8949,-0.922,-0.928,-0.9302,-0.9302,-0.9302,0.0,0.0,0.0,0.0,-0.9601,-0.9715,-0.9835,-0.9954,-0.9998,-1.0019,-1.0019,-1.0019,-1.0019,-1.0019,-1.0019,-1.0019,-1.0019,-1.0019,-1.0019,-1.0019,-1.0019,-0.9864,-0.9553,-0.7985,-0.7201,-0.6733,-0.5111,-0.4522,-0.4578,-0.439,-0.4028,-0.3572,-0.3597,-0.284,-0.191,0.0,0.0,0.0,0.0,0.0,0.0,0.0,0.0,0.0,0.0,0.0,0.0,0.0,0.0,0.0,0.0,0.0,-0.8383,-0.8307,-0.8187,-0.8117,-0.8117,-0.8046,-0.8002,-0.8002,-0.8079,-0.8155,-0.8172,-0.8312,-0.7867,-0.7074,-0.711,-0.666,-0.5727,-0.5524,-0.5471,-0.5496,-0.4672,-0.4075,-0.3689,-0.3691,-0.3356,-0.2954,-0.349,-0.423,0.0,-0.5108,-0.5714,-0.6522,-0.6522,-0.6522,-0.6522,-0.6522,-0.6592,-0.6746,-0.7084,-0.7438,-0.774,-0.7987,-0.8365,-0.859,-0.859,-0.859,-0.859,-0.859,-0.859,-0.859,-0.859,-0.859,-0.859,-0.859,-0.859,-0.8666,-0.8841,-0.8884,-0.8965,-0.9269,-0.9302,-0.9302,-0.9302,-0.9302,-0.9351,0.0,0.0,0.0,-0.972,-0.9796,-0.9889,-1.0014,-1.0019,-1.0019,-1.0019,-1.0019,-1.0019,-1.0019,-1.0019,-1.0019,-1.0019,-1.0019,-0.9942,-0.9786,-0.9158,-0.8691,-0.8145,-0.6105,-0.5008,-0.4618,-0.3133,-0.2525,-0.2635,-0.2574,-0.228,-0.1734,-0.1747,-0.0586,0.0672,0.0,0.0,0.0,0.0,0.0,0.0,0.0,0.0,0.0,0.0,0.0,0.0,0.0,0.0,0.0,0.0,0.0,0.0,-0.8426,-0.8312,-0.8183,-0.8183,-0.8172,-0.8172,-0.8172,-0.8172,-0.8172,-0.8172,-0.8172,-0.8172,-0.8183,-0.8361,-0.8421,-0.8426,-0.8361,-0.8486,-0.8512,-0.768,-0.6564,-0.5566,-0.6246,-0.5647,-0.4568,-0.5982,-0.6522,-0.6522,-0.6522,-0.6522,-0.6522,-0.6522,-0.6522,-0.6518,-0.6581,-0.6657,-0.6878,-0.7471,-0.7706,-0.7814,-0.8253,-0.8503,-0.859,-0.859,-0.859,-0.859,-0.859,-0.859,-0.859,-0.859,-0.859,-0.859,0.0,0.0,-0.8666,-0.8841,-0.8884,-0.8965,-0.9269,-0.9302,-0.9307,0.0,0.0,0.0,0.0,0.0,0.0,-0.984,0.0,-0.99,-1.0014,-1.0019,-1.0019,-1.0019,-1.0019,-1.0019,-1.0019,-1.0019,-0.9942,-0.9864,-0.9864,-0.963,-0.9085,-0.7513,-0.6573,-0.603,-0.3914,-0.2974,-0.2897,-0.2429,-0.2288,-0.2312,-0.2313,-0.1294,0.0165,0.0165,0.1248,0.2438,0.0,0.0,0.0,0.0,0.0,0.0,0.0,0.0,0.0,0.0,0.0,0.0,0.0,0.0,0.0,0.0,0.0,0.0,-0.8557,-0.8437,-0.8372,-0.8372,-0.8285,-0.8172,-0.8172,-0.8172,-0.8172,-0.8172,-0.8172,-0.828,-0.8372,-0.8405,-0.8465,-0.8546,-0.8281,-0.8163,-0.8189,-0.7426,-0.6894,-0.6581,-0.6518,-0.625,-0.5982,-0.6384,-0.6522,-0.6522,-0.6522,-0.6522,-0.6522,-0.6522,-0.6652,-0.6973,-0.7426,-0.7566,-0.7627,-0.797,-0.8146,-0.8247,-0.8345,-0.8503,-0.859,-0.859,-0.859,-0.859,-0.859,-0.859,-0.859,-0.859,-0.859,-0.859,0.0,0.0,0.0,-0.8841,-0.8884,0.0,-0.9269,-0.9302,0.0,-0.9427,0.0,-0.9519,-0.9726,-0.9775,0.0,0.0,-0.9976,-0.9987,-1.0019,-1.0019,-1.0019,-1.0019,-1.0019,-1.0019,-1.0019,-1.0019,-0.9392,-0.8141,-0.8141,-0.7279,-0.5636,-0.5245,-0.4618,-0.3836,-0.2036,-0.1096,-0.0705,0.0706,0.118,0.1184,0.1274,0.1524,0.194,0.1972,0.2237,0.2578,0.0,0.0,0.0,0.0,0.0,0.0,0.0,0.0,0.0,0.0,0.0,0.0,0.0,0.0,0.0,0.0,0.0,0.0,0.0,-0.8557,-0.8492,-0.8492,-0.8426,-0.8388,-0.8388,-0.8388,-0.8063,-0.7406,-0.7406,-0.744,-0.7497,-0.7497,-0.7928,-0.859,-0.8256,-0.8123,-0.8056,-0.7321,-0.6982,0.0,0.0,-0.6522,-0.6522,-0.6522,-0.6522,-0.6522,-0.6522,-0.6585,-0.6719,-0.6857,-0.7054,-0.7303,-0.7726,-0.7888,-0.7938,-0.8205,-0.8367,-0.8432,-0.8481,-0.8541,-0.859,-0.859,-0.859,-0.859,-0.859,-0.859,-0.859,-0.859,-0.859,-0.859,-0.859,-0.859,-0.8666,0.0,0.0,0.0,-0.9269,-0.9302,-0.9351,0.0,-0.9487,0.0,-0.9813,-0.9835,-0.9889,0.0,-1.0019,-1.0019,-1.0019,-1.0019,-1.0019,-1.0019,-1.0074,-1.0128,-1.0182,-0.9381,-0.8511,-0.7556,-0.6597,-0.539,-0.4104,-0.3157,-0.2361,-0.1645,0.0,0.0863,0.1177,0.212,0.2514,0.2517,0.2533,0.2548,0.2563,0.2597,0.2626,0.2566,0.0,0.0,0.0,0.0,0.0,0.0,0.0,0.0,0.0,0.0,-0.9242,-0.9296,0.0,0.0,0.0,0.0,0.0,0.0,0.0,0.0,-0.859,-0.859,-0.8384,-0.8384,-0.859,-0.8251,-0.7512,-0.6376,-0.6243,-0.6243,-0.6376,-0.6376,-0.7178,-0.859,-0.8256,-0.8123,-0.8056,-0.7321,-0.6982,-0.6987,-0.6652,-0.6522,-0.6522,0.0,-0.6522,-0.6522,-0.6522,-0.6719,-0.7054,-0.7393,-0.7526,-0.7641,-0.7873,-0.7974,-0.8039,-0.8372,-0.8443,-0.8459,-0.8562,-0.859,-0.859,-0.859,-0.859,-0.859,-0.859,-0.859,-0.859,-0.859,-0.859,-0.859,-0.859,-0.859,-0.8666,-0.8841,0.0,-0.8965,-0.9269,-0.9318,-0.9372,-0.9497,-0.9525,-0.9622,-0.984,-0.9862,-0.9905,-1.0014,-1.0019,-1.0019,-1.0019,-1.0019,-1.0025,-1.0047,-1.0166,-1.0195,-1.0061,-0.8518,-0.7463,-0.6893,-0.4945,-0.3628,-0.2957,-0.1119,0.0,0.0394,0.0,0.0,0.2526,0.253,0.2532,0.2533,0.2536,0.2555,0.2578,0.2582,0.2616,0.2577,0.0,0.0,0.0,0.0,0.0,0.0,0.0,0.0,0.0,0.0,-0.9291,-0.9269,0.0,0.0,0.0,0.0,0.0,0.0,0.0,0.0,0.0,-0.859,-0.7445,-0.7379,-0.8584,-0.6235,-0.5499,-0.6376,-0.5235,-0.5232,-0.6376,-0.6376,-0.7178,-0.859,-0.8256,-0.8123,-0.8056,-0.7321,-0.6982,-0.6987,-0.6652,-0.6522,-0.6522,-0.6522,0.0,0.0,-0.6522,-0.6719,-0.7054,-0.7393,-0.7727,-0.8056,-0.8363,-0.8491,-0.8491,-0.8557,-0.8557,-0.8562,-0.8584,-0.859,-0.859,-0.859,-0.859,-0.859,-0.859,-0.859,0.0,-0.859,-0.859,-0.859,-0.859,-0.859,-0.8666,-0.8841,-0.8884,-0.8965,-0.9269,-0.9389,-0.9503,0.0,-0.972,-0.9829,-0.9976,-0.9987,0.0,0.0,0.0,-1.0019,-1.0019,-1.0019,-1.0068,-1.0166,-1.0291,-0.9632,-0.819,-0.7867,-0.6081,-0.284,-0.2435,-0.1136,0.0973,0.1378,0.1782,0.2181,0.0,0.0,0.2589,0.2613,0.2624,0.2627,0.2652,0.2665,0.2672,0.2698,0.2713,0.2725,0.0,0.0,0.0,0.0,0.0,0.0,0.0,-0.9269,-0.9302,-0.9302,-0.9253,-0.9193,-0.9139,-0.9019,-0.8899,0.0,0.0,0.0,0.0,0.0,0.0,0.0,-0.6105,-0.5633,-0.6372,-0.5031,-0.4227,-0.4163,0.0,-0.3892,-0.5299,-0.5101,-0.6309,-0.8584,-0.8056,-0.7922,-0.8056,-0.7321,-0.6982,-0.6987,-0.6652,-0.6522,-0.6522,0.0,0.0,0.0,-0.6522,-0.6719,-0.7054,-0.7187,-0.7588,-0.8189,-0.8523,-0.859,-0.859,-0.859,-0.859,-0.859,-0.859,-0.859,-0.859,-0.859,-0.859,-0.859,-0.859,0.0,0.0,-0.859,-0.859,-0.859,-0.859,-0.859,0.0,-0.8841,-0.8884,-0.8965,-0.9269,-0.9356,-0.9459,-0.965,-0.9715,-0.9818,0.0,-1.0019,0.0,0.0,0.0,-1.0019,-1.0019,-1.0079,-0.9798,-0.8998,-0.9054,-0.8285,-0.6522,-0.5366,-0.3799,-0.1901,-0.0496,0.0824,0.197,0.223,0.2476,0.2626,0.2642,0.0,0.265,0.2664,0.2671,0.2672,0.2687,0.2692,0.2694,0.2709,0.2724,0.274,0.0,0.0,0.0,0.0,0.0,0.0,-0.9285,-0.9302,-0.9147,-0.8832,-0.8662,-0.8515,-0.8137,-0.8538,-0.869,0.0,0.0,0.0,0.0,0.0,0.0,0.0,0.0,0.0,0.0,0.0,0.0,-0.2017,-0.2017,0.0,0.0,0.0,0.0,0.0,-0.7455,-0.7388,-0.7922,-0.7254,-0.6982,0.0,0.0,-0.6531,0.0,0.0,0.0,0.0,0.0,-0.6652,-0.692,-0.6982,-0.7455,-0.8056,-0.839,-0.8523,-0.859,-0.859,-0.859,-0.859,-0.859,-0.859,-0.859,-0.859,-0.859,-0.859,-0.859,-0.859,-0.859,-0.859,-0.859,-0.859,-0.859,-0.8606,-0.8698,0.0,-0.8906,-0.8992,-0.9275,-0.9329,-0.9427,0.0,-0.9693,0.0,-0.9998,0.0,0.0,0.0,0.0,0.0,-1.0057,-0.9803,-0.9149,-0.7909,-0.7436,-0.64,-0.47,-0.2771,-0.1596,-0.1092,0.1011,0.21,0.2167,0.2529,0.2699,0.2677,0.2702,0.0,0.0,0.2718,0.2721,0.2722,0.2729,0.2731,0.2731,0.2731,0.2747,0.2767,0.0,0.0,0.0,0.0,0.0,0.0,-0.9285,-0.9302,-0.8832,-0.7367,-0.713,-0.648,-0.5096,-0.7274,-0.8178,0.0,0.0,0.0,0.0,0.0,0.0,0.0,0.0,0.0,0.0,0.0,0.0,-0.1614,-0.1614,0.0,0.0,0.0,0.0,0.0,0.0,0.0,-0.7526,-0.7187,0.0,0.0,0.0,0.0,0.0,0.0,0.0,0.0,0.0,-0.6522,-0.6585,-0.692,-0.7254,-0.7593,-0.7989,-0.8323,-0.859,-0.859,0.0,0.0,-0.859,-0.859,-0.859,-0.859,-0.859,-0.859,-0.859,0.0,-0.859,-0.859,-0.859,-0.859,-0.859,-0.8677,-0.8796,-0.8863,-0.8976,-0.916,-0.9285,-0.94,-0.9519,-0.9655,0.0,0.0,-1.0008,0.0,0.0,0.0,0.0,0.0,0.0,-0.8855,-0.8061,-0.7913,-0.5998,-0.4107,-0.2352,-0.168,-0.0336,0.1598,0.1955,0.2305,0.2645,0.2761,0.2773,0.2772,0.0,0.0,0.0,0.2804,0.2816,0.2819,0.2846,0.2857,0.2857,0.2857,0.2859,0.2861,0.0,0.0,0.0,0.0,0.0,0.0,-0.6684,-0.6501,-0.6312,-0.5709,-0.5527,-0.4824,-0.3362,-0.4898,-0.5803,-0.5168,0.0,0.0,0.0,0.0,0.0,0.0,0.0,0.0,0.0,0.0,-0.0135,-0.0336,-0.121,0.0,0.0,0.0,0.0,0.0,0.0,0.0,0.0,-0.7121,0.0,0.0,0.0,0.0,0.0,0.0,0.0,0.0,0.0,0.0,-0.6597,-0.6673,-0.7054,-0.7526,-0.7455,-0.7989,-0.859,-0.859,-0.859,-0.859,-0.859,-0.859,-0.859,-0.859,-0.859,-0.8523,-0.8323,0.0,-0.8523,-0.8323,-0.8456,-0.8611,-0.8682,-0.8736,-0.8834,-0.903,-0.903,-0.9171,-0.9291,-0.9345,-0.9449,-0.9644,-0.9709,0.0,0.0,0.0,0.0,0.0,0.0,0.0,0.0,-0.7631,-0.6948,-0.4833,-0.3685,-0.2183,-0.0421,0.0336,0.1181,0.204,0.2305,0.2575,0.2766,0.2797,0.2811,0.2811,0.0,0.0,0.0,0.2851,0.2856,0.2857,0.287,0.2874,0.2874,0.2874,0.2874,0.2874,0.0,0.0,0.0,0.0,0.0,-0.5956,-0.4849,-0.4666,-0.4553,-0.4024,-0.3885,-0.3285,-0.1775,-0.2432,-0.3021,-0.3021,-0.3423,0.0,0.0,0.0,0.0,0.0,0.0,0.0,0.0,0.0,0.0404,0.0808,-0.0605,-0.1613,0.0,0.0,0.0,0.0,0.0,0.0,0.0,0.0,0.0,0.0,0.0,0.0,0.0,0.0,0.0,0.0,0.0,0.0,0.0,0.0,0.0,-0.7363,-0.7196,-0.7655,-0.8323,-0.839,-0.8523,-0.859,-0.859,-0.859,-0.859,-0.859,-0.8523,-0.839,0.0,0.0,-0.8256,-0.8123,-0.8256,-0.8494,-0.8747,-0.8733,-0.8756,-0.903,-0.8662,-0.8351,-0.8564,-0.8213,-0.8217,0.0,0.0,0.0,0.0,0.0,0.0,0.0,0.0,0.0,0.0,-0.5542,-0.4992,-0.2604,-0.1512,-0.0336,0.1095,0.1857,0.2207,0.231,0.2583,0.2776,0.2797,0.2829,0.2842,0.2844,0.0,0.0,0.0,0.2874,0.2874,0.2874,0.2874,0.2874,0.2874,0.2874,0.2874,0.2874,0.0,0.0,0.0,0.0,0.0,-0.471,-0.4721,-0.4709,-0.41,-0.2549,-0.2335,-0.1707,-0.0202,-0.0067,-0.0067,-0.0067,-0.1345,0.0,0.0,0.0,0.0,0.0,0.0,0.0,0.0,0.0,0.0875,0.1616,0.0202,-0.0336,0.0,-0.0067,-0.1612,-0.43,0.0,0.0,0.0,0.0,0.0,0.0,0.0,0.0,0.0,0.0,0.0,0.0,0.0,0.0,0.0,0.0,0.0,0.0,0.0,-0.7526,-0.7593,-0.7994,-0.8323,-0.859,-0.859,-0.859,-0.859,-0.859,-0.8323,-0.8123,-0.8123,-0.7794,-0.7593,-0.7989,-0.8123,-0.8226,-0.8679,-0.8597,-0.8573,-0.9046,-0.7576,-0.6547,-0.6978,-0.5746,0.0,0.0,0.0,0.0,0.0,0.0,0.0,0.0,0.0,0.0,0.0,-0.2253,-0.2016,-0.2016,0.0084,0.1514,0.2018,0.2467,0.2652,0.2653,0.2799,0.2827,0.2829,0.286,0.2874,0.0,0.0,0.0,0.0,0.2874,0.2874,0.2874,0.2874,0.2874,0.2874,0.2874,0.2874,0.2874,0.0,0.0,0.0,0.0,0.0,0.0,-0.1644,-0.1477,-0.1317,-0.0825,-0.0749,-0.0541,-0.0067,0.0,0.0135,0.0409,-0.0271,0.0,0.0,0.0,0.0,0.0,0.0,0.0,0.0,0.0831,0.1177,0.1663,0.0277,-0.0829,-0.1519,-0.2555,-0.4075,-0.5946,-0.546,0.0,0.0,0.0,0.0,0.0,0.0,0.0,0.0,0.0,0.0,0.0,0.0,0.0,0.0,0.0,0.0,0.0,0.0,0.0,0.0,-0.7388,-0.7588,-0.7861,-0.7861,-0.7861,-0.7861,-0.7861,-0.7794,-0.766,-0.7388,-0.7455,-0.7459,-0.7388,-0.7579,-0.7587,-0.672,-0.6531,-0.6193,-0.5401,-0.4999,-0.4869,0.0,0.0,0.0,0.0,0.0,0.0,0.0,0.0,0.0,0.0,0.0,0.0,0.0,0.0168,0.0168,-0.0168,0.1093,0.1858,0.2042,0.2476,0.2759,0.28,0.2819,0.284,0.286,0.287,0.0,0.0,0.0,0.0,0.0,0.2874,0.2874,0.2874,0.2874,0.2874,0.2874,0.2874,0.2874,0.2874,0.0,0.0,0.0,0.0,0.0,0.0,-0.0141,0.0,0.0,0.0,0.0,0.0,0.0,0.0136,0.0343,0.0554,0.0481,0.0,0.0,0.0,0.0,0.0,0.0,0.0,0.1052,0.1262,0.1544,0.1895,0.042,-0.07,-0.1469,-0.2938,-0.4477,-0.588,-0.588,-0.6248,0.0,0.0,0.0,0.0,0.0,0.0,-0.699,0.0,0.0,0.0,0.0,0.0,0.0,0.0,0.0,0.0,0.0,0.0,0.0,0.0,-0.6987,-0.7192,-0.7459,-0.7526,-0.7526,-0.7526,-0.7393,-0.7254,-0.7054,-0.7054,-0.6933,-0.6286,-0.6401,-0.6203,-0.4911,-0.4608,-0.4295,-0.3622,-0.3197,0.0,0.0,0.0,0.0,0.0,0.0,0.0,0.0,0.0,0.0,0.0,0.0,0.0,0.0,0.0,0.1433,0.1271,0.1778,0.2124,0.231,0.2588,0.2791,0.2829,0.284,0.2856,0.2874,0.2874,0.0,0.0,0.0,0.0,0.0,0.2874,0.2874,0.2874,0.2874,0.2874,0.2874,0.2874,0.2874,0.2874,0.0,0.0,0.0,0.0,0.0,0.0,0.0,0.0069,0.0068,0.0068,0.0068,0.0069,0.0069,0.0418,0.0632,0.0702,0.1054,0.0,0.0,0.0,0.0,0.0,0.0,0.0,0.1688,0.1759,0.1899,0.2182,0.0632,-0.014,-0.0281,-0.1824,-0.3367,-0.4771,-0.4771,-0.5581,-0.6939,-0.6954,-0.699,-0.699,-0.699,-0.699,0.0,0.0,0.0,0.0,0.0,0.0,0.0,0.0,0.0,0.0,0.0,0.0,0.0,0.0,0.0,0.0,0.0,-0.7459,-0.7459,-0.7459,-0.7187,-0.6987,-0.6987,-0.6723,0.0,-0.499,-0.4803,-0.4431,-0.3264,-0.2783,-0.2651,-0.3045,0.0,0.0,0.0,0.0,0.0,0.0,0.0,0.0,0.0,0.0,0.0,0.0,0.0,0.0,0.0,0.0,0.2114,0.2138,0.214,0.2313,0.2744,0.28,0.283,0.2831,0.286,0.2874,0.2874,0.2874,0.0,0.0,0.0,0.0,0.0,0.2874,0.2874,0.2874,0.2874,0.2874,0.2874,0.2874,0.2874,0.2874,0.0,0.0,0.0,0.0,0.0,0.0,0.0,0.0,0.0,0.0,0.09,0.0907,0.0907,0.098,0.1197,0.0,0.0,0.0,0.0,0.0,0.0,0.0,0.0,0.0,0.1806,0.2023,0.2168,0.2312,0.0722,-0.065,-0.1803,-0.3389,-0.4976,-0.6418,-0.6418,-0.6649,-0.6958,-0.6978,-0.699,-0.699,-0.699,-0.699,0.0,0.0,0.0,0.0,-0.699,-0.699,0.0,0.0,0.0,0.0,0.0,0.0,0.0,0.0,-0.6509,-0.6522,-0.6723,0.0,-0.6723,-0.6723,-0.6656,-0.6585,0.0,-0.6576,-0.6153,-0.4729,-0.453,-0.3754,-0.1212,-0.0648,-0.029,0.0,0.0,0.0,0.0,0.0,0.0,0.0,0.0,0.0,0.0,0.0,0.0,0.0,0.0,0.0,0.0,0.0,0.2537,0.2565,0.2588,0.2697,0.2807,0.2822,0.284,0.2863,0.2871,0.2874,0.2874,0.2874,0.0,0.0,0.0,0.0,0.2874,0.2874,0.2874,0.2874,0.2874,0.2874,0.2874,0.2874,0.2874,0.2874,0.0,0.0,0.0,0.0,0.0,0.0,0.0,0.0,0.0,0.0,0.1194,0.1204,0.1204,0.1352,0.1576,0.0,0.0,0.0,0.0,0.0,0.0,0.0,0.0,0.2187,0.2041,0.2187,0.2333,0.2333,0.0073,-0.1456,-0.233,-0.4657,-0.6188,-0.699,-0.699,-0.699,-0.699,-0.699,-0.699,-0.699,-0.699,0.0,0.0,0.0,0.0,0.0,-0.699,-0.699,0.0,-0.699,-0.6958,-0.6909,0.0,0.0,0.0,0.0,-0.5046,-0.4468,-0.4507,-0.5443,-0.6522,-0.6522,-0.5982,-0.551,-0.551,-0.5024,-0.4121,-0.2627,-0.2322,-0.1644,0.0648,0.0943,0.0,0.0,0.1459,0.0,0.0,0.0,0.0,0.0,0.0,0.0,0.0,0.0,0.0,0.0,0.0,0.0,0.0,0.0,0.2728,0.2758,0.2788,0.2812,0.2829,0.2842,0.2857,0.2874,0.2874,0.2874,0.2874,0.2874,0.0,0.0,0.0,0.0,0.2874,0.2874,0.2874,0.2874,0.2874,0.2874,0.2874,0.2874,0.2874,0.2874,0.0,0.0,0.0,0.0,0.0,0.0,0.0,0.0,0.0,0.0,0.0,0.0,0.0,0.0,0.0,0.0,0.0,0.0,0.0,0.0,0.0,0.0,0.2333,0.2333,0.2333,0.2333,0.2333,0.2333,-0.0801,-0.233,-0.2403,-0.5531,-0.699,-0.699,-0.699,-0.699,-0.699,-0.699,-0.699,-0.699,-0.699,0.0,0.0,0.0,0.0,0.0,0.0,0.0,0.0,-0.6696,-0.6624,-0.6612,-0.6324,0.0,0.0,0.0,0.0,0.0,-0.2101,-0.392,-0.5811,-0.5852,-0.4913,-0.3977,-0.3977,-0.3001,-0.1661,-0.021,0.0071,0.0503,0.1964,0.1968,0.0,0.0,0.0,0.0,0.0,0.0,0.0,0.0,0.0,0.0,0.0,0.0,0.0,0.0,0.0,0.0,0.0,0.0,0.0,0.2789,0.2815,0.283,0.2836,0.2861,0.2874,0.2874,0.2874,0.2874,0.2874,0.2874,0.2874,0.0,0.0,0.0,0.2874,0.2874,0.2874,0.2874,0.2874,0.2874,0.2874,0.2874,0.2874,0.2874,0.0,0.0,0.0,0.0,0.0,0.0,0.0,0.0,0.0,0.0,0.0,0.0,0.0,0.0,0.0,0.0,0.0,0.0,0.0,0.0,0.0,0.2333,0.2333,0.2333,0.2333,0.2333,0.2333,0.2333,-0.0801,-0.233,-0.2403,-0.5531,-0.699,-0.699,-0.699,-0.699,-0.699,-0.699,-0.699,-0.699,-0.699,0.0,0.0,0.0,0.0,0.0,0.0,0.0,0.0,-0.5459,-0.502,-0.4802,-0.3411,0.0,0.0,0.0,0.0,0.0,-0.2087,-0.2433,-0.2765,-0.2768,-0.2574,-0.246,-0.246,-0.23,-0.1775,-0.0214,0.0072,0.0363,0.1676,0.1822,0.1822,0.0,0.0,0.0,0.0,0.0,0.0,0.0,0.0,0.0,0.0,0.0,0.0,0.0,0.0,0.0,0.0,0.0,0.0,0.2819,0.2826,0.2841,0.2867,0.2871,0.2874,0.2874,0.2874,0.2874,0.2874,0.2874,0.2874,0.0,0.0,0.2874,0.2874,0.2874,0.2874,0.2874,0.2874,0.2874,0.2874,0.2874,0.2874,0.2874,0.0,0.0,0.0,0.0,0.0,0.0,0.0,0.0,0.0,0.0,0.0,0.0,0.0,0.0,0.0,0.0,0.0,0.0,0.0,0.0,0.2333,0.2333,0.2333,0.2333,0.2333,0.2333,0.2333,0.2333,-0.0801,-0.233,-0.2403,-0.5531,-0.699,-0.699,-0.6116,-0.5749,-0.5677,-0.4802,-0.4947,-0.5749,0.0,0.0,0.0,0.0,0.0,0.0,0.0,0.0,0.0,0.0,-0.3419,-0.3276,-0.2547,0.0,0.0,0.0,0.0,0.0,0.0211,0.021,0.021,0.0207,-0.0345,-0.0901,-0.0901,-0.0352,0.0429,0.1144,0.1228,0.1384,0.1968,0.0,0.1753,0.1545,0.0,0.0,0.0,0.0,0.0,0.0,0.0,0.0,0.0,0.0,0.0,0.0,0.0,0.0,0.0,0.0,0.0,0.0,0.2845,0.286,0.2874,0.2874,0.2874,0.2874,0.2874,0.2874,0.2874,0.2874,0.2874,0.2874,0.0,0.2874,0.2874,0.2874,0.2874,0.2874,0.2874,0.2874,0.2874,0.2874,0.2874,0.2874,0.0,0.0,0.0,0.0,0.0,0.0,0.0,0.0,0.0,0.0,0.0,0.0,0.0,0.0,0.0,0.0,0.0,0.0,0.0,0.2333,0.2333,0.2333,0.2333,0.2333,0.2333,0.2333,0.2333,0.2333,-0.0801,-0.2692,-0.3421,-0.5531,-0.6478,-0.6406,-0.4802,-0.4148,-0.4075,-0.2839,-0.2983,-0.4148,0.0,0.0,0.0,0.0,0.0,0.0,0.0,0.0,0.0,0.0,0.0,0.0,0.0,0.0,0.0,0.0504,0.1365,0.2296,0.2273,0.2195,0.2195,0.2195,0.1412,0.0634,0.0634,0.1494,0.2301,0.2301,0.2318,0.226,0.0,0.1968,0.0,0.0,0.0,0.0,0.0,0.0,0.0,0.0,0.0,0.0,0.0,0.0,0.0,0.0,0.0,0.0,0.0,0.0,0.0,0.0,0.2861,0.2874,0.2874,0.2874,0.2874,0.2874,0.2874,0.2874,0.2874,0.2874,0.2874,0.2874,0.2874,0.2874,0.2874,0.2874,0.2874,0.2874,0.2874,0.2874,0.2874,0.2874,0.2874,0.2874,0.0,0.0,0.0,0.0,0.0,0.0,0.0,0.0,0.0,0.0,0.0,0.0,0.0,0.0,0.0,0.0,0.0,0.0,0.0,0.2333,0.2333,0.2333,0.2333,0.2333,0.2333,0.2333,0.2333,0.2333,-0.0801,-0.3785,-0.6624,-0.5459,-0.4875,-0.4802,-0.3201,-0.2474,-0.2474,-0.233,-0.2403,-0.2474,-0.2474,0.0,0.0,0.0,0.0,0.0,0.0,0.0,0.0,0.0,0.0,0.0,0.0,0.0,0.2114,0.2111,0.2184,0.233,0.2327,0.2326,0.2326,0.2326,0.2235,0.2145,0.2145,0.2237,0.233,0.233,0.2331,0.2187,0.1895,0.1822,0.0,0.0,0.0,0.0,0.0,0.0,0.0,0.0,0.0,0.0,0.0,0.0,0.0,0.0,0.0,0.0,0.0,0.0,0.0,0.0,0.0,0.2874,0.2874,0.2874,0.2874,0.2874,0.2874,0.2874,0.2874,0.2874,0.2874,0.2874,0.2874,0.2874,0.2874,0.2874,0.2874,0.2874,0.2874,0.2874,0.2874,0.2874,0.2874,0.2874,0.0,0.0,0.0,0.0,0.0,0.0,0.0,0.0,0.0,0.0,0.0,0.0,0.0,0.0,0.0,0.0,0.0,0.0,0.0,0.2333,0.2333,0.2333,0.2333,0.2333,0.2333,0.2333,0.2333,0.2333,0.0146,-0.2474,-0.5531,-0.393,-0.3201,-0.313,-0.1602,-0.0874,-0.0801,0.0146,0.0,-0.0874,-0.0874,-0.1456,0.0,0.0,0.0,0.0,0.0,0.0,0.0,0.0,0.1457,0.1531,0.2114,0.2333,0.2333,0.2333,0.2333,0.2333,0.2333,0.2333,0.2333,0.2333,0.2324,0.2318,0.2318,0.2324,0.2333,0.2333,0.2333,0.2265,0.221,0.0,0.0,0.0,0.0,0.0,0.0,0.0,0.0,0.0,0.0,0.0,0.0,0.0,0.0,0.0,0.0,0.0,0.0,0.0,0.0,0.0,0.0,0.2874,0.2874,0.2874,0.2874,0.2874,0.2874,0.2874,0.2874,0.2874,0.2874,0.2874,0.2874,0.2874,0.2874,0.2874,0.2874,0.2874,0.2874,0.2874,0.2874,0.2874,0.2874,0.2874,0.0,0.0,0.0,0.0,0.0,0.0,0.0,0.0,0.0,0.0,0.0,0.0,0.0,0.0,0.0,0.0,0.0,0.0,0.2333,0.2333,0.2333,0.2333,0.2333,0.2333,0.2333,0.2333,0.2333,0.2333,0.0729,-0.1384,-0.393,-0.233,-0.1602,-0.1529,0.0073,0.0729,0.0801,0.1822,0.1677,0.0729,0.0729,0.0073,0.0,0.0,0.0,0.0,0.0,0.0,0.0,0.0,0.2333,0.2333,0.2333,0.2333,0.2333,0.2333,0.2333,0.2333,0.2333,0.2333,0.2333,0.2333,0.2333,0.2333,0.2333,0.2333,0.2333,0.2333,0.2341,0.2353,0.2375,0.0,0.0,0.0,0.0,0.0,0.0,0.0,0.0,0.0,0.0,0.0,0.0,0.0,0.0,0.0,0.0,0.0,0.0,0.0,0.0,0.0,0.0,0.2874,0.2874,0.2874,0.2874,0.2874,0.2874,0.2874,0.2874,0.2874,0.2874,0.2874,0.2874,0.2874,0.2874,0.2874,0.2874,0.2874,0.2874,0.2874,0.2874,0.2874,0.2874,0.2874,0.0,0.0,0.0,0.0,0.0,0.0,0.0,0.0,0.2333,0.2333,0.2333,0.0,0.0,0.0,0.0,0.0,0.0,0.0,0.2333,0.2333,0.2333,0.2333,0.2333,0.2333,0.2333,0.2333,0.226,0.226,0.0729,-0.0801,-0.2256,-0.0728,0.0,0.0073,0.1604,0.2333,0.2333,0.2333,0.2333,0.2333,0.2333,0.2333,0.2333,0.0,0.0,0.0,0.0,0.0,0.0,0.0,0.2333,0.2333,0.2333,0.2333,0.2333,0.2333,0.2333,0.2333,0.2333,0.2333,0.2333,0.2333,0.2333,0.2333,0.2333,0.2333,0.2333,0.2333,0.2357,0.2379,0.2379,0.2403,0.0,0.0,0.0,0.0,0.0,0.0,0.0,0.0,0.0,0.0,0.0,0.0,0.0,0.0,0.0,0.0,0.0,0.0,0.0,0.0,0.0,0.0,0.2874,0.2874,0.2874,0.2874,0.2874,0.2874,0.2874,0.2874,0.2874,0.2874,0.2874,0.2874,0.2874,0.2874,0.2874,0.2874,0.2874,0.2874,0.2874,0.2874,0.2874,0.2874,0.0,0.0,0.0,0.0,0.0,0.0,0.0,0.0,0.2333,0.2333,0.2333,0.0,0.0,0.0,0.0,0.0,0.0,0.0,0.2333,0.2333,0.2333,0.2333,0.2333,0.2333,0.2333,0.2333,0.175,0.0656,0.1311,0.0801,-0.0655,0.0874,0.1604,0.1604,0.2114,0.2333,0.2333,0.2333,0.2333,0.2333,0.2333,0.2333,0.2333,0.0,0.0,0.0,0.0,0.0,0.0,0.0,0.0,0.0,0.2333,0.2333,0.2333,0.2333,0.2333,0.2333,0.2333,0.2333,0.2333,0.2333,0.2333,0.2333,0.2333,0.2333,0.2338,0.236,0.2372,0.2391,0.2433,0.2466,0.0,0.0,0.0,0.0,0.0,0.0,0.0,0.0,0.0,0.0,0.0,0.0,0.0,0.0,0.0,0.0,0.0,0.0,0.0,0.0,0.0,0.0,0.2874,0.2874,0.2874,0.2874,0.2874,0.2874,0.2874,0.2874,0.2874,0.2874,0.2874,0.2874,0.2874,0.2874,0.2874,0.2874,0.2874,0.2874,0.2874,0.2874,0.2874,0.2874,0.0,0.0,0.0,0.0,0.0,0.0,0.0,0.0,0.2333,0.2333,0.2333,0.2333,0.0,0.0,0.0,0.0,0.0,0.0,0.2333,0.2333,0.2333,0.2333,0.2333,0.2333,0.2333,0.2333,0.1822,0.0947,0.1822,0.1822,0.0947,0.1895,0.2333,0.2333,0.2333,0.2333,0.2333,0.2333,0.2333,0.2333,0.2333,0.2333,0.2333,0.0,0.0,0.0,0.0,0.0,0.0,0.0,0.0,0.0,0.2333,0.2333,0.2333,0.2333,0.2333,0.2333,0.2333,0.2333,0.2333,0.2333,0.2333,0.2335,0.2348,0.235,0.2356,0.2375,0.2408,0.2443,0.248,0.2521,0.0,0.0,0.0,0.0,0.0,0.0,0.0,0.0,0.0,0.0,0.0,0.0,0.0,0.0,0.0,0.0,0.0,0.0,0.0,0.0,0.0,0.0,0.2874,0.2874,0.2874,0.2874,0.2874,0.2874,0.2874,0.2874,0.2874,0.2874,0.2874,0.2874,0.2874,0.2874,0.2874,0.2874,0.2874,0.2874,0.2874,0.2874,0.2874,0.2874,0.0,0.0,0.2333,0.2333,0.0,0.0,0.0,0.0,0.2333,0.2333,0.2333,0.2333,0.0,0.0,0.0,0.0,0.0,0.0,0.0,0.2333,0.2333,0.2333,0.2333,0.2333,0.2333,0.2333,0.2333,0.2333,0.2333,0.2333,0.2333,0.2333,0.2333,0.2333,0.2333,0.2333,0.2333,0.2333,0.2333,0.2333,0.2333,0.2333,0.2333,0.2333,0.0,0.0,0.0,0.0,0.0,0.0,0.0,0.0,0.2333,0.2333,0.2333,0.2333,0.2333,0.2333,0.2333,0.2333,0.2333,0.2333,0.2335,0.2345,0.2375,0.2387,0.2391,0.2391,0.0,0.2517,0.2521,0.0,0.0,0.0,0.0,0.0,0.0,0.0,0.0,0.0,0.0,0.0,0.0,0.0,0.0,0.0,0.0,0.0,0.0,0.0,0.0,0.0,0.0,0.0,0.2874,0.2874,0.2874,0.0,0.2874,0.2874,0.2874,0.2874,0.2874,0.2874,0.2874,0.2874,0.2874,0.2874,0.2874,0.2874,0.2874,0.2874,0.2874,0.2874,0.2874,0.2874,0.0,0.0,0.2333,0.2333,0.0,0.0,0.0,0.0,0.0,0.2333,0.2333,0.0,0.0,0.0,0.0,0.0,0.0,0.0,0.0,0.2333,0.2333,0.2333,0.2333,0.2333,0.2333,0.2333,0.2333,0.2333,0.2333,0.2333,0.2333,0.2333,0.2333,0.2333,0.2333,0.2333,0.2333,0.2333,0.2333,0.2333,0.2333,0.2333,0.2333,0.2333,0.2333,0.0,0.0,0.0,0.0,0.0,0.0,0.0,0.2333,0.2333,0.2333,0.2333,0.2333,0.2333,0.2333,0.2333,0.2333,0.2333,0.235,0.2376,0.2406,0.2451,0.2485,0.2485,0.25,0.2529,0.0,0.0,0.0,0.0,0.0,0.0,0.0,0.0,0.0,0.0,0.0,0.0,0.0,0.0,0.0,0.0,0.0,0.0,0.0,0.0,0.0,0.0,0.0,0.2874,0.2874,0.2874,0.2874,0.0,0.2874,0.2874,0.2874,0.2874,0.2874,0.2874,0.2874,0.2874,0.2874,0.2874,0.2874,0.2874,0.2874,0.2874,0.2874,0.2874,0.2874,0.2874,0.0,0.0,0.0,0.0,0.0,0.0,0.0,0.0,0.0,0.0,0.0,0.0,0.0,0.0,0.0,0.0,0.2333,0.0,0.0,0.0,0.2333,0.2333,0.2333,0.2333,0.2333,0.2333,0.2333,0.2333,0.2333,0.2333,0.2333,0.2333,0.2333,0.2333,0.2333,0.2333,0.2333,0.2333,0.2333,0.2333,0.2333,0.2333,0.2333,0.2333,0.2333,0.2333,0.2333,0.0,0.0,0.0,0.0,0.0,0.0,0.0,0.2333,0.2333,0.2333,0.2333,0.2333,0.2333,0.2333,0.2333,0.2356,0.239,0.2435,0.2481,0.2526,0.257,0.2578,0.0,0.0,0.0,0.0,0.0,0.0,0.0,0.0,0.0,0.0,0.0,0.0,0.0,0.0,0.0,0.0,0.0,0.0,0.0,0.0,0.0,0.0,0.0,0.2874,0.2874,0.2874,0.2874,0.2874,0.2874,0.2874,0.2874,0.2874,0.2874,0.2874,0.2874,0.2874,0.2874,0.2874,0.2874,0.2874,0.2874,0.2874,0.2874,0.2874,0.2874,0.2874,0.2874,0.0,0.0,0.0,0.0,0.0,0.0,0.0,0.0,0.0,0.0,0.0,0.0,0.0,0.0,0.2333,0.0,0.0,0.0,0.0,0.0,0.0,0.2333,0.2333,0.2333,0.2333,0.2333,0.2333,0.2333,0.2333,0.2333,0.2333,0.2333,0.2333,0.2333,0.2333,0.2333,0.2333,0.2333,0.2333,0.2333,0.2333,0.2333,0.2333,0.2333,0.2333,0.2333,0.2333,0.2333,0.2333,0.2333,0.0,0.0,0.0,0.0,0.2333,0.2333,0.2333,0.2333,0.2333,0.2333,0.2333,0.2333,0.2364,0.2409,0.2463,0.2508,0.256,0.2638,0.0,0.0,0.0,0.0,0.0,0.0,0.0,0.0,0.0,0.0,0.0,0.0,0.0,0.0,0.0,0.0,0.0,0.0,0.0,0.0,0.0,0.0,0.2874,0.2874,0.2874,0.2874,0.2874,0.2874,0.2874,0.2874,0.2874,0.2874,0.2874,0.2874,0.2874,0.2874,0.2874,0.2874,0.2874,0.2874,0.2874,0.2874,0.2874,0.2874,0.2874,0.2874,0.2874,0.2874,0.0,0.0,0.0,0.0,0.0,0.0,0.0,0.0,0.0,0.0,0.2333,0.2333,0.0,0.0,0.0,0.2333,0.2333,0.2333,0.2333,0.0,0.0,0.2333,0.2333,0.2333,0.2333,0.2333,0.2333,0.2333,0.2333,0.2333,0.2333,0.2333,0.2333,0.2333,0.2333,0.2333,0.2333,0.2333,0.2333,0.2333,0.2333,0.2333,0.2333,0.2333,0.2333,0.2333,0.2333,0.2333,0.2333,0.2333,0.2333,0.0,0.0,0.0,0.2333,0.2333,0.2333,0.2333,0.2333,0.2333,0.2333,0.2333,0.2395,0.2466,0.0,0.0,0.2641,0.0,0.0,0.0,0.0,0.0,0.0,0.0,0.0,0.0,0.0,0.0,0.0,0.0,0.0,0.0,0.0,0.0,0.0,0.0,0.0,0.0,0.0,0.2874,0.2874,0.2874,0.2874,0.2874,0.2874,0.2874,0.2874,0.2874,0.2874,0.2874,0.2874,0.2874,0.2874,0.2874,0.2874,0.2874,0.2874,0.2874,0.2874,0.2874,0.2874,0.2874,0.2874,0.2874,0.2874,0.2874,0.0,0.0,0.0,0.0,0.0,0.0,0.0,0.0,0.0,0.0,0.0,0.2333,0.0,0.0,0.0,0.2333,0.2333,0.2333,0.2333,0.2333,0.2333,0.2333,0.2333,0.2333,0.2333,0.2333,0.2333,0.2333,0.2333,0.2333,0.2333,0.2333,0.2333,0.2333,0.2333,0.2333,0.2333,0.2333,0.2333,0.2333,0.2333,0.2333,0.2333,0.2333,0.2333,0.2333,0.2333,0.2333,0.2333,0.2333,0.2333,0.2333,0.2333,0.0,0.0,0.0,0.2333,0.2333,0.2333,0.2333,0.2333,0.2333,0.2402,0.2477,0.2507,0.0,0.2656,0.0,0.0,0.0,0.0,0.0,0.0,0.0,0.0,0.0,0.0,0.0,0.0,0.0,0.0,0.0,0.0,0.0,0.0,0.0,0.0,0.0,0.2874,0.2874,0.2874,0.2874,0.2874,0.2874,0.2874,0.2874,0.2874,0.2874,0.2874,0.2874,0.2874,0.2874,0.2874,0.2874,0.2874,0.2874,0.2874,0.2874,0.2874,0.2874,0.2874,0.2874,0.2874,0.2874,0.2874,0.2874,0.0,0.0,0.0,0.0,0.0,0.0,0.0,0.0,0.0,0.0,0.0,0.0,0.0,0.0,0.0,0.0,0.2333,0.2333,0.2333,0.2333,0.2333,0.2333,0.2333,0.2333,0.2333,0.2333,0.2333,0.2333,0.2333,0.2333,0.2333,0.2333,0.2333,0.2333,0.2333,0.2333,0.2333,0.2333,0.2333,0.2333,0.2333,0.2333,0.2333,0.2333,0.2333,0.2333,0.2333,0.2333,0.2333,0.2333,0.2333,0.2333,0.2333,0.2333,0.0,0.0,0.0,0.2333,0.2333,0.2333,0.2333,0.2333,0.2408,0.2487,0.0,0.0,0.0,0.0,0.0,0.0,0.0,0.0,0.0,0.0,0.0,0.0,0.0,0.0,0.0,0.0,0.0,0.0,0.0,0.0,0.0,0.0,0.0,0.0,0.2874,0.2874,0.2874,0.2874,0.2874,0.2874,0.2874,0.2874,0.2874,0.2874,0.2874,0.2874,0.2874,0.2874,0.2874,0.2874,0.2874,0.2874,0.2874,0.2874,0.2874,0.2874,0.2874,0.2874,0.2874,0.2874,0.2874,0.2874,0.0,0.0,0.0,0.0,0.0,0.0,0.0,0.0,0.0,0.0,0.0,0.0,0.2333,0.2333,0.2333,0.2333,0.2333,0.2333,0.2333,0.2333,0.2333,0.2333,0.2333,0.0,0.2333,0.2333,0.2333,0.2333,0.2333,0.2333,0.2333,0.2333,0.2333,0.2333,0.2333,0.2333,0.2333,0.2333,0.2333,0.2333,0.2333,0.2333,0.2333,0.2333,0.2333,0.2333,0.2333,0.2333,0.2333,0.2333,0.2333,0.2333,0.2333,0.2333,0.2333,0.0,0.0,0.0,0.2333,0.2333,0.0,0.2333,0.2423,0.2512,0.0,0.0,0.0,0.0,0.0,0.0,0.0,0.0,0.0,0.0,0.0,0.0,0.0,0.0,0.0,0.0,0.0,0.0,0.0,0.0,0.0,0.0,0.0,0.0,0.2874,0.2874,0.2874,0.2874,0.2874,0.2874,0.2874,0.2874,0.2874,0.2874,0.2874,0.2874,0.2874,0.2874,0.2874,0.2874,0.2874,0.2874,0.2874,0.2874,0.2874,0.2874,0.2874,0.2874,0.2874,0.2874,0.2874,0.2874,0.0,0.0,0.0,0.0,0.0,0.0,0.0,0.0,0.0,0.0,0.0,0.0,0.0,0.2333,0.2333,0.2333,0.235,0.2371,0.239,0.2373,0.2361,0.2361,0.2343,0.2333,0.2333,0.2333,0.2333,0.2333,0.2333,0.2333,0.2333,0.2333,0.2333,0.2333,0.2333,0.2333,0.2333,0.2333,0.2333,0.2333,0.2333,0.2333,0.2333,0.2333,0.2333,0.2333,0.2333,0.2333,0.2333,0.2333,0.0,0.0,0.2333,0.2333,0.2333,0.2333,0.2333,0.2333,0.2333,0.2333,0.0,0.2333,0.2424,0.2514,0.2514,0.0,0.0,0.0,0.0,0.0,0.0,0.0,0.0,0.0,0.0,0.0,0.0,0.0,0.0,0.0,0.0,0.0,0.0,0.0,0.0,0.0,0.0,0.0,0.2874,0.2874,0.2874,0.2874,0.2874,0.2874,0.2874,0.2874,0.2874,0.2874,0.2874,0.2874,0.2874,0.2874,0.2874,0.2874,0.2874,0.2874,0.2874,0.2874,0.2874,0.2874,0.2874,0.2874,0.2874,0.2874,0.2874,0.2874,0.0,0.0,0.0,0.0,0.0,0.2333,0.2333,0.2333,0.2333,0.2333,0.0,0.0,0.0,0.0,0.2352,0.2363,0.2382,0.2402,0.2423,0.2405,0.2394,0.2394,0.2373,0.2363,0.2363,0.2353,0.2348,0.2348,0.2338,0.2333,0.2333,0.2333,0.2333,0.2333,0.2333,0.2333,0.2333,0.2333,0.2333,0.2333,0.2333,0.2333,0.2333,0.2333,0.2333,0.2333,0.2333,0.2333,0.2333,0.0,0.0,0.0,0.2345,0.2348,0.2346,0.2335,0.2333,0.2333,0.2333,0.2333,0.2335,0.0,0.2432,0.2517,0.2527,0.0,0.0,0.0,0.0,0.0,0.0,0.0,0.0,0.0,0.0,0.0,0.0,0.0,0.0,0.0,0.0,0.0,0.0,0.0,0.0,0.0,0.0,0.0,0.2874,0.2874,0.2874,0.2874,0.2874,0.2874,0.2874,0.2874,0.2874,0.2874,0.2874,0.2874,0.2874,0.2874,0.2874,0.2874,0.2874,0.2874,0.2874,0.2874,0.2874,0.2874,0.2874,0.2874,0.2874,0.2874,0.2874,0.2874,0.0,0.0,0.2333,0.2333,0.2333,0.2333,0.2333,0.2333,0.2333,0.2333,0.0,0.0,0.0,0.0,0.0,0.2423,0.2425,0.2425,0.2427,0.2425,0.2425,0.2425,0.2424,0.2424,0.2424,0.2394,0.2379,0.2379,0.235,0.2335,0.2334,0.2334,0.2334,0.2333,0.2333,0.2333,0.2334,0.2333,0.2333,0.2333,0.2333,0.2334,0.2334,0.2334,0.2334,0.2335,0.2335,0.2335,0.0,0.2335,0.0,0.0,0.2371,0.2379,0.2373,0.2343,0.2335,0.2335,0.0,0.0,0.0,0.2373,0.0,0.0,0.2555,0.0,0.0,0.0,0.0,0.0,0.0,0.0,0.0,0.0,0.0,0.0,0.0,0.0,0.0,0.0,0.0,0.0,0.0,0.0,0.0,0.0,0.0,0.2874,0.2874,0.2874,0.2874,0.2874,0.2874,0.2874,0.2874,0.2874,0.2874,0.2874,0.2874,0.2874,0.2874,0.2874,0.2874,0.2874,0.2874,0.2874,0.2874,0.2874,0.2874,0.2874,0.2874,0.2874,0.2874,0.2874,0.2874,0.2874,0.0,0.2333,0.2333,0.2333,0.2333,0.2333,0.2333,0.2333,0.2333,0.0,0.0,0.0,0.2365,0.2393,0.2423,0.2454,0.2457,0.2466,0.2488,0.2469,0.2457,0.2457,0.2435,0.2424,0.2424,0.2416,0.241,0.241,0.2402,0.2387,0.2365,0.2365,0.2353,0.2333,0.2333,0.2345,0.2364,0.2342,0.2333,0.2333,0.2333,0.2346,0.2365,0.2365,0.2379,0.0,0.0,0.2398,0.2398,0.0,0.2398,0.2399,0.0,0.241,0.2409,0.2401,0.2398,0.2398,0.2398,0.0,0.0,0.0,0.0,0.0,0.2583,0.2643,0.0,0.0,0.0,0.0,0.0,0.0,0.0,0.0,0.0,0.0,0.0,0.0,0.0,0.0,0.0,0.0,0.0,0.0,0.0,0.0,0.2874,0.2874,0.2874,0.2874,0.2874,0.2874,0.2874,0.2874,0.2874,0.2874,0.2874,0.2874,0.2874,0.2874,0.2874,0.2874,0.2874,0.2874,0.2874,0.2874,0.2874,0.2874,0.2874,0.2874,0.2874,0.2874,0.2874,0.2874,0.2874,0.2874,0.2333,0.2333,0.2333,0.2333,0.2333,0.2333,0.2333,0.2333,0.2337,0.0,0.0,0.0,0.2413,0.2432,0.2455,0.2485,0.2488,0.2495,0.2514,0.2497,0.2488,0.2488,0.2472,0.2461,0.2461,0.2448,0.2443,0.2443,0.2429,0.2414,0.2397,0.2397,0.2387,0.2371,0.2371,0.238,0.2395,0.2378,0.2371,0.2371,0.2371,0.2382,0.2397,0.2397,0.2408,0.0,0.0,0.0,0.2424,0.2424,0.2432,0.0,0.0,0.2443,0.244,0.2428,0.2424,0.2424,0.2424,0.2424,0.2431,0.2461,0.0,0.0,0.2596,0.2649,0.2692,0.0,0.0,0.0,0.0,0.0,0.0,0.0,0.0,0.0,0.0,0.0,0.0,0.0,0.0,0.0,0.0,0.0,0.0,0.0,0.2874,0.2874,0.2874,0.2874,0.2874,0.2874,0.2874,0.2874,0.2874,0.2874,0.2874,0.2874,0.2874,0.2874,0.2874,0.2874,0.2874,0.2874,0.2874,0.2874,0.2874,0.2874,0.2874,0.2874,0.2874,0.2874,0.2874,0.2874,0.2874,0.2874,0.0,0.2333,0.2333,0.2333,0.2333,0.2334,0.2337,0.2338,0.2349,0.0,0.2386,0.241,0.2467,0.2474,0.2485,0.2512,0.2514,0.2514,0.2514,0.2514,0.2514,0.2514,0.2514,0.2514,0.2514,0.2488,0.2474,0.2474,0.2447,0.2432,0.2428,0.2428,0.2427,0.2424,0.2424,0.2425,0.2428,0.2428,0.2431,0.2433,0.2427,0.2425,0.0,0.0,0.2431,0.2433,0.2433,0.2433,0.2433,0.2433,0.2454,0.0,0.0,0.0,0.0,0.0,0.2436,0.2438,0.2435,0.2433,0.2442,0.2472,0.2519,0.0,0.26,0.2649,0.2688,0.0,0.0,0.0,0.0,0.0,0.0,0.0,0.0,0.0,0.0,0.0,0.0,0.0,0.0,0.0,0.0,0.0,0.2871,0.2874,0.2874,0.2874,0.2874,0.2874,0.2874,0.2874,0.2874,0.2874,0.2874,0.2874,0.2874,0.2874,0.2874,0.2874,0.2874,0.2874,0.2874,0.2874,0.2874,0.2874,0.2874,0.2874,0.2874,0.2874,0.2874,0.2874,0.2874,0.2874,0.2874,0.2874,0.2333,0.2333,0.2333,0.2333,0.2333,0.2341,0.2365,0.2369,0.238,0.241,0.2436,0.2465,0.2502,0.2506,0.2507,0.2514,0.2514,0.2514,0.2514,0.2514,0.2514,0.2514,0.2514,0.2514,0.2514,0.2508,0.2506,0.2506,0.25,0.2484,0.2461,0.2461,0.2447,0.2424,0.2424,0.2438,0.2461,0.2461,0.2474,0.2492,0.2443,0.2438,0.2461,0.2461,0.2476,0.2496,0.2496,0.2496,0.2496,0.2496,0.2517,0.2538,0.0,0.0,0.0,0.2512,0.0,0.0,0.2503,0.2496,0.0,0.0,0.0,0.0,0.2626,0.2647,0.2662,0.0,0.0,0.0,0.0,0.0,0.0,0.0,0.0,0.0,0.0,0.0,0.0,0.0,0.0,0.0,0.0,0.0,0.2848,0.2872,0.2874,0.2874,0.2874,0.2874,0.2874,0.2874,0.2874,0.2874,0.2874,0.2874,0.2874,0.2874,0.2874,0.2874,0.2874,0.2874,0.2874,0.2874,0.2874,0.2874,0.2874,0.2874,0.2874,0.2874,0.2874,0.2874,0.2874,0.2874,0.2874,0.2874,0.2333,0.2333,0.2338,0.2353,0.2356,0.2365,0.2397,0.2401,0.2412,0.2442,0.2473,0.2497,0.2512,0.2514,0.2514,0.2514,0.2514,0.2514,0.2514,0.2514,0.2514,0.2514,0.2514,0.2514,0.2514,0.2514,0.2514,0.2514,0.2514,0.2507,0.2492,0.2492,0.2484,0.2469,0.2469,0.2477,0.2492,0.2492,0.25,0.2511,0.2481,0.0,0.2492,0.2492,0.2502,0.2514,0.2514,0.2514,0.2517,0.2532,0.2537,0.0,0.0,0.2568,0.2575,0.0,0.2548,0.2553,0.0,0.0,0.0,0.2533,0.0,0.0,0.0,0.2637,0.2656,0.0,0.0,0.0,0.0,0.0,0.0,0.0,0.0,0.0,0.0,0.0,0.0,0.0,0.0,0.0,0.0,0.0,0.2841,0.2871,0.2874,0.2874,0.2874,0.2874,0.2874,0.2874,0.2874,0.2874,0.2874,0.2874,0.2874,0.2874,0.2874,0.2874,0.2874,0.2874,0.2874,0.2874,0.2874,0.2874,0.2874,0.2874,0.2874,0.2874,0.2874,0.2874,0.2874,0.2874,0.2874,0.2874,0.2342,0.2346,0.2358,0.2383,0.2387,0.2397,0.2428,0.2432,0.2443,0.2474,0.2499,0.2514,0.2514,0.2514,0.2514,0.2514,0.2514,0.2514,0.2514,0.2514,0.2514,0.2514,0.2514,0.2514,0.2514,0.2514,0.2514,0.2514,0.2514,0.2514,0.2514,0.2514,0.2514,0.2514,0.2514,0.2514,0.2514,0.2514,0.2514,0.2514,0.0,0.2514,0.2514,0.2514,0.2518,0.2523,0.2529,0.2532,0.2534,0.2553,0.2547,0.2537,0.2574,0.2581,0.0,0.0,0.0,0.0,0.0,0.0,0.0,0.0,0.0,0.2567,0.0,0.0,0.0,0.0,0.0,0.0,0.0,0.0,0.0,0.0,0.0,0.0,0.0,0.0,0.0,0.0,0.0,0.0,0.0,0.0,0.2841,0.2871,0.2874,0.2874,0.2874,0.2874,0.2874,0.2874,0.2874,0.2874,0.2874,0.2874,0.2874,0.2874,0.2874,0.2874,0.2874,0.2874,0.2874,0.2874,0.2874,0.2874,0.2874,0.2874,0.2874,0.2874,0.2874,0.2874,0.2874,0.2874,0.2874,0.2874,0.2378,0.2394,0.2414,0.2418,0.2418,0.2429,0.2459,0.2463,0.2474,0.2506,0.2512,0.2514,0.2514,0.2514,0.2514,0.2514,0.2514,0.2514,0.2514,0.2514,0.2514,0.2514,0.2514,0.2514,0.2514,0.2514,0.2514,0.2514,0.2514,0.2514,0.2514,0.2514,0.2514,0.2514,0.2514,0.2514,0.2514,0.2514,0.2514,0.0,0.2514,0.2514,0.0,0.2514,0.2532,0.2557,0.2583,0.2592,0.2589,0.0,0.2574,0.2583,0.0,0.2577,0.2627,0.2575,0.0,0.0,0.0,0.0,0.0,0.0,0.2537,0.0,0.0,0.0,0.0,0.0,0.0,0.0,0.0,0.0,0.0,0.0,0.0,0.0,0.0,0.0,0.0,0.0,0.0,0.0,0.0,0.0,0.0,0.2871,0.2874,0.2874,0.2874,0.2874,0.2874,0.2874,0.2874,0.2874,0.2874,0.2874,0.2874,0.2874,0.2874,0.2874,0.2874,0.2874,0.2874,0.2874,0.2874,0.2874,0.2874,0.2874,0.2874,0.2874,0.2874,0.2874,0.2874,0.2874,0.2874,0.2874,0.241,0.2414,0.2429,0.2447,0.245,0.2461,0.2491,0.2495,0.25,0.2512,0.2514,0.2514,0.2514,0.2514,0.2514,0.2514,0.2514,0.2514,0.0,0.0,0.2514,0.2514,0.2514,0.2514,0.2514,0.2514,0.2514,0.2514,0.2514,0.2514,0.2514,0.2514,0.2514,0.2514,0.2514,0.2514,0.2514,0.0,0.2514,0.0,0.0,0.0,0.0,0.2541,0.2559,0.2587,0.2617,0.2628,0.2628,0.0,0.2645,0.0,0.0,0.0,0.0,0.0,0.0,0.0,0.0,0.0,0.0,0.0,0.0,0.0,0.2622,0.0,0.2656,0.0,0.0,0.0,0.0,0.0,0.0,0.0,0.0,0.0,0.0,0.0,0.0,0.0,0.0,0.0,0.0,0.0,0.0,0.0,0.0,0.2874,0.2874,0.2874,0.2874,0.2874,0.2874,0.2874,0.2874,0.2874,0.2874,0.2874,0.2874,0.2874,0.2874,0.2874,0.2874,0.2874,0.2874,0.2874,0.2874,0.2874,0.2874,0.2874,0.2874,0.2874,0.2874,0.2874,0.2874,0.2874,0.2453,0.2448,0.2455,0.2477,0.2481,0.2489,0.2511,0.2514,0.2514,0.2514,0.2514,0.2514,0.2514,0.2514,0.2514,0.2514,0.2514,0.2514,0.0,0.0,0.2514,0.2514,0.2514,0.0,0.2514,0.2514,0.2514,0.2514,0.2514,0.2514,0.2514,0.2514,0.2514,0.2514,0.2514,0.2514,0.2514,0.0,0.2519,0.2529,0.2551,0.2574,0.2596,0.2596,0.2609,0.2631,0.2671,0.2684,0.2687,0.2701,0.2705,0.0,0.2721,0.0,0.0,0.0,0.0,0.0,0.265,0.0,0.0,0.0,0.0,0.0,0.0,0.0,0.0,0.0,0.0,0.0,0.0,0.0,0.0,0.0,0.0,0.0,0.0,0.0,0.0,0.0,0.0,0.0,0.0,0.0,0.0,0.0,0.287,0.2874,0.2874,0.2874,0.2874,0.2874,0.2874,0.2874,0.2874,0.2874,0.2874,0.2874,0.2874,0.2874,0.2874,0.2874,0.2874,0.2874,0.2874,0.2874,0.2874,0.2874,0.2874,0.2874,0.2874,0.2874,0.2874,0.2874,0.2874,0.2874,0.2511,0.2511,0.2512,0.2512,0.2512,0.2514,0.2514,0.2514,0.2514,0.2514,0.2514,0.0,0.0,0.0,0.0,0.0,0.0,0.2514,0.2514,0.0,0.2514,0.0,0.0,0.2514,0.0,0.2514,0.2514,0.2514,0.2514,0.2514,0.2514,0.2514,0.2514,0.2514,0.2514,0.2514,0.2514,0.2514,0.2532,0.2559,0.2559,0.2612,0.2688,0.0,0.2688,0.2698,0.2758,0.0,0.0,0.2746,0.2736,0.0,0.0,0.0,0.0,0.0,0.0,0.0,0.0,0.0,0.0,0.269,0.0,0.0,0.0,0.0,0.2691,0.0,0.0,0.0,0.0,0.0,0.2673,0.2615,0.2654,0.0,0.0,0.0,0.0,0.0,0.0,0.0,0.0,0.0,0.0,0.2827,0.2857,0.2874,0.2874,0.2874,0.2874,0.2874,0.2874,0.2874,0.2874,0.2874,0.2874,0.2874,0.2874,0.2874,0.2874,0.2874,0.2874,0.2874,0.2874,0.2874,0.2874,0.2874,0.2874,0.2874,0.2874,0.2874,0.2874,0.2874,0.2874,0.2874,0.2514,0.2514,0.2514,0.2514,0.2514,0.2514,0.2514,0.2514,0.2514,0.0,0.0,0.0,0.0,0.2514,0.2514,0.0,0.0,0.2514,0.2514,0.2514,0.0,0.0,0.0,0.2514,0.0,0.0,0.0,0.2514,0.2514,0.2514,0.2514,0.2514,0.2514,0.2514,0.2514,0.2526,0.0,0.0,0.0,0.0,0.0,0.269,0.275,0.0,0.0,0.2758,0.2799,0.2814,0.0,0.2825,0.2827,0.2826,0.2815,0.2819,0.2825,0.2804,0.2797,0.0,0.0,0.0,0.2752,0.2752,0.0,0.0,0.0,0.0,0.0,0.0,0.0,0.0,0.0,0.0,0.2686,0.2665,0.2679,0.2686,0.0,0.0,0.0,0.0,0.0,0.0,0.0,0.0,0.0,0.2826,0.2857,0.2874,0.0,0.2874,0.2874,0.2874,0.2874,0.2874,0.2874,0.2874,0.2874,0.2874,0.2874,0.2874,0.2874,0.2874,0.2874,0.2874,0.2874,0.2874,0.2874,0.2874,0.2874,0.2874,0.2874,0.2874,0.2874,0.2874,0.2874,0.2874,0.2514,0.2514,0.2514,0.2514,0.2514,0.2514,0.2514,0.2514,0.0,0.0,0.2514,0.0,0.2529,0.0,0.2534,0.0,0.2545,0.2545,0.2545,0.2545,0.0,0.253,0.253,0.0,0.0,0.0,0.0,0.0,0.0,0.2514,0.2514,0.2514,0.2521,0.253,0.253,0.2547,0.2575,0.2575,0.2597,0.0,0.0,0.2765,0.0,0.0,0.2792,0.2803,0.0,0.2845,0.2848,0.2867,0.2874,0.2874,0.2874,0.2874,0.287,0.2851,0.2845,0.2841,0.2821,0.2815,0.0,0.2815,0.2807,0.0,0.2799,0.0,0.0,0.0,0.0,0.0,0.0,0.0,0.2709,0.2709,0.2699,0.2692,0.0,0.2692,0.0,0.0,0.0,0.0,0.0,0.0,0.0,0.281,0.2841,0.2863,0.0,0.0,0.2874,0.2874,0.2874,0.2874,0.2874,0.2874,0.2874,0.2874,0.2874,0.2874,0.2874,0.2874,0.2874,0.2874,0.2874,0.2874,0.2874,0.2874,0.2874,0.2874,0.2874,0.2874,0.2874,0.2874,0.2874,0.2874,0.2514,0.2514,0.2514,0.2514,0.2514,0.0,0.0,0.0,0.2515,0.0,0.2517,0.2527,0.2559,0.2562,0.2572,0.26,0.2601,0.2601,0.2601,0.2601,0.0,0.0,0.2562,0.2548,0.2519,0.0,0.0,0.0,0.0,0.0,0.2518,0.2518,0.2534,0.2562,0.2562,0.0,0.2604,0.2605,0.2642,0.2706,0.2793,0.283,0.2834,0.2863,0.0,0.2834,0.2863,0.2874,0.2874,0.2874,0.2874,0.2874,0.2874,0.2874,0.2874,0.2874,0.2874,0.2874,0.2874,0.2874,0.2874,0.2874,0.0,0.0,0.0,0.0,0.2788,0.0,0.0,0.0,0.0,0.0,0.0,0.274,0.2714,0.2695,0.2695,0.0,0.0,0.0,0.0,0.0,0.0,0.0,0.2752,0.2781,0.2811,0.2842,0.0,0.0,0.2872,0.2874,0.2874,0.2874,0.2874,0.2874,0.2874,0.2874,0.2874,0.2874,0.2874,0.2874,0.2874,0.2874,0.2874,0.2874,0.2874,0.2874,0.2874,0.2874,0.2874,0.2874,0.2874,0.2874,0.2874,0.2874,0.2514,0.2514,0.2514,0.0,0.2514,0.2514,0.0,0.0,0.0,0.0,0.2548,0.2559,0.2587,0.259,0.2594,0.2601,0.2601,0.0,0.0,0.0,0.0,0.2592,0.259,0.2587,0.2579,0.2579,0.0,0.2579,0.0,0.0,0.2579,0.2579,0.2583,0.259,0.0,0.0,0.2637,0.266,0.2717,0.2796,0.2819,0.2842,0.0,0.0,0.287,0.2863,0.2871,0.2874,0.2874,0.2874,0.2874,0.2874,0.2874,0.2874,0.2874,0.2874,0.2874,0.2874,0.2874,0.2874,0.2874,0.2874,0.2868,0.2863,0.0,0.0,0.0,0.0,0.0,0.0,0.0,0.0,0.0,0.2772,0.2746,0.2727,0.0,0.0,0.0,0.2692,0.0,0.0,0.0,0.0,0.2774,0.2782,0.2811,0.2842,0.0,0.0,0.0,0.2874,0.2874,0.2874,0.2874,0.2874,0.2874,0.2874,0.2874,0.2874,0.2874,0.2874,0.2874,0.2874,0.2874,0.2874,0.2874,0.2874,0.2874,0.2874,0.2874,0.2874,0.2874,0.2874,0.2874,0.2874,0.2514,0.2514,0.0,0.2514,0.0,0.0,0.2514,0.0,0.0,0.2557,0.2571,0.0,0.2619,0.2622,0.2627,0.2641,0.2642,0.0,0.2642,0.0,0.0,0.2622,0.2622,0.2615,0.2602,0.2601,0.0,0.2601,0.0,0.0,0.2601,0.2601,0.2608,0.2622,0.0,0.2646,0.269,0.2733,0.2781,0.283,0.2842,0.0,0.0,0.2874,0.2874,0.2874,0.2874,0.2874,0.2874,0.2874,0.2874,0.2874,0.2874,0.2874,0.2874,0.2874,0.2874,0.2874,0.2874,0.2874,0.2874,0.2874,0.2874,0.2874,0.2874,0.2874,0.3143,0.0,0.0,0.0,0.0,0.0,0.0,0.0,0.0,0.0,0.0,0.0,0.0,0.0,0.0,0.0,0.0,0.0,0.2748,0.2762,0.2792,0.0,0.0,0.0,0.0,0.2874,0.2874,0.2874,0.2874,0.2874,0.2874,0.2874,0.2874,0.2874,0.2874,0.2874,0.2874,0.2874,0.2874,0.2874,0.2874,0.2874,0.2874,0.2874,0.2874,0.2874,0.2874,0.2874,0.2874,0.2874,0.2514,0.2514,0.0,0.0,0.0,0.0,0.0,0.2542,0.0,0.257,0.0,0.2619,0.265,0.2653,0.2665,0.2695,0.0,0.2698,0.2698,0.2698,0.2684,0.2654,0.2653,0.2641,0.2615,0.2613,0.2613,0.0,0.0,0.0,0.2613,0.2613,0.0,0.0,0.0,0.0,0.0,0.2806,0.2831,0.2837,0.2863,0.2874,0.2874,0.2874,0.2874,0.2874,0.2874,0.2874,0.2874,0.2874,0.2874,0.2874,0.2874,0.2874,0.2964,0.3233,0.3233,0.3321,0.359,0.35,0.3321,0.359,0.3411,0.3321,0.359,0.368,0.4126,0.5733,0.4751,0.4126,0.0,0.0,0.0,0.0,0.0,0.0,0.0,0.0,0.0,0.0,0.0,0.0,0.0,0.0,0.0,0.2736,0.0,0.0,0.0,0.0,0.0,0.0,0.2874,0.0,0.2874,0.0,0.2874,0.2874,0.2874,0.2874,0.2874,0.2874,0.2874,0.2874,0.2874,0.2874,0.2874,0.2874,0.2874,0.2874,0.2874,0.2874,0.2874,0.2874,0.2874,0.2874,0.2514,0.0,0.0,0.0,0.0,0.2552,0.2552,0.2556,0.2577,0.2626,0.2635,0.265,0.2682,0.2684,0.2697,0.2728,0.2729,0.0,0.0,0.0,0.0,0.2686,0.2684,0.2682,0.2676,0.2676,0.2676,0.0,0.0,0.0,0.2676,0.2676,0.0,0.0,0.0,0.0,0.2814,0.2825,0.0,0.2867,0.2872,0.2874,0.2874,0.2874,0.2874,0.2874,0.2874,0.2874,0.2874,0.2874,0.2874,0.2874,0.2874,0.2874,0.3233,0.4751,0.5199,0.5557,0.716,0.6448,0.5554,0.716,0.6359,0.5644,0.7249,0.7606,0.7695,0.8052,0.7874,0.7695,0.8052,0.0,0.0,0.0,0.0,0.0,0.0,0.0,0.0,0.0,0.0,0.0,0.0,0.0,0.0,0.0,0.0,0.0,0.0,0.0,0.0,0.0,0.0,0.0,0.0,0.0,0.2874,0.2874,0.2874,0.2874,0.2874,0.2874,0.2874,0.2874,0.2874,0.2874,0.2874,0.2874,0.2874,0.2874,0.2874,0.2874,0.2874,0.2874,0.2874,0.2874,0.0,0.0,0.0,0.0,0.0,0.0,0.0,0.2605,0.0,0.2561,0.2661,0.2683,0.2713,0.2716,0.2728,0.2759,0.2761,0.2761,0.2761,0.2761,0.2755,0.274,0.274,0.0,0.274,0.2724,0.2716,0.2716,0.0,0.0,0.2716,0.2716,0.0,0.2742,0.0,0.2801,0.0,0.0,0.0,0.2874,0.2874,0.2874,0.2874,0.2874,0.2874,0.2874,0.2874,0.35,0.4216,0.3231,0.2874,0.3053,0.4037,0.4395,0.4751,0.6627,0.716,0.7427,0.8319,0.7874,0.7427,0.8409,0.7874,0.7427,0.8409,0.8587,0.8854,0.9833,0.9299,0.8587,0.8587,0.7784,0.0,0.0,0.0,0.0,0.0,0.0,0.0,0.0,0.0,0.0,0.0,0.0,0.0,0.0,0.0,0.0,0.0,0.0,0.0,0.0,0.0,0.0,0.0,0.0,0.0,0.2874,0.2874,0.2874,0.2874,0.2874,0.2874,0.2874,0.2874,0.2874,0.2874,0.2874,0.2874,0.2874,0.2874,0.2874,0.2874,0.2874,0.2874,0.2874,0.0,0.2523,0.0,0.0,0.2574,0.0,0.2641,0.2575,0.2583,0.2583,0.2687,0.2714,0.2744,0.2747,0.2759,0.2791,0.2793,0.2793,0.2793,0.2793,0.2789,0.2784,0.2784,0.2784,0.2784,0.2759,0.2747,0.0,0.0,0.0,0.0,0.2744,0.0,0.0,0.0,0.0,0.0,0.0,0.2874,0.2874,0.2874,0.2874,0.2964,0.3321,0.35,0.359,0.3949,0.502,0.6091,0.4574,0.4126,0.4395,0.5823,0.6359,0.6716,0.8587,0.921,0.9299,0.9655,0.9477,0.9299,0.9744,0.9477,0.9299,0.9744,0.9833,1.0194,1.171,1.0816,0.9655,0.9299,0.8319,0.0,0.0,0.0,0.0,0.0,0.0,0.0,0.0,0.0,0.0,0.0,0.0,0.0,0.0,0.0,0.0,0.0,0.0,0.0,0.0,0.0,0.2874,0.2874,0.0,0.2874,0.0,0.2874,0.2874,0.2874,0.2874,0.2874,0.2874,0.2874,0.2874,0.2874,0.2874,0.2874,0.2874,0.2874,0.2874,0.2874,0.2874,0.2874,0.2874,0.0,0.0,0.0,0.0,0.0,0.0,0.0,0.2694,0.2729,0.2729,0.2732,0.2746,0.2776,0.278,0.2791,0.2822,0.2825,0.2825,0.2825,0.2825,0.2812,0.2784,0.2784,0.2784,0.2784,0.2781,0.278,0.0,0.0,0.0,0.0,0.0,0.0,0.0,0.0,0.0,0.0,0.2872,0.2874,0.2874,0.2874,0.2874,0.3053,0.4751,0.5467,0.5644,0.7427,0.8141,0.8319,0.8141,0.8052,0.8141,0.823,0.8319,0.8676,1.055,1.1172,1.1527,1.3318,1.2509,1.1527,1.3318,1.242,1.1616,1.3318,1.3761,1.385,1.4033,1.385,1.3224,1.1438,1.242,1.242,0.0,0.0,0.0,0.0,0.0,0.0,0.0,0.0,0.0,0.0,0.0,0.0,0.0,0.0,0.0,0.0,0.0,0.0,0.2872,0.0,0.2874,0.2874,0.2874,0.0,0.2874,0.2874,0.2874,0.2874,0.2874,0.2874,0.2874,0.2874,0.2874,0.2874,0.2874,0.2874,0.2874,0.2874,0.2874,0.2874,0.2874,0.2874,0.2874,0.0,0.0,0.0,0.0,0.0,0.0,0.0,0.2722,0.2751,0.2788,0.2777,0.2777,0.2807,0.2811,0.2823,0.2853,0.2856,0.2856,0.2856,0.2856,0.2851,0.2838,0.2838,0.2838,0.2838,0.2819,0.3336,0.0,0.0,0.0,0.0,0.0,0.0,0.0,0.0,0.5179,0.627,0.5109,0.5288,0.6359,0.6359,0.6359,0.6359,0.716,0.7427,0.7517,0.8319,0.8587,0.8587,0.8587,0.7784,0.7249,0.9566,0.8676,0.7427,1.0545,1.1438,1.1527,1.2331,1.2869,1.3318,1.4122,1.3761,1.3318,1.4122,1.4299,1.4299,1.4299,1.4299,1.4033,1.3318,1.2781,1.242,0.0,0.0,0.0,0.0,0.0,0.0,0.0,0.0,0.0,0.0,0.0,0.0,0.0,0.0,0.0,0.0,0.0,0.0,0.2845,0.0,0.2874,0.2874,0.2874,0.2874,0.2874,0.2874,0.2874,0.2874,0.2874,0.2874,0.2874,0.2874,0.2874,0.2874,0.2874,0.2874,0.2874,0.2874,0.2874,0.2874,0.2874,0.2874,0.2874,0.2613,0.0,0.2627,0.0,0.259,0.2691,0.2743,0.2759,0.278,0.2823,0.2818,0.2818,0.284,0.2842,0.2851,0.2872,0.2874,0.2874,0.2874,0.2874,0.2874,0.2874,0.3411,0.0,0.2874,0.3919,0.4876,0.567,0.4927,0.0,0.0,0.0,0.0,0.0,0.716,0.7338,0.8498,0.716,0.7338,0.8587,0.8587,0.8587,0.8676,0.921,0.9121,0.8676,0.921,0.9032,0.8587,0.8587,0.7338,0.627,0.9566,0.8765,0.707,0.9744,1.055,1.0728,1.1261,1.242,1.3584,1.4122,1.4299,1.4299,1.4299,1.4299,1.4299,1.4299,1.4299,1.4299,1.4299,1.3135,1.2509,1.3318,0.0,0.0,0.0,0.0,0.0,0.0,0.7937,0.707,0.5704,0.0,0.0,0.0,0.0,0.0,0.0,0.0,0.0,0.0,0.0,0.0,0.0,0.2874,0.2874,0.2874,0.2874,0.2874,0.2874,0.2874,0.2874,0.2874,0.2874,0.2874,0.2874,0.2874,0.2874,0.2874,0.2874,0.2874,0.2874,0.2874,0.2874,0.2874,0.2641,0.2563,0.2582,0.2727,0.2736,0.2747,0.2778,0.2808,0.2827,0.2829,0.2855,0.2872,0.2874,0.2874,0.2874,0.2874,0.2874,0.2874,0.2874,0.2874,0.2874,0.0,0.0,0.4841,0.2964,0.6624,0.7606,0.5733,0.0,0.0,0.8452,0.0,0.8501,0.8587,0.8587,0.8587,0.8587,0.8587,0.8587,0.8587,0.8587,0.8587,0.8765,1.0639,1.0189,0.8854,1.0728,1.0189,0.8587,0.8587,0.7338,0.6001,0.8052,0.8587,0.8587,0.8587,0.8676,0.9032,1.0905,1.1438,1.1888,1.385,1.4299,1.4299,1.4299,1.4299,1.4299,1.4299,1.4299,1.4299,1.4299,1.4299,1.3673,1.1705,0.0,0.0,0.0,0.0,0.0,0.0,0.6809,0.5615,0.5383,0.0,0.0,0.0,0.0,0.0,0.0,0.0,0.0,0.2871,0.2874,0.0,0.2874,0.2874,0.2874,0.2874,0.2874,0.2874,0.2874,0.2874,0.2874,0.2874,0.2874,0.2874,0.2874,0.2874,0.2874,0.2874,0.2874,0.2874,0.2874,0.2874,0.2874,0.2874,0.2703,0.2709,0.2721,0.2762,0.2769,0.2778,0.281,0.2822,0.2836,0.2857,0.2868,0.2874,0.2874,0.2874,0.2874,0.0,0.2874,0.2874,0.0,0.4126,0.4841,0.4841,0.6627,0.7427,0.6806,0.7963,0.8943,0.9566,0.0,0.0,0.0,1.0495,1.1223,1.242,1.1083,1.1261,1.242,1.1083,1.1261,1.2509,1.2509,1.1705,1.055,1.1172,1.0189,0.8676,0.9299,0.9121,0.8587,0.8587,0.823,0.7784,0.8409,0.7695,0.6895,0.823,0.9477,1.0367,0.9655,1.1349,1.3496,1.4122,1.4299,1.4299,1.4299,1.4299,1.4299,1.4299,1.4299,1.4299,1.4299,1.4299,1.4122,1.3496,1.3938,0.0,0.0,0.0,0.0,0.0,1.18,1.0922,0.0,0.9429,0.0,0.0,0.0,0.0,0.0,0.0,0.0,0.0,0.2863,0.0,0.2874,0.2874,0.2874,0.2874,0.2874,0.2874,0.2874,0.2874,0.2874,0.2874,0.2874,0.2874,0.2874,0.2874,0.2874,0.2874,0.2874,0.2874,0.2874,0.2874,0.2874,0.2874,0.2748,0.2755,0.2765,0.2795,0.28,0.2811,0.2841,0.3465,0.3919,0.3945,0.4574,0.502,0.502,0.502,0.0,0.3053,0.4216,0.4753,0.4037,0.5733,0.6806,0.6806,0.8587,0.9299,0.8587,0.0,0.0,1.1438,1.0994,1.1349,1.2509,1.2509,1.3135,1.421,1.3046,1.3135,1.421,1.2958,1.3224,1.4299,1.4299,1.3584,1.2509,1.2509,1.1349,0.9655,0.9655,0.921,0.8587,0.8587,0.8587,0.8765,0.9388,0.8854,0.7963,0.8409,0.9388,1.0278,0.9744,1.1349,1.3407,1.4122,1.4299,1.4299,1.4299,1.4299,1.4299,1.4299,1.4299,1.4299,1.4299,1.4299,1.4299,1.4299,1.4299,1.4299,1.4299,0.0,0.0,0.0,0.0,0.0,0.0,1.1253,0.0,0.0,0.0,0.0,0.0,0.0,0.0,0.3908,0.3221,0.0,0.2874,0.2874,0.2874,0.2874,0.2874,0.2874,0.2874,0.2874,0.2874,0.2874,0.2874,0.2874,0.2874,0.2874,0.2874,0.2874,0.2874,0.2874,0.2874,0.2874,0.2874,0.2874,0.2781,0.2787,0.0,0.0,0.292,0.0,0.3049,0.4662,0.5912,0.5912,0.7517,0.8587,0.8587,0.8676,0.7338,0.359,0.0,0.0,0.0,0.7695,0.8765,0.8765,1.0639,1.0816,0.9032,1.2509,1.3407,1.1616,1.3407,1.4299,1.4299,1.4299,1.4299,1.4299,1.4299,1.4299,1.4299,1.4299,1.4299,1.4299,1.4299,1.421,1.4122,1.4122,1.2869,1.1172,1.1172,1.0189,0.8765,0.8765,0.8854,0.9299,1.1083,1.1616,1.1261,0.9388,0.8854,0.9388,1.0994,1.1527,1.2065,1.385,1.4299,1.4299,1.4299,1.4299,1.4299,1.4299,1.4299,1.4299,1.4299,1.4299,1.4299,1.4299,1.4299,1.4299,1.4299,0.0,0.0,0.0,0.0,0.0,0.0,1.1552,1.2237,0.0,0.0,0.0,0.0,0.0,0.3996,0.5644,0.4037,0.3053,0.2874,0.2874,0.2874,0.2874,0.2874,0.2874,0.2874,0.2874,0.2874,0.2874,0.2874,0.2874,0.2874,0.2874,0.2874,0.2874,0.2874,0.2874,0.2874,0.2874,0.2874,0.2874,0.0,0.0,0.2827,0.2857,0.4021,0.5005,0.5017,0.6716,0.7874,0.7874,0.8319,0.8587,0.8587,0.9922,0.9833,0.7427,0.8052,0.8409,0.7963,0.9655,1.0728,1.0728,1.2603,1.3407,1.2958,1.385,1.4033,1.3584,1.4033,1.4299,1.4299,1.4299,1.4299,1.4299,1.4299,1.4299,1.4299,1.4299,1.4299,1.4299,1.4299,1.3407,1.2065,1.2065,1.0905,0.9299,0.9299,0.9922,1.0728,1.0728,1.171,1.3046,1.3496,1.3584,1.3224,1.1261,1.1799,1.2692,1.1705,1.2509,1.3761,1.421,1.4299,1.4299,1.4299,1.4299,1.4299,1.4299,1.4299,1.4299,1.4299,1.4299,1.4299,1.4299,1.4299,1.4299,1.4299,1.4299,0.0,0.0,1.3621,1.3608,1.3575,1.3601,1.318,0.0,0.0,0.0,0.0,0.8744,0.6786,0.5733,0.5288,0.4305,0.2874,0.2874,0.2874,0.2874,0.2874,0.2874,0.2874,0.2874,0.2874,0.2874,0.2874,0.2874,0.2874,0.2874,0.2874,0.2874,0.2874,0.2874,0.2874,0.2874,0.2874,0.2874,0.4083,0.4799,0.5428,0.546,0.6359,0.6981,0.6981,0.8676,0.9922,0.9922,1.0639,1.1172,1.1172,1.2154,1.2331,1.1261,1.1172,1.0816,0.9922,1.1705,1.2692,1.2692,1.3761,1.4299,1.4299,1.4299,1.4299,1.4299,1.4299,1.4299,1.4299,1.4299,1.4299,1.4299,1.4299,1.4299,1.4299,1.4299,1.4299,1.4299,1.4299,1.3673,1.2692,1.2692,1.2065,1.1172,1.1172,1.1888,1.2692,1.2692,1.3407,1.4299,1.4299,1.4299,1.4122,1.3046,1.3496,1.4033,1.3046,1.3496,1.4299,1.4299,1.4299,1.4299,1.4299,1.4299,1.4299,1.4299,1.4299,1.4299,1.4299,1.4299,1.4299,1.4299,1.4299,1.4299,1.4299,1.4299,0.0,1.4299,1.4299,1.4299,1.4299,1.4299,1.3856,1.2781,0.0,0.0,1.2692,1.1799,1.0283,0.8409,0.6624,0.5199,0.4216,0.3321,0.2874,0.2874,0.2874,0.2874,0.2874,0.2874,0.2874,0.2874,0.2874,0.2874,0.2874,0.2874,0.2874,0.2874,0.2874,0.2874,0.2874,0.2874,0.2874,0.2874,0.6168,0.7427,0.8587,0.8587,0.8854,0.9032,0.9032,1.0639,1.1799,1.1799,1.3318,1.4299,1.4299,1.4299,1.4299,1.4299,1.4299,1.3584,1.1976,1.3401,1.4299,1.4299,1.4299,1.4299,1.4299,1.4299,1.4299,1.4299,1.4299,1.4299,1.4299,1.4299,1.4299,1.4299,1.4299,1.4299,1.4299,1.4299,1.4299,1.4299,1.4299,1.4299,1.4299,1.4299,1.4299,1.4299,1.4299,1.4299,1.4299,1.4299,1.4299,1.4299,1.4299,1.4299,1.4299,1.4299,1.4299,1.4299,1.4299,1.4299,1.4299,1.4299,1.4299,1.4299,1.4299,1.4299,1.4299,1.4299,1.4299,1.4299,1.4299,1.4299,1.4299,1.4299,1.4299,1.4299,1.4299,0.0,1.4299,1.4299,1.4299,1.4299,1.4299,1.4299,1.4299,1.4299,1.4299,1.4299,0.0,1.4299,1.3584,1.1888,0.8141,0.5823,0.5288,0.368,0.2874,0.2874,0.2874,0.3053,0.3323,0.3053,0.3053,0.3323,0.3053,0.3053,0.3321,0.3321,0.35,0.3769,0.3769,0.3769,0.3769,0.3769,0.3769,0.3769,0.8137,0.8409,0.8587,0.8587,0.9922,1.0994,1.0994,1.2603,1.385,1.385,1.4122,1.4299,1.4299,1.4299,1.4299,1.4299,1.4299,1.421,1.385,1.4122,1.4299,1.4299,1.4299,1.4299,1.4299,1.4299,1.4299,1.4299,1.4299,1.4299,1.4299,1.4299,1.4299,1.4299,1.4299,1.4299,1.4299,1.4299,1.4299,1.4299,1.4299,1.4299,1.4299,1.4299,1.4299,1.4299,1.4299,1.4299,1.4299,1.4299,1.4299,1.4299,1.4299,1.4299,1.4299,1.4299,1.4299,1.4299,1.4299,1.4299,1.4299,1.4299,1.4299,1.4299,1.4299,1.4299,1.4299,1.4299,1.4299,1.4299,1.4299,1.4299,1.4299,1.4299,1.4299,1.4299,1.4299,0.0,1.4299,1.4299,1.4299,1.4299,1.4299,1.4299,1.4299,1.4299,1.4299,1.4299,1.4299,1.4299,1.4122,1.3856,1.0105,0.6627,0.3321,0.3053,0.2874,0.2874,0.2874,0.3769,0.5199,0.359,0.3769,0.5199,0.359,0.3769,0.5288,0.5288,0.627,0.7695,0.7695,0.7695,0.7695,0.7695,0.7695,0.7695,1.01,1.0994,1.171,1.171,1.242,1.2958,1.2958,1.3761,1.4299,1.4299,1.4299,1.4299,1.4299,1.4299,1.4299,1.4299,1.4299,1.4299,1.4299,1.4299,1.4299,1.4299,1.4299,1.4299,1.4299,1.4299,1.4299,1.4299,1.4299,1.4299,1.4299,1.4299,1.4299,1.4299,1.4299,1.4299,1.4299,1.4299,1.4299,1.4299,1.4299,1.4299,1.4299,1.4299,1.4299,1.4299,1.4299,1.4299,1.4299,1.4299,1.4299,1.4299,1.4299,1.4299,1.4299,1.4299,1.4299,1.4299,1.4299,1.4299,1.4299,1.4299,1.4299,1.4299,1.4299,1.4299,1.4299,1.4299,1.4299,1.4299,1.4299,1.4299,1.4299,1.4299,1.4299,0.0,0.0,1.4299,1.4299,1.4299,1.4299,1.4299,1.4299,1.4299,1.4299,1.4299,1.4299,1.4299,1.4299,1.4299,1.4299,1.4299,1.1533,0.8765,0.6001,0.6001,0.6001,0.6001,0.6001,0.6448,0.7249,0.6359,0.6448,0.7249,0.6359,0.6448,0.7249,0.7249,0.7784,0.8587,0.8587,0.8587,0.8587,0.8587,0.8587,0.8587,1.2065,1.3318,1.4299,1.4299,1.4299,1.4299,1.4299,1.4299,1.4299,1.4299,1.4299,1.4299,1.4299,1.4299,1.4299,1.4299,1.4299,1.4299,1.4299,1.4299,1.4299,1.4299,1.4299,1.4299,1.4299,1.4299,1.4299,1.4299,1.4299,1.4299,1.4299,1.4299,1.4299,1.4299,1.4299,1.4299,1.4299,1.4299,1.4299,1.4299,1.4299,1.4299,1.4299,1.4299,1.4299,1.4299,1.4299,1.4299,1.4299,1.4299,1.4299,1.4299,1.4299,1.4299,1.4299,1.4299,1.4299,1.4299,1.4299,1.4299,1.4299,1.4299,1.4299,1.4299,1.4299,1.4299,1.4299,1.4299,1.4299,1.4299,1.4299,1.4299,1.4299,1.4299,0.0,0.0,0.0,1.4299,1.4299,1.4299,1.4299,1.4299,1.4299,1.4299,1.4299,1.4299,1.4299,1.4299,1.4299,1.4299,1.4299,1.4299,1.242,1.0461,0.8587,0.8587,0.8587,0.8587,0.8587,0.8854,0.921,0.8765,0.8854,0.921,0.8765,0.8854,0.921,0.921,0.9477,0.9922,0.9922,0.9922,0.9922,0.9922,0.9922,0.9922,1.4122,1.421,1.4299,1.4299,1.4299,1.4299,1.4299,1.4299,1.4299,1.4299,1.4299,1.4299,1.4299,1.4299,1.4299,1.4299,1.4299,1.4299,1.4299,1.4299,1.4299,1.4299,1.4299,1.4299,1.4299,1.4299,1.4299,1.4299,1.4299,1.4299,1.4299,1.4299,1.4299,1.4299,1.4299,1.4299,1.4299,1.4299,1.4299,1.4299,1.4299,1.4299,1.4299,1.4299,1.4299,1.4299,1.4299,1.4299,1.4299,1.4299,1.4299,1.4299,1.4299,1.4299,1.4299,1.4299,1.4299,1.4299,1.4299,1.4299,1.4299,1.4299,1.4299,1.4299,1.4299,1.4299,1.4299,1.4299,1.4299,1.4299,1.4299,1.4299,1.4299,1.4299,0.0,0.0,1.4299,1.4299,1.4299,1.4299,1.4299,1.4299,1.4299,1.4299,1.4299,1.4299,1.4299,1.4299,1.4299,1.4299,1.4299,1.4299,1.242,1.0461,0.8587,0.8587,0.8587,0.8587,0.8587,0.9477,1.1172,0.9388,0.9566,1.1083,0.9388,0.9566,1.1172,1.1172,1.2243,1.385,1.385,1.385,1.385,1.385,1.385,1.385,1.4299,1.4299,1.4299,1.4299,1.4299,1.4299,1.4299,1.4299,1.4299,1.4299,1.4299,1.4299,1.4299,1.4299,1.4299,1.4299,1.4299,1.4299,1.4299,1.4299,1.4299,1.4299,1.4299,1.4299,1.4299,1.4299,1.4299,1.4299,1.4299,1.4299,1.4299,1.4299,1.4299,1.4299,1.4299,1.4299,1.4299,1.4299,1.4299,1.4299,1.4299,1.4299,1.4299,1.4299,1.4299,1.4299,1.4299,1.4299,1.4299,1.4299,1.4299,1.4299,1.4299,1.4299,1.4299,1.4299,1.4299,1.4299,1.4299,1.4299,1.4299,1.4299,1.4299,1.4299,1.4299,1.4299,1.4299,1.4299,1.4299,1.4299,1.4299,1.4299,1.4299,1.4299,0.0,1.4299,1.4299,1.4299,1.4299,1.4299,1.4299,1.4299,1.4299,1.4299,1.4299,1.4299,1.4299,1.4299,1.4299,1.4299,1.4299,1.4299,1.3584,1.2869,1.2154,1.2154,1.2154,1.2154,1.2154,1.2514,1.3135,1.242,1.2514,1.3135,1.242,1.2509,1.3224,1.3224,1.3673,1.4299,1.4299,1.4299,1.4299,1.4299,1.4299,1.4299,1.4299,1.4299,1.4299,1.4299,1.4299,1.4299,1.4299,1.4299,1.4299,1.4299,1.4299,1.4299,1.4299,1.4299,1.4299,1.4299,1.4299,1.4319,1.4367,1.4414,1.4394,1.4306,1.4299,1.4299,1.4299,1.4299,1.4299,1.4299,1.4299,1.4299,1.4299,1.4299,1.4299,1.4299,1.4299,1.4299,1.4299,1.4299,1.4299,1.4299,1.4299,1.4299,1.4299,1.4299,1.4299,1.4299,1.4299,1.4299,1.4299,1.4299,1.4299,1.4299,1.4299,1.4299,1.4299,1.4299,1.4299,1.4299,1.4299,1.4299,1.4299,1.4299,1.4299,1.4299,1.4299,1.4299,1.4299,1.4299,1.4299,1.4299,1.4299,1.4299,1.4299,1.4299,1.4299,1.4299,1.4299,1.4299,1.4299,1.4299,1.4299,1.4299,1.4299,1.4299,1.4299,1.4299,1.4299,1.4299,1.4299,1.4299,1.4299,1.4299,1.4299,1.4299,1.4299,1.4299,1.4299,1.4299,1.4299,1.4299,1.4299,1.4299,1.4299,1.4299,1.4299,1.4299,1.4299,1.4299,1.4299,1.4299,1.4299,1.4299,1.4299,1.4299,1.4299,1.4299,1.4299,1.4299,1.4299,1.4299,1.4299,1.4299,1.4299,1.4299,1.4299,1.4299,1.4299,1.4299,1.4299,1.4299,1.4299,1.4299,1.4306,1.4367,1.4502,1.4658,1.4611,1.4319,1.4306,1.4306,1.4299,1.4299,1.4299,1.4299,1.4299,1.4299,1.4299,1.4299,1.4299,1.4299,1.4299,1.4299,1.4299,1.4299,1.4299,1.4299,1.4299,1.4299,1.4299,1.4299,1.4299,1.4299,1.4299,1.4299,1.4299,1.4299,1.4299,1.4299,1.4299,1.4299,1.4299,1.4299,1.4299,1.4299,1.4299,1.4299,1.4299,1.4299,1.4299,1.4299,1.4299,1.4299,1.4299,1.4299,1.4299,1.4299,1.4299,1.4299,1.4299,1.4299,1.4299,1.4299,1.4299,1.4299,1.4299,1.4299,1.4299,1.4299,1.4299,1.4299,1.4299,1.4299,1.4299,1.4299,1.4299,1.4299,1.4299,1.4299,1.4299,1.4299,1.4299,1.4299,1.4299,1.4299,1.4299,1.4299,1.4299,1.4299,1.4299,1.4299,1.4299,1.4299,1.4299,1.4299,1.4299,1.4299,1.4299,1.4299,1.4299,1.4299,1.4299,1.4299,1.4299,1.4299,1.4299,1.4299,1.4299,1.4299,1.4299,1.4299,1.4299,1.4299,1.4299,1.4299,1.4299,1.4387,1.4448,1.4448,1.455,1.4624,1.4672,1.4713,1.4699,1.4611,1.4611,1.4557,1.4448,1.4448,1.4401,1.4299,1.4299,1.4299,1.4299,1.4299,1.4299,1.4299,1.4299,1.4299,1.4299,1.4299,1.4299,1.4299,1.4299,1.4299,1.4299,1.4299,1.4299,1.4299,1.4299,1.4299,1.4299,1.4299,1.4299,1.4299,1.4299,1.4299,1.4299,1.4299,1.4299,1.4299,1.4299,1.4299,1.4299,1.4299,1.4299,1.4299,1.4299,1.4299,1.4299,1.4299,1.4299,1.4299,1.4299,1.4299,1.4299,1.4299,1.4299,1.4299,1.4299,1.4299,1.4299,1.4299,1.4299,1.4299,1.4299,1.4299,1.4299,1.4299,1.4299,1.4299,1.4299,1.4299,1.4299,1.4299,1.4299,1.4299,1.4299,1.4299,1.4299,1.4299,1.4299,1.4299,1.4299,1.4299,1.4299,1.4299,1.4299,1.4299,1.4299,1.4299,1.4299,1.4299,1.4299,1.4299,1.4299,1.4299,1.4299,1.4299,1.4299,1.4299,1.4299,1.4299,1.4299,1.4299,1.4299,1.4299,1.4299,1.4299,1.4346,1.438,1.438,1.4516,1.4604,1.4604,1.474,1.4828,1.4828,1.4882,1.4916,1.4916,1.4916,1.4814,1.4604,1.4604,1.4529,1.438,1.438,1.4353,1.4299,1.4299,1.4299,1.4299,1.4299,1.4299,1.4299,1.4299,1.4299,1.4299,1.4299,1.4299,1.4299,1.4299,1.4299,1.4299,1.4299,1.4299,1.4299,1.4299,1.4299,1.4299,1.4299,1.4299,1.4299,1.4299,1.4299,1.4299,1.4299,1.4299,1.4299,1.4299,1.4299,1.4299,1.4299,1.4299,1.4299,1.4299,1.4299,1.4299,1.4299,1.4299,1.4299,1.4299,1.4299,1.4299,1.4299,1.4299,1.4299,1.4299,1.4299,1.4299,1.4299,1.4299,1.4299,1.4299,1.4299,1.4299,1.4299,1.4299,1.4299,1.4299,1.4299,1.4299,1.4299,1.4299,1.4299,1.4299,1.4299,1.4299,1.4299,1.4299,1.4299,1.4299,1.4299,1.4299,1.4299,1.4299,1.4299,1.4299,1.4299,1.4299,1.4299,1.4299,1.4299,1.4299,1.4299,1.4299,1.4299,1.4299,1.4299,1.4299,1.4299,1.4312,1.4319,1.4319,1.4441,1.4529,1.4529,1.4665,1.476,1.476,1.4903,1.4991,1.4991,1.5113,1.5181,1.5181,1.5181,1.5059,1.4787,1.4767,1.4685,1.4529,1.4529,1.4462,1.4319,1.4319,1.4312,1.4299,1.4299,1.4299,1.4299,1.4299,1.4299,1.4299,1.4299,1.4299,1.4299,1.4299,1.4299,1.4299,1.4299,1.4299,1.4299,1.4299,1.4299,1.4299,1.4299,1.4299,1.4299,1.4299,1.4299,1.4299,1.4299,1.4299,1.4299,1.4299,1.4299,1.4299,1.4299,1.4299,1.4299,1.4299,1.4299,1.4299,1.4299,1.4299,1.4299,1.4299,1.4299,1.4299,1.4299,1.4299,1.4299,1.4299,1.4299,1.4299,1.4299,1.4299,1.4299,1.4299,1.4299,1.4299,1.4299,1.4299,1.4299,1.4299,1.4299,1.4299,1.4299,1.4299,1.4299,1.4299,1.4299,1.4299,1.4299,1.4299,1.4299,1.4299,1.4299,1.4299,1.4299,1.4299,1.4299,1.4299,1.4299,1.4299,1.4299,1.4299,1.4299,1.4299,1.4299,1.4299,1.4299,1.4299,1.4299,1.4299,1.4299,1.4394,1.4468,1.4468,1.4597,1.4692,1.4692,1.4828,1.4923,1.4923,1.5052,1.514,1.514,1.5167,1.5181,1.5181,1.5181,1.5153,1.5086,1.4977,1.4841,1.4692,1.4692,1.4611,1.4468,1.4468,1.4407,1.4299,1.4299,1.4299,1.4299,1.4299,1.4299,1.4299,1.4299,1.4299,1.4299,1.4299,1.4299,1.4299,1.4299,1.4299,1.4299,1.4299,1.4299,1.4299,1.4299,1.4299,1.4299,1.4299,1.4299,1.4299,1.4299,1.4299,1.4299,1.4299,1.4299,1.4299,1.4299,1.4299,1.4299,1.4299,1.4299,1.4299,1.4299,1.4299,1.4299,1.4299,1.4299,1.4299,1.4299,1.4299,1.4299,1.4299,1.4299,1.4299,1.4299,1.4299,1.4299,1.4299,1.4299,1.4299,1.4299,1.4299,1.4299,1.4299,1.4299,1.4299,1.4299,1.4299,1.4299,1.4299,1.4299,1.4299,1.4299,1.4299,1.4299,1.4299,1.4299,1.4299,1.4299,1.4299,1.4299,1.4299,1.4299,1.4299,1.4299,1.4299,1.4299,1.4299,1.4299,1.4299,1.4299,1.4299,1.4299,1.4326,1.4387,1.4462,1.4536,1.4611,1.4753,1.4848,1.4848,1.4984,1.5072,1.5072,1.514,1.5181,1.5181,1.5181,1.5181,1.5181,1.5181,1.5181,1.5181,1.5113,1.4997,1.4848,1.4848,1.4774,1.4618,1.4618,1.4584,1.4509,1.4509,1.4509,1.4509,1.4434,1.4401,1.4394,1.4326,1.4299,1.4299,1.4299,1.4299,1.4299,1.4299,1.4299,1.4299,1.4299,1.4299,1.4299,1.4299,1.4299,1.4299,1.4299,1.4299,1.4299,1.4299,1.4299,1.4299,1.4299,1.4299,1.4299,1.4299,1.4299,1.4299,1.4299,1.4299,1.4299,1.4299,1.4299,1.4299,1.4299,1.4299,1.4299,1.4299,1.4299,1.4299,1.4299,1.4299,1.4299,1.4299,1.4299,1.4299,1.4299,1.4299,1.4299,1.4299,1.4299,1.4299,1.4299,1.4299,1.4299,1.4299,1.4299,1.4299,1.4299,1.4299,1.4299,1.4299,1.4299,1.4299,1.4299,1.4299,1.4299,1.4299,1.4299,1.4299,1.4299,1.4299,1.4299,1.4299,1.4299,1.4299,1.4299,1.4299,1.4299,1.4299,1.4299,1.4319,1.4373,1.4496,1.4557,1.4638,1.476,1.4909,1.5011,1.5011,1.5113,1.5181,1.5181,1.5181,1.5181,1.5181,1.5181,1.5181,1.5181,1.5181,1.5181,1.5181,1.5181,1.5126,1.5011,1.5011,1.493,1.478,1.478,1.4767,1.474,1.474,1.474,1.4733,1.4604,1.455,1.4536,1.4421,1.4373,1.4373,1.4346,1.434,1.4333,1.4306,1.4299,1.4299,1.4299,1.4299,1.4299,1.4299,1.4299,1.4299,1.4299,1.4299,1.4299,1.4299,1.4299,1.4299,1.4299,1.4299,1.4299,1.4299,1.4299,1.4299,1.4299,1.4299,1.4299,1.4299,1.4299,1.4299,1.4299,1.4299,1.4299,1.4299,1.4299,1.4299,1.4299,1.4299,1.4299,1.4299,1.4299,1.4299,1.4299,1.4299,1.4299,1.4299,1.4299,1.4299,1.4299,1.4299,1.4299,1.4299,1.4299,1.4299,1.4299,1.4299,1.4299,1.4299,1.4299,1.4299,1.4299,1.4299,1.4299,1.4299,1.4299,1.4299,1.4299,1.4299,1.4299,1.4299,1.4299,1.4299,1.4299,1.4299,1.4299,1.4299,1.4299,1.4401,1.4489,1.4509,1.474,1.4916,1.4936,1.5065,1.5153,1.5153,1.5167,1.5181,1.5181,1.5181,1.5181,1.5181,1.5181,1.5181,1.5181,1.5181,1.5181,1.5181,1.5181,1.5174,1.5153,1.5153,1.5079,1.4936,1.4936,1.4869,1.474,1.474,1.474,1.474,1.4719,1.4706,1.4706,1.4685,1.4679,1.4665,1.4529,1.4482,1.4468,1.4346,1.4299,1.4299,1.4299,1.4299,1.4299,1.4299,1.4299,1.4299,1.4299,1.4299,1.4299,1.4299,1.4299,1.4299,1.4299,1.4299,1.4299,1.4299,1.4299,1.4299,1.4299,1.4299,1.4299,1.4299,1.4299,1.4299,1.4299,1.4299,1.4299,1.4299,1.4299,1.4299,1.4299,1.4299,1.4299,1.4299,1.4299,1.4299,1.4299,1.4299,1.4299,1.4299,1.4299,1.4299,1.4299,1.4299,1.4299,1.4299,1.4299,1.4299,1.4299,1.4299,1.4299,1.4299,1.4299,1.4299,1.4299,1.4299,1.4299,1.4299,1.4299,1.4299,1.4299,1.4299,1.4299,1.4299,1.4299,1.4299,1.4299,1.4299,1.4299,1.4326,1.4407,1.4468,1.457,1.474,1.4882,1.4997,1.5079,1.5147,1.5181,1.5181,1.5181,1.5181,1.5181,1.5181,1.5181,1.5181,1.5181,1.5181,1.5181,1.5181,1.5181,1.5181,1.5181,1.5181,1.5181,1.5181,1.5153,1.5086,1.5086,1.5052,1.4991,1.4991,1.4991,1.4984,1.4903,1.4869,1.4862,1.4774,1.474,1.4733,1.4665,1.4638,1.4631,1.457,1.4489,1.4421,1.4421,1.4367,1.4299,1.4299,1.4299,1.4299,1.4299,1.4299,1.4299,1.4299,1.4299,1.4299,1.4299,1.4299,1.4299,1.4299,1.4299,1.4299,1.4299,1.4299,1.4299,1.4299,1.4299,1.4299,1.4299,1.4299,1.4299,1.4299,1.4299,1.4299,1.4299,1.4299,1.4299,1.4299,1.4299,1.4299,1.4299,1.4299,1.4299,1.4299,1.4299,1.4299,1.4299,1.4299,1.4299,1.4299,1.4299,1.4299,1.4299,1.4299,1.4299,1.4299,1.4299,1.4299,1.4299,1.4299,1.4299,1.4299,1.4299,1.4299,1.4299,1.4299,1.4299,1.4299,1.4299,1.4299,1.4299]}]]